﻿<?xml version="1.0" encoding="utf-8"?><gpx creator="Garmin Desktop App" version="1.1" xsi:schemaLocation="http://www.topografix.com/GPX/1/1 http://www.topografix.com/GPX/1/1/gpx.xsd http://www.garmin.com/xmlschemas/WaypointExtension/v1 http://www8.garmin.com/xmlschemas/WaypointExtensionv1.xsd http://www.garmin.com/xmlschemas/TrackPointExtension/v1 http://www.garmin.com/xmlschemas/TrackPointExtensionv1.xsd http://www.garmin.com/xmlschemas/GpxExtensions/v3 http://www8.garmin.com/xmlschemas/GpxExtensionsv3.xsd http://www.garmin.com/xmlschemas/ActivityExtension/v1 http://www8.garmin.com/xmlschemas/ActivityExtensionv1.xsd http://www.garmin.com/xmlschemas/AdventuresExtensions/v1 http://www8.garmin.com/xmlschemas/AdventuresExtensionv1.xsd http://www.garmin.com/xmlschemas/PressureExtension/v1 http://www.garmin.com/xmlschemas/PressureExtensionv1.xsd http://www.garmin.com/xmlschemas/TripExtensions/v1 http://www.garmin.com/xmlschemas/TripExtensionsv1.xsd http://www.garmin.com/xmlschemas/TripMetaDataExtensions/v1 http://www.garmin.com/xmlschemas/TripMetaDataExtensionsv1.xsd http://www.garmin.com/xmlschemas/ViaPointTransportationModeExtensions/v1 http://www.garmin.com/xmlschemas/ViaPointTransportationModeExtensionsv1.xsd http://www.garmin.com/xmlschemas/CreationTimeExtension/v1 http://www.garmin.com/xmlschemas/CreationTimeExtensionsv1.xsd http://www.garmin.com/xmlschemas/AccelerationExtension/v1 http://www.garmin.com/xmlschemas/AccelerationExtensionv1.xsd http://www.garmin.com/xmlschemas/PowerExtension/v1 http://www.garmin.com/xmlschemas/PowerExtensionv1.xsd http://www.garmin.com/xmlschemas/VideoExtension/v1 http://www.garmin.com/xmlschemas/VideoExtensionv1.xsd" xmlns="http://www.topografix.com/GPX/1/1" xmlns:xsi="http://www.w3.org/2001/XMLSchema-instance" xmlns:wptx1="http://www.garmin.com/xmlschemas/WaypointExtension/v1" xmlns:gpxtrx="http://www.garmin.com/xmlschemas/GpxExtensions/v3" xmlns:gpxtpx="http://www.garmin.com/xmlschemas/TrackPointExtension/v1" xmlns:gpxx="http://www.garmin.com/xmlschemas/GpxExtensions/v3" xmlns:trp="http://www.garmin.com/xmlschemas/TripExtensions/v1" xmlns:adv="http://www.garmin.com/xmlschemas/AdventuresExtensions/v1" xmlns:prs="http://www.garmin.com/xmlschemas/PressureExtension/v1" xmlns:tmd="http://www.garmin.com/xmlschemas/TripMetaDataExtensions/v1" xmlns:vptm="http://www.garmin.com/xmlschemas/ViaPointTransportationModeExtensions/v1" xmlns:ctx="http://www.garmin.com/xmlschemas/CreationTimeExtension/v1" xmlns:gpxacc="http://www.garmin.com/xmlschemas/AccelerationExtension/v1" xmlns:gpxpx="http://www.garmin.com/xmlschemas/PowerExtension/v1" xmlns:vidx1="http://www.garmin.com/xmlschemas/VideoExtension/v1">

  <metadata>
    <link href="http://www.garmin.com">
      <text>Garmin International</text>
    </link>
    <time>2019-08-09T19:20:47Z</time>
    <bounds maxlat="46.15740311332047" maxlon="8.193876380100846" minlat="46.144218966364861" minlon="8.138816831633449" />
  </metadata>

  <trk>
    <name>cima-verosso2019-08-04</name>
    <extensions>
      <gpxx:TrackExtension>
        <gpxx:DisplayColor>Yellow</gpxx:DisplayColor>
      </gpxx:TrackExtension>
      <gpxtrkx:TrackStatsExtension xmlns:gpxtrkx="http://www.garmin.com/xmlschemas/TrackStatsExtension/v1">
        <gpxtrkx:Distance>12830</gpxtrkx:Distance>
        <gpxtrkx:TotalElapsedTime>30885</gpxtrkx:TotalElapsedTime>
        <gpxtrkx:MovingTime>18627</gpxtrkx:MovingTime>
        <gpxtrkx:StoppedTime>12246</gpxtrkx:StoppedTime>
        <gpxtrkx:MovingSpeed>1</gpxtrkx:MovingSpeed>
        <gpxtrkx:MaxSpeed>2</gpxtrkx:MaxSpeed>
        <gpxtrkx:MaxElevation>2446</gpxtrkx:MaxElevation>
        <gpxtrkx:MinElevation>1637</gpxtrkx:MinElevation>
        <gpxtrkx:Ascent>1006</gpxtrkx:Ascent>
        <gpxtrkx:Descent>1004</gpxtrkx:Descent>
        <gpxtrkx:AvgAscentRate>0</gpxtrkx:AvgAscentRate>
        <gpxtrkx:MaxAscentRate>1</gpxtrkx:MaxAscentRate>
        <gpxtrkx:AvgDescentRate>0</gpxtrkx:AvgDescentRate>
        <gpxtrkx:MaxDescentRate>-1</gpxtrkx:MaxDescentRate>
      </gpxtrkx:TrackStatsExtension>
    </extensions>
    <trkseg>
      <trkpt lat="46.151554305106401" lon="8.193375309929252">
        <ele>1637.8</ele>
        <time>2019-08-04T06:59:49Z</time>
      </trkpt>
      <trkpt lat="46.151555730029941" lon="8.193375645205379">
        <ele>1637.8</ele>
        <time>2019-08-04T06:59:50Z</time>
      </trkpt>
      <trkpt lat="46.151550533249974" lon="8.19337229244411">
        <ele>1637.3399999999999</ele>
        <time>2019-08-04T07:00:02Z</time>
      </trkpt>
      <trkpt lat="46.151519855484366" lon="8.193357456475496">
        <ele>1637.05</ele>
        <time>2019-08-04T07:00:29Z</time>
      </trkpt>
      <trkpt lat="46.151381302624941" lon="8.193304147571325">
        <ele>1637.6900000000001</ele>
        <time>2019-08-04T07:00:43Z</time>
      </trkpt>
      <trkpt lat="46.151349367573857" lon="8.193376315757632">
        <ele>1638.24</ele>
        <time>2019-08-04T07:00:56Z</time>
      </trkpt>
      <trkpt lat="46.151312990114093" lon="8.193404311314225">
        <ele>1638.4400000000001</ele>
        <time>2019-08-04T07:01:01Z</time>
      </trkpt>
      <trkpt lat="46.15127669647336" lon="8.193450998514891">
        <ele>1638.6300000000001</ele>
        <time>2019-08-04T07:01:06Z</time>
      </trkpt>
      <trkpt lat="46.15117602981627" lon="8.193619474768639">
        <ele>1639.02</ele>
        <time>2019-08-04T07:01:22Z</time>
      </trkpt>
      <trkpt lat="46.151132192462683" lon="8.193715950474143">
        <ele>1638.8099999999999</ele>
        <time>2019-08-04T07:01:35Z</time>
      </trkpt>
      <trkpt lat="46.151095647364855" lon="8.193717962130904">
        <ele>1638.9000000000001</ele>
        <time>2019-08-04T07:01:53Z</time>
      </trkpt>
      <trkpt lat="46.15102800540626" lon="8.193649230524898">
        <ele>1639.26</ele>
        <time>2019-08-04T07:02:06Z</time>
      </trkpt>
      <trkpt lat="46.150977211073041" lon="8.193592065945268">
        <ele>1639.3199999999999</ele>
        <time>2019-08-04T07:02:28Z</time>
      </trkpt>
      <trkpt lat="46.150922561064363" lon="8.193542277440429">
        <ele>1638.9200000000001</ele>
        <time>2019-08-04T07:02:51Z</time>
      </trkpt>
      <trkpt lat="46.150914849713445" lon="8.193541103973985">
        <ele>1638.8900000000001</ele>
        <time>2019-08-04T07:02:55Z</time>
      </trkpt>
      <trkpt lat="46.15095759741962" lon="8.193590389564633">
        <ele>1638.77</ele>
        <time>2019-08-04T07:03:12Z</time>
      </trkpt>
      <trkpt lat="46.1509620398283" lon="8.193604471161962">
        <ele>1638.5699999999999</ele>
        <time>2019-08-04T07:03:33Z</time>
      </trkpt>
      <trkpt lat="46.150958854705095" lon="8.193616960197687">
        <ele>1638.95</ele>
        <time>2019-08-04T07:03:48Z</time>
      </trkpt>
      <trkpt lat="46.150965979322791" lon="8.193625593557954">
        <ele>1639.3299999999999</ele>
        <time>2019-08-04T07:04:04Z</time>
      </trkpt>
      <trkpt lat="46.150970757007599" lon="8.193627186119556">
        <ele>1639.49</ele>
        <time>2019-08-04T07:04:25Z</time>
      </trkpt>
      <trkpt lat="46.150968745350838" lon="8.193636406213045">
        <ele>1639.49</ele>
        <time>2019-08-04T07:04:51Z</time>
      </trkpt>
      <trkpt lat="46.150987939909101" lon="8.193657612428069">
        <ele>1639.45</ele>
        <time>2019-08-04T07:05:05Z</time>
      </trkpt>
      <trkpt lat="46.150977378711104" lon="8.193652080371976">
        <ele>1639.5699999999999</ele>
        <time>2019-08-04T07:05:27Z</time>
      </trkpt>
      <trkpt lat="46.150976540520787" lon="8.193653337657452">
        <ele>1639.52</ele>
        <time>2019-08-04T07:05:46Z</time>
      </trkpt>
      <trkpt lat="46.15101526491344" lon="8.19369868375361">
        <ele>1639.6199999999999</ele>
        <time>2019-08-04T07:05:59Z</time>
      </trkpt>
      <trkpt lat="46.150991208851337" lon="8.193670436739922">
        <ele>1639.54</ele>
        <time>2019-08-04T07:06:09Z</time>
      </trkpt>
      <trkpt lat="46.151001015678048" lon="8.193658702075481">
        <ele>1639.3299999999999</ele>
        <time>2019-08-04T07:06:26Z</time>
      </trkpt>
      <trkpt lat="46.150975786149502" lon="8.193606063723564">
        <ele>1639.48</ele>
        <time>2019-08-04T07:06:40Z</time>
      </trkpt>
      <trkpt lat="46.150926752015948" lon="8.193580247461796">
        <ele>1639.8800000000001</ele>
        <time>2019-08-04T07:06:54Z</time>
      </trkpt>
      <trkpt lat="46.150963045656681" lon="8.193606063723564">
        <ele>1639.8199999999999</ele>
        <time>2019-08-04T07:07:06Z</time>
      </trkpt>
      <trkpt lat="46.150995818898082" lon="8.193612014874816">
        <ele>1639.55</ele>
        <time>2019-08-04T07:07:21Z</time>
      </trkpt>
      <trkpt lat="46.151000848039985" lon="8.193643027916551">
        <ele>1639.5</ele>
        <time>2019-08-04T07:07:46Z</time>
      </trkpt>
      <trkpt lat="46.151001183316112" lon="8.193653840571642">
        <ele>1639.4000000000001</ele>
        <time>2019-08-04T07:08:07Z</time>
      </trkpt>
      <trkpt lat="46.151002189144492" lon="8.193632969632745">
        <ele>1639.1300000000001</ele>
        <time>2019-08-04T07:08:33Z</time>
      </trkpt>
      <trkpt lat="46.150999255478382" lon="8.193615032359958">
        <ele>1639.5599999999999</ele>
        <time>2019-08-04T07:08:58Z</time>
      </trkpt>
      <trkpt lat="46.151011660695076" lon="8.193599777296186">
        <ele>1639.48</ele>
        <time>2019-08-04T07:09:22Z</time>
      </trkpt>
      <trkpt lat="46.151021970435977" lon="8.193600531667471">
        <ele>1639.4400000000001</ele>
        <time>2019-08-04T07:09:52Z</time>
      </trkpt>
      <trkpt lat="46.151048960164189" lon="8.193631796166301">
        <ele>1639.3299999999999</ele>
        <time>2019-08-04T07:10:19Z</time>
      </trkpt>
      <trkpt lat="46.151038315147161" lon="8.193638250231743">
        <ele>1639.3699999999999</ele>
        <time>2019-08-04T07:10:38Z</time>
      </trkpt>
      <trkpt lat="46.151018952950835" lon="8.193652499467135">
        <ele>1639.5699999999999</ele>
        <time>2019-08-04T07:11:03Z</time>
      </trkpt>
      <trkpt lat="46.15103923715651" lon="8.193645039573312">
        <ele>1639.78</ele>
        <time>2019-08-04T07:11:30Z</time>
      </trkpt>
      <trkpt lat="46.151036806404591" lon="8.193647973239422">
        <ele>1639.5</ele>
        <time>2019-08-04T07:11:55Z</time>
      </trkpt>
      <trkpt lat="46.151019120588899" lon="8.193619307130575">
        <ele>1640.04</ele>
        <time>2019-08-04T07:12:27Z</time>
      </trkpt>
      <trkpt lat="46.151015181094408" lon="8.193636825308204">
        <ele>1639.9300000000001</ele>
        <time>2019-08-04T07:12:51Z</time>
      </trkpt>
      <trkpt lat="46.151035213842988" lon="8.193657444790006">
        <ele>1639.8299999999999</ele>
        <time>2019-08-04T07:13:19Z</time>
      </trkpt>
      <trkpt lat="46.15094200707972" lon="8.193641183897853">
        <ele>1640.71</ele>
        <time>2019-08-04T07:13:35Z</time>
      </trkpt>
      <trkpt lat="46.15088626742363" lon="8.193541271612048">
        <ele>1642.99</ele>
        <time>2019-08-04T07:13:50Z</time>
      </trkpt>
      <trkpt lat="46.15082960575819" lon="8.193419650197029">
        <ele>1645.3599999999999</ele>
        <time>2019-08-04T07:14:06Z</time>
      </trkpt>
      <trkpt lat="46.15082424134016" lon="8.193312026560307">
        <ele>1647.45</ele>
        <time>2019-08-04T07:14:21Z</time>
      </trkpt>
      <trkpt lat="46.150820385664701" lon="8.193216556683183">
        <ele>1650.6300000000001</ele>
        <time>2019-08-04T07:14:38Z</time>
      </trkpt>
      <trkpt lat="46.150842094793916" lon="8.19312259554863">
        <ele>1652.9000000000001</ele>
        <time>2019-08-04T07:14:54Z</time>
      </trkpt>
      <trkpt lat="46.150877047330141" lon="8.192993011325598">
        <ele>1655.4100000000001</ele>
        <time>2019-08-04T07:15:12Z</time>
      </trkpt>
      <trkpt lat="46.150884507223964" lon="8.192896619439125">
        <ele>1657.6400000000001</ele>
        <time>2019-08-04T07:15:28Z</time>
      </trkpt>
      <trkpt lat="46.150870257988572" lon="8.192818332463503">
        <ele>1660.3</ele>
        <time>2019-08-04T07:15:45Z</time>
      </trkpt>
      <trkpt lat="46.150867994874716" lon="8.192726718261838">
        <ele>1662.48</ele>
        <time>2019-08-04T07:16:00Z</time>
      </trkpt>
      <trkpt lat="46.15087210200727" lon="8.19263351149857">
        <ele>1664.96</ele>
        <time>2019-08-04T07:16:17Z</time>
      </trkpt>
      <trkpt lat="46.150832958519459" lon="8.192581543698907">
        <ele>1667.53</ele>
        <time>2019-08-04T07:16:34Z</time>
      </trkpt>
      <trkpt lat="46.150792725384235" lon="8.192585483193398">
        <ele>1669.45</ele>
        <time>2019-08-04T07:16:48Z</time>
      </trkpt>
      <trkpt lat="46.150772273540497" lon="8.192441398277879">
        <ele>1671.8599999999999</ele>
        <time>2019-08-04T07:17:05Z</time>
      </trkpt>
      <trkpt lat="46.150720221921802" lon="8.192317597568035">
        <ele>1672.5799999999999</ele>
        <time>2019-08-04T07:17:18Z</time>
      </trkpt>
      <trkpt lat="46.150648221373558" lon="8.192176781594753">
        <ele>1673.5999999999999</ele>
        <time>2019-08-04T07:17:35Z</time>
      </trkpt>
      <trkpt lat="46.150625087320805" lon="8.19202272221446">
        <ele>1676.23</ele>
        <time>2019-08-04T07:17:50Z</time>
      </trkpt>
      <trkpt lat="46.15059114061296" lon="8.191927671432495">
        <ele>1678.9200000000001</ele>
        <time>2019-08-04T07:18:07Z</time>
      </trkpt>
      <trkpt lat="46.150557780638337" lon="8.191872937604785">
        <ele>1681.3299999999999</ele>
        <time>2019-08-04T07:18:20Z</time>
      </trkpt>
      <trkpt lat="46.150529282167554" lon="8.191780401393771">
        <ele>1683.5899999999999</ele>
        <time>2019-08-04T07:18:35Z</time>
      </trkpt>
      <trkpt lat="46.150502627715468" lon="8.191712843254209">
        <ele>1685.73</ele>
        <time>2019-08-04T07:18:49Z</time>
      </trkpt>
      <trkpt lat="46.150446385145187" lon="8.191649727523327">
        <ele>1688.3800000000001</ele>
        <time>2019-08-04T07:19:06Z</time>
      </trkpt>
      <trkpt lat="46.150409253314137" lon="8.191521232947707">
        <ele>1690.4200000000001</ele>
        <time>2019-08-04T07:19:21Z</time>
      </trkpt>
      <trkpt lat="46.150355106219649" lon="8.191350158303976">
        <ele>1692.4400000000001</ele>
        <time>2019-08-04T07:19:41Z</time>
      </trkpt>
      <trkpt lat="46.150292241945863" lon="8.191241864115">
        <ele>1694.25</ele>
        <time>2019-08-04T07:19:57Z</time>
      </trkpt>
      <trkpt lat="46.150237340480089" lon="8.191163493320346">
        <ele>1695.3299999999999</ele>
        <time>2019-08-04T07:20:09Z</time>
      </trkpt>
      <trkpt lat="46.150203226134181" lon="8.19101077504456">
        <ele>1696.5899999999999</ele>
        <time>2019-08-04T07:20:24Z</time>
      </trkpt>
      <trkpt lat="46.150145810097456" lon="8.19089736789465">
        <ele>1698.22</ele>
        <time>2019-08-04T07:20:38Z</time>
      </trkpt>
      <trkpt lat="46.150109264999628" lon="8.190767113119364">
        <ele>1698.96</ele>
        <time>2019-08-04T07:20:52Z</time>
      </trkpt>
      <trkpt lat="46.150082359090447" lon="8.190629398450255">
        <ele>1701.27</ele>
        <time>2019-08-04T07:21:10Z</time>
      </trkpt>
      <trkpt lat="46.15004925057292" lon="8.19047030992806">
        <ele>1702.6600000000001</ele>
        <time>2019-08-04T07:21:25Z</time>
      </trkpt>
      <trkpt lat="46.150018572807312" lon="8.190341480076313">
        <ele>1702.3299999999999</ele>
        <time>2019-08-04T07:21:40Z</time>
      </trkpt>
      <trkpt lat="46.149960905313492" lon="8.190203346312046">
        <ele>1702.72</ele>
        <time>2019-08-04T07:21:57Z</time>
      </trkpt>
      <trkpt lat="46.149915307760239" lon="8.190027745440602">
        <ele>1704.1099999999999</ele>
        <time>2019-08-04T07:22:16Z</time>
      </trkpt>
      <trkpt lat="46.149827968329191" lon="8.189937053248286">
        <ele>1705</ele>
        <time>2019-08-04T07:22:31Z</time>
      </trkpt>
      <trkpt lat="46.149780191481113" lon="8.189790872856975">
        <ele>1707.5799999999999</ele>
        <time>2019-08-04T07:22:50Z</time>
      </trkpt>
      <trkpt lat="46.149702910333872" lon="8.189709987491369">
        <ele>1709.1400000000001</ele>
        <time>2019-08-04T07:23:05Z</time>
      </trkpt>
      <trkpt lat="46.149677261710167" lon="8.189610494300723">
        <ele>1708.9000000000001</ele>
        <time>2019-08-04T07:23:17Z</time>
      </trkpt>
      <trkpt lat="46.149671645835042" lon="8.189592808485031">
        <ele>1710.28</ele>
        <time>2019-08-04T07:23:19Z</time>
      </trkpt>
      <trkpt lat="46.14961632527411" lon="8.189521981403232">
        <ele>1710.97</ele>
        <time>2019-08-04T07:23:34Z</time>
      </trkpt>
      <trkpt lat="46.149589503183961" lon="8.189379824325442">
        <ele>1713.8099999999999</ele>
        <time>2019-08-04T07:23:52Z</time>
      </trkpt>
      <trkpt lat="46.149621102958918" lon="8.189279241487384">
        <ele>1715.3299999999999</ele>
        <time>2019-08-04T07:24:04Z</time>
      </trkpt>
      <trkpt lat="46.149674914777279" lon="8.189201876521111">
        <ele>1717.3499999999999</ele>
        <time>2019-08-04T07:24:20Z</time>
      </trkpt>
      <trkpt lat="46.149695282801986" lon="8.189048152416945">
        <ele>1720.02</ele>
        <time>2019-08-04T07:24:36Z</time>
      </trkpt>
      <trkpt lat="46.149732666090131" lon="8.188953269273043">
        <ele>1721.8499999999999</ele>
        <time>2019-08-04T07:24:50Z</time>
      </trkpt>
      <trkpt lat="46.149765187874436" lon="8.188851429149509">
        <ele>1724.29</ele>
        <time>2019-08-04T07:25:05Z</time>
      </trkpt>
      <trkpt lat="46.149775497615337" lon="8.188740201294422">
        <ele>1725.6700000000001</ele>
        <time>2019-08-04T07:25:18Z</time>
      </trkpt>
      <trkpt lat="46.149794775992632" lon="8.188633667305112">
        <ele>1728.29</ele>
        <time>2019-08-04T07:25:33Z</time>
      </trkpt>
      <trkpt lat="46.149785807356238" lon="8.188547668978572">
        <ele>1730.1800000000001</ele>
        <time>2019-08-04T07:25:45Z</time>
      </trkpt>
      <trkpt lat="46.149810617789626" lon="8.188446331769228">
        <ele>1731.8900000000001</ele>
        <time>2019-08-04T07:25:58Z</time>
      </trkpt>
      <trkpt lat="46.14979662001133" lon="8.18832915276289">
        <ele>1733.6099999999999</ele>
        <time>2019-08-04T07:26:13Z</time>
      </trkpt>
      <trkpt lat="46.149774910882115" lon="8.188242064788938">
        <ele>1736.6500000000001</ele>
        <time>2019-08-04T07:26:29Z</time>
      </trkpt>
      <trkpt lat="46.149735264480114" lon="8.188232341781259">
        <ele>1739.5899999999999</ele>
        <time>2019-08-04T07:26:43Z</time>
      </trkpt>
      <trkpt lat="46.149685895070434" lon="8.188232677057385">
        <ele>1742.26</ele>
        <time>2019-08-04T07:26:59Z</time>
      </trkpt>
      <trkpt lat="46.149676507338881" lon="8.188157826662064">
        <ele>1745.02</ele>
        <time>2019-08-04T07:27:13Z</time>
      </trkpt>
      <trkpt lat="46.149664856493473" lon="8.188113737851381">
        <ele>1747.1099999999999</ele>
        <time>2019-08-04T07:27:26Z</time>
      </trkpt>
      <trkpt lat="46.149618588387966" lon="8.188123963773251">
        <ele>1749.6700000000001</ele>
        <time>2019-08-04T07:27:40Z</time>
      </trkpt>
      <trkpt lat="46.149550694972277" lon="8.188098985701799">
        <ele>1752.9400000000001</ele>
        <time>2019-08-04T07:27:58Z</time>
      </trkpt>
      <trkpt lat="46.149565614759922" lon="8.188024302944541">
        <ele>1756.04</ele>
        <time>2019-08-04T07:28:15Z</time>
      </trkpt>
      <trkpt lat="46.149605512619019" lon="8.187970407307148">
        <ele>1758.2</ele>
        <time>2019-08-04T07:28:27Z</time>
      </trkpt>
      <trkpt lat="46.149623449891806" lon="8.187909219413996">
        <ele>1760.5899999999999</ele>
        <time>2019-08-04T07:28:42Z</time>
      </trkpt>
      <trkpt lat="46.149672064930201" lon="8.187816180288792">
        <ele>1762.8900000000001</ele>
        <time>2019-08-04T07:28:58Z</time>
      </trkpt>
      <trkpt lat="46.149648260325193" lon="8.187743676826358">
        <ele>1765.1900000000001</ele>
        <time>2019-08-04T07:29:11Z</time>
      </trkpt>
      <trkpt lat="46.149597968906164" lon="8.187661115080118">
        <ele>1767.0899999999999</ele>
        <time>2019-08-04T07:29:24Z</time>
      </trkpt>
      <trkpt lat="46.149615487083793" lon="8.187628844752908">
        <ele>1767.6700000000001</ele>
        <time>2019-08-04T07:29:34Z</time>
      </trkpt>
      <trkpt lat="46.149598639458418" lon="8.187623061239719">
        <ele>1767.6800000000001</ele>
        <time>2019-08-04T07:29:45Z</time>
      </trkpt>
      <trkpt lat="46.149586401879787" lon="8.187536895275116">
        <ele>1768.22</ele>
        <time>2019-08-04T07:29:54Z</time>
      </trkpt>
      <trkpt lat="46.149555807933211" lon="8.187407478690147">
        <ele>1769.3399999999999</ele>
        <time>2019-08-04T07:30:05Z</time>
      </trkpt>
      <trkpt lat="46.149515993893147" lon="8.187259705737233">
        <ele>1769.8</ele>
        <time>2019-08-04T07:30:20Z</time>
      </trkpt>
      <trkpt lat="46.149511048570275" lon="8.187131294980645">
        <ele>1771</ele>
        <time>2019-08-04T07:30:34Z</time>
      </trkpt>
      <trkpt lat="46.149512892588973" lon="8.187038507312536">
        <ele>1771.6400000000001</ele>
        <time>2019-08-04T07:30:46Z</time>
      </trkpt>
      <trkpt lat="46.149537786841393" lon="8.187026018276811">
        <ele>1771.73</ele>
        <time>2019-08-04T07:30:55Z</time>
      </trkpt>
      <trkpt lat="46.149540301412344" lon="8.18700841628015">
        <ele>1771.95</ele>
        <time>2019-08-04T07:31:07Z</time>
      </trkpt>
      <trkpt lat="46.149551616981626" lon="8.18701864220202">
        <ele>1772.0899999999999</ele>
        <time>2019-08-04T07:31:21Z</time>
      </trkpt>
      <trkpt lat="46.149568464607" lon="8.187038339674473">
        <ele>1772.51</ele>
        <time>2019-08-04T07:31:39Z</time>
      </trkpt>
      <trkpt lat="46.149569218978286" lon="8.187057450413704">
        <ele>1771.8599999999999</ele>
        <time>2019-08-04T07:31:58Z</time>
      </trkpt>
      <trkpt lat="46.14957039244473" lon="8.187067676335573">
        <ele>1771.7</ele>
        <time>2019-08-04T07:32:21Z</time>
      </trkpt>
      <trkpt lat="46.149559915065765" lon="8.18704454228282">
        <ele>1771.5899999999999</ele>
        <time>2019-08-04T07:32:34Z</time>
      </trkpt>
      <trkpt lat="46.149517334997654" lon="8.186931470409036">
        <ele>1772.49</ele>
        <time>2019-08-04T07:32:46Z</time>
      </trkpt>
      <trkpt lat="46.149490848183632" lon="8.186806663870812">
        <ele>1774.45</ele>
        <time>2019-08-04T07:33:01Z</time>
      </trkpt>
      <trkpt lat="46.149450279772282" lon="8.186719072982669">
        <ele>1775.53</ele>
        <time>2019-08-04T07:33:15Z</time>
      </trkpt>
      <trkpt lat="46.149429995566607" lon="8.186638439074159">
        <ele>1777.1800000000001</ele>
        <time>2019-08-04T07:33:28Z</time>
      </trkpt>
      <trkpt lat="46.149416333064437" lon="8.186535090208054">
        <ele>1778.8599999999999</ele>
        <time>2019-08-04T07:33:40Z</time>
      </trkpt>
      <trkpt lat="46.149389762431383" lon="8.186459150165319">
        <ele>1780.9300000000001</ele>
        <time>2019-08-04T07:33:52Z</time>
      </trkpt>
      <trkpt lat="46.149372160434723" lon="8.186387652531266">
        <ele>1782.8699999999999</ele>
        <time>2019-08-04T07:34:03Z</time>
      </trkpt>
      <trkpt lat="46.149341147392988" lon="8.186359405517578">
        <ele>1783.9000000000001</ele>
        <time>2019-08-04T07:34:12Z</time>
      </trkpt>
      <trkpt lat="46.149324718862772" lon="8.186367535963655">
        <ele>1783.74</ele>
        <time>2019-08-04T07:34:14Z</time>
      </trkpt>
      <trkpt lat="46.149270068854094" lon="8.186349598690867">
        <ele>1784.5999999999999</ele>
        <time>2019-08-04T07:34:25Z</time>
      </trkpt>
      <trkpt lat="46.149185243993998" lon="8.18634188733995">
        <ele>1786.3299999999999</ele>
        <time>2019-08-04T07:34:40Z</time>
      </trkpt>
      <trkpt lat="46.149104190990329" lon="8.186306431889534">
        <ele>1787.8499999999999</ele>
        <time>2019-08-04T07:34:53Z</time>
      </trkpt>
      <trkpt lat="46.149044008925557" lon="8.186266534030438">
        <ele>1789.6800000000001</ele>
        <time>2019-08-04T07:35:09Z</time>
      </trkpt>
      <trkpt lat="46.148991035297513" lon="8.186255553737283">
        <ele>1792.01</ele>
        <time>2019-08-04T07:35:24Z</time>
      </trkpt>
      <trkpt lat="46.148945605382323" lon="8.186251781880856">
        <ele>1793.1800000000001</ele>
        <time>2019-08-04T07:35:37Z</time>
      </trkpt>
      <trkpt lat="46.14889170974493" lon="8.186235772445798">
        <ele>1794.79</ele>
        <time>2019-08-04T07:35:50Z</time>
      </trkpt>
      <trkpt lat="46.148828007280827" lon="8.186185900121927">
        <ele>1797.3900000000001</ele>
        <time>2019-08-04T07:36:04Z</time>
      </trkpt>
      <trkpt lat="46.148750726133585" lon="8.186147678643465">
        <ele>1798.9200000000001</ele>
        <time>2019-08-04T07:36:19Z</time>
      </trkpt>
      <trkpt lat="46.148725328966975" lon="8.186068134382367">
        <ele>1800.1900000000001</ele>
        <time>2019-08-04T07:36:31Z</time>
      </trkpt>
      <trkpt lat="46.148721724748611" lon="8.185999654233456">
        <ele>1801.6900000000001</ele>
        <time>2019-08-04T07:36:45Z</time>
      </trkpt>
      <trkpt lat="46.148712756112218" lon="8.185904351994395">
        <ele>1803.6099999999999</ele>
        <time>2019-08-04T07:36:59Z</time>
      </trkpt>
      <trkpt lat="46.148645030334592" lon="8.185834111645818">
        <ele>1805.21</ele>
        <time>2019-08-04T07:37:12Z</time>
      </trkpt>
      <trkpt lat="46.148596666753292" lon="8.185787424445152">
        <ele>1806.8800000000001</ele>
        <time>2019-08-04T07:37:24Z</time>
      </trkpt>
      <trkpt lat="46.148583171889186" lon="8.185732690617442">
        <ele>1808.51</ele>
        <time>2019-08-04T07:37:39Z</time>
      </trkpt>
      <trkpt lat="46.14857847802341" lon="8.185621881857514">
        <ele>1811.4100000000001</ele>
        <time>2019-08-04T07:37:55Z</time>
      </trkpt>
      <trkpt lat="46.148577388375998" lon="8.185587013140321">
        <ele>1812.3</ele>
        <time>2019-08-04T07:38:09Z</time>
      </trkpt>
      <trkpt lat="46.148587698116899" lon="8.18554250523448">
        <ele>1813.05</ele>
        <time>2019-08-04T07:38:23Z</time>
      </trkpt>
      <trkpt lat="46.148578394204378" lon="8.185472432523966">
        <ele>1815.98</ele>
        <time>2019-08-04T07:38:40Z</time>
      </trkpt>
      <trkpt lat="46.148612843826413" lon="8.185429014265537">
        <ele>1818.76</ele>
        <time>2019-08-04T07:38:57Z</time>
      </trkpt>
      <trkpt lat="46.148639917373657" lon="8.185354582965374">
        <ele>1820.6300000000001</ele>
        <time>2019-08-04T07:39:12Z</time>
      </trkpt>
      <trkpt lat="46.148666823282838" lon="8.185259616002441">
        <ele>1822.6099999999999</ele>
        <time>2019-08-04T07:39:29Z</time>
      </trkpt>
      <trkpt lat="46.14865031093359" lon="8.185200020670891">
        <ele>1824.5999999999999</ele>
        <time>2019-08-04T07:39:42Z</time>
      </trkpt>
      <trkpt lat="46.148634133860469" lon="8.185097593814135">
        <ele>1826.2</ele>
        <time>2019-08-04T07:39:56Z</time>
      </trkpt>
      <trkpt lat="46.148611502721906" lon="8.185011008754373">
        <ele>1828.05</ele>
        <time>2019-08-04T07:40:09Z</time>
      </trkpt>
      <trkpt lat="46.148607060313225" lon="8.184932637959719">
        <ele>1830.28</ele>
        <time>2019-08-04T07:40:23Z</time>
      </trkpt>
      <trkpt lat="46.148631284013391" lon="8.18485108204186">
        <ele>1832.49</ele>
        <time>2019-08-04T07:40:39Z</time>
      </trkpt>
      <trkpt lat="46.148632122203708" lon="8.184752343222499">
        <ele>1835.5899999999999</ele>
        <time>2019-08-04T07:40:56Z</time>
      </trkpt>
      <trkpt lat="46.148679060861468" lon="8.184732478111982">
        <ele>1837.1099999999999</ele>
        <time>2019-08-04T07:41:10Z</time>
      </trkpt>
      <trkpt lat="46.148714935407043" lon="8.184659471735358">
        <ele>1839.4400000000001</ele>
        <time>2019-08-04T07:41:23Z</time>
      </trkpt>
      <trkpt lat="46.148763215169311" lon="8.184652598574758">
        <ele>1840.78</ele>
        <time>2019-08-04T07:41:36Z</time>
      </trkpt>
      <trkpt lat="46.148813171312213" lon="8.184658382087946">
        <ele>1842.02</ele>
        <time>2019-08-04T07:41:46Z</time>
      </trkpt>
      <trkpt lat="46.148875532671809" lon="8.184589147567749">
        <ele>1844.5599999999999</ele>
        <time>2019-08-04T07:42:04Z</time>
      </trkpt>
      <trkpt lat="46.148920794948936" lon="8.184529216960073">
        <ele>1846.95</ele>
        <time>2019-08-04T07:42:18Z</time>
      </trkpt>
      <trkpt lat="46.148890033364296" lon="8.184441877529025">
        <ele>1849.52</ele>
        <time>2019-08-04T07:42:32Z</time>
      </trkpt>
      <trkpt lat="46.148861786350608" lon="8.184342803433538">
        <ele>1851.51</ele>
        <time>2019-08-04T07:42:50Z</time>
      </trkpt>
      <trkpt lat="46.148836640641093" lon="8.184284465387464">
        <ele>1853.47</ele>
        <time>2019-08-04T07:43:04Z</time>
      </trkpt>
      <trkpt lat="46.148835048079491" lon="8.18422713316977">
        <ele>1855.77</ele>
        <time>2019-08-04T07:43:18Z</time>
      </trkpt>
      <trkpt lat="46.148840663954616" lon="8.184191174805164">
        <ele>1858.8099999999999</ele>
        <time>2019-08-04T07:43:31Z</time>
      </trkpt>
      <trkpt lat="46.148878131061792" lon="8.184152198955417">
        <ele>1861.23</ele>
        <time>2019-08-04T07:43:48Z</time>
      </trkpt>
      <trkpt lat="46.148923644796014" lon="8.184143900871277">
        <ele>1863.53</ele>
        <time>2019-08-04T07:44:02Z</time>
      </trkpt>
      <trkpt lat="46.148969996720552" lon="8.184130322188139">
        <ele>1865.8199999999999</ele>
        <time>2019-08-04T07:44:16Z</time>
      </trkpt>
      <trkpt lat="46.149006290361285" lon="8.184107523411512">
        <ele>1867.47</ele>
        <time>2019-08-04T07:44:29Z</time>
      </trkpt>
      <trkpt lat="46.149046858772635" lon="8.184055220335722">
        <ele>1869.6099999999999</ele>
        <time>2019-08-04T07:44:44Z</time>
      </trkpt>
      <trkpt lat="46.149093462154269" lon="8.183994619175792">
        <ele>1871.6700000000001</ele>
        <time>2019-08-04T07:44:58Z</time>
      </trkpt>
      <trkpt lat="46.149065215140581" lon="8.18390317261219">
        <ele>1874.1500000000001</ele>
        <time>2019-08-04T07:45:10Z</time>
      </trkpt>
      <trkpt lat="46.149057587608695" lon="8.183801751583815">
        <ele>1876.95</ele>
        <time>2019-08-04T07:45:24Z</time>
      </trkpt>
      <trkpt lat="46.149025401100516" lon="8.183712819591165">
        <ele>1879.47</ele>
        <time>2019-08-04T07:45:37Z</time>
      </trkpt>
      <trkpt lat="46.149063035845757" lon="8.183661187067628">
        <ele>1882.6199999999999</ele>
        <time>2019-08-04T07:45:51Z</time>
      </trkpt>
      <trkpt lat="46.149083403870463" lon="8.18366764113307">
        <ele>1882.8900000000001</ele>
        <time>2019-08-04T07:46:05Z</time>
      </trkpt>
      <trkpt lat="46.149086924269795" lon="8.183664875105023">
        <ele>1883.22</ele>
        <time>2019-08-04T07:46:22Z</time>
      </trkpt>
      <trkpt lat="46.149088097736239" lon="8.183632772415876">
        <ele>1884.3199999999999</ele>
        <time>2019-08-04T07:46:44Z</time>
      </trkpt>
      <trkpt lat="46.149128414690495" lon="8.183600418269634">
        <ele>1886.4000000000001</ele>
        <time>2019-08-04T07:47:00Z</time>
      </trkpt>
      <trkpt lat="46.149157918989658" lon="8.183555910363793">
        <ele>1888.5</ele>
        <time>2019-08-04T07:47:16Z</time>
      </trkpt>
      <trkpt lat="46.149186668917537" lon="8.183505954220891">
        <ele>1890.6199999999999</ele>
        <time>2019-08-04T07:47:28Z</time>
      </trkpt>
      <trkpt lat="46.149211311712861" lon="8.183459518477321">
        <ele>1893.04</ele>
        <time>2019-08-04T07:47:41Z</time>
      </trkpt>
      <trkpt lat="46.149236373603344" lon="8.183414256200194">
        <ele>1895.49</ele>
        <time>2019-08-04T07:47:53Z</time>
      </trkpt>
      <trkpt lat="46.149239391088486" lon="8.183335131034255">
        <ele>1897.97</ele>
        <time>2019-08-04T07:48:06Z</time>
      </trkpt>
      <trkpt lat="46.14925330504775" lon="8.183280481025577">
        <ele>1900.23</ele>
        <time>2019-08-04T07:48:19Z</time>
      </trkpt>
      <trkpt lat="46.149218436330557" lon="8.183228429406881">
        <ele>1902.46</ele>
        <time>2019-08-04T07:48:32Z</time>
      </trkpt>
      <trkpt lat="46.149203600361943" lon="8.183157183229923">
        <ele>1904.3900000000001</ele>
        <time>2019-08-04T07:48:43Z</time>
      </trkpt>
      <trkpt lat="46.149184489622712" lon="8.183073364198208">
        <ele>1907.02</ele>
        <time>2019-08-04T07:48:57Z</time>
      </trkpt>
      <trkpt lat="46.149170491844416" lon="8.182978481054306">
        <ele>1909.49</ele>
        <time>2019-08-04T07:49:13Z</time>
      </trkpt>
      <trkpt lat="46.149141658097506" lon="8.182885190472007">
        <ele>1912.3</ele>
        <time>2019-08-04T07:49:28Z</time>
      </trkpt>
      <trkpt lat="46.149086505174637" lon="8.182841185480356">
        <ele>1914.8800000000001</ele>
        <time>2019-08-04T07:49:41Z</time>
      </trkpt>
      <trkpt lat="46.149013163521886" lon="8.18282668478787">
        <ele>1916.1300000000001</ele>
        <time>2019-08-04T07:49:53Z</time>
      </trkpt>
      <trkpt lat="46.148936385288835" lon="8.182780919596553">
        <ele>1917.6600000000001</ele>
        <time>2019-08-04T07:50:06Z</time>
      </trkpt>
      <trkpt lat="46.148884752765298" lon="8.182774549350143">
        <ele>1919.24</ele>
        <time>2019-08-04T07:50:19Z</time>
      </trkpt>
      <trkpt lat="46.148837562650442" lon="8.182752002030611">
        <ele>1921.3299999999999</ele>
        <time>2019-08-04T07:50:32Z</time>
      </trkpt>
      <trkpt lat="46.14879741333425" lon="8.182723671197891">
        <ele>1923.6199999999999</ele>
        <time>2019-08-04T07:50:46Z</time>
      </trkpt>
      <trkpt lat="46.148760700598359" lon="8.182715540751815">
        <ele>1926.3900000000001</ele>
        <time>2019-08-04T07:51:00Z</time>
      </trkpt>
      <trkpt lat="46.148714600130916" lon="8.182712439447641">
        <ele>1928.3699999999999</ele>
        <time>2019-08-04T07:51:15Z</time>
      </trkpt>
      <trkpt lat="46.148679731413722" lon="8.182690478861332">
        <ele>1930.25</ele>
        <time>2019-08-04T07:51:27Z</time>
      </trkpt>
      <trkpt lat="46.148618627339602" lon="8.182681007310748">
        <ele>1933.25</ele>
        <time>2019-08-04T07:51:42Z</time>
      </trkpt>
      <trkpt lat="46.148589290678501" lon="8.182648401707411">
        <ele>1935.02</ele>
        <time>2019-08-04T07:51:53Z</time>
      </trkpt>
      <trkpt lat="46.14853497594595" lon="8.182644629850984">
        <ele>1937.03</ele>
        <time>2019-08-04T07:52:05Z</time>
      </trkpt>
      <trkpt lat="46.148487282916903" lon="8.182629626244307">
        <ele>1938.0999999999999</ele>
        <time>2019-08-04T07:52:19Z</time>
      </trkpt>
      <trkpt lat="46.148458952084184" lon="8.182642953470349">
        <ele>1938.8499999999999</ele>
        <time>2019-08-04T07:52:31Z</time>
      </trkpt>
      <trkpt lat="46.148440763354301" lon="8.182621831074357">
        <ele>1939.49</ele>
        <time>2019-08-04T07:52:42Z</time>
      </trkpt>
      <trkpt lat="46.148442858830094" lon="8.182626273483038">
        <ele>1939.77</ele>
        <time>2019-08-04T07:53:06Z</time>
      </trkpt>
      <trkpt lat="46.148425424471498" lon="8.182628620415926">
        <ele>1939.75</ele>
        <time>2019-08-04T07:53:16Z</time>
      </trkpt>
      <trkpt lat="46.148408325389028" lon="8.182580005377531">
        <ele>1939.47</ele>
        <time>2019-08-04T07:53:20Z</time>
      </trkpt>
      <trkpt lat="46.148346718400717" lon="8.182435836642981">
        <ele>1940.8299999999999</ele>
        <time>2019-08-04T07:53:34Z</time>
      </trkpt>
      <trkpt lat="46.148301288485527" lon="8.182408176362515">
        <ele>1940.73</ele>
        <time>2019-08-04T07:53:42Z</time>
      </trkpt>
      <trkpt lat="46.148238927125931" lon="8.182375906035304">
        <ele>1940.04</ele>
        <time>2019-08-04T07:53:53Z</time>
      </trkpt>
      <trkpt lat="46.148220906034112" lon="8.182371715083718">
        <ele>1940.1300000000001</ele>
        <time>2019-08-04T07:54:05Z</time>
      </trkpt>
      <trkpt lat="46.1482198163867" lon="8.182373140007258">
        <ele>1939.52</ele>
        <time>2019-08-04T07:54:21Z</time>
      </trkpt>
      <trkpt lat="46.148230377584696" lon="8.182370876893401">
        <ele>1941.1400000000001</ele>
        <time>2019-08-04T07:54:34Z</time>
      </trkpt>
      <trkpt lat="46.148232389241457" lon="8.182379426434636">
        <ele>1940.97</ele>
        <time>2019-08-04T07:54:51Z</time>
      </trkpt>
      <trkpt lat="46.14823691546917" lon="8.182371463626623">
        <ele>1941.0599999999999</ele>
        <time>2019-08-04T07:55:07Z</time>
      </trkpt>
      <trkpt lat="46.148261977359653" lon="8.182382695376873">
        <ele>1941.21</ele>
        <time>2019-08-04T07:55:26Z</time>
      </trkpt>
      <trkpt lat="46.148267593234777" lon="8.182376241311431">
        <ele>1941.0899999999999</ele>
        <time>2019-08-04T07:55:46Z</time>
      </trkpt>
      <trkpt lat="46.148248901590705" lon="8.182389819994569">
        <ele>1941.28</ele>
        <time>2019-08-04T07:56:09Z</time>
      </trkpt>
      <trkpt lat="46.148242196068168" lon="8.182402979582548">
        <ele>1940.6500000000001</ele>
        <time>2019-08-04T07:56:25Z</time>
      </trkpt>
      <trkpt lat="46.148151084780693" lon="8.18234346807003">
        <ele>1941.1099999999999</ele>
        <time>2019-08-04T07:56:38Z</time>
      </trkpt>
      <trkpt lat="46.14811185747385" lon="8.182268785312772">
        <ele>1943.5899999999999</ele>
        <time>2019-08-04T07:56:52Z</time>
      </trkpt>
      <trkpt lat="46.148047568276525" lon="8.182217907160521">
        <ele>1945.04</ele>
        <time>2019-08-04T07:57:05Z</time>
      </trkpt>
      <trkpt lat="46.148039689287543" lon="8.182220924645662">
        <ele>1945.0599999999999</ele>
        <time>2019-08-04T07:57:10Z</time>
      </trkpt>
      <trkpt lat="46.148007921874523" lon="8.18208153359592">
        <ele>1946.8099999999999</ele>
        <time>2019-08-04T07:57:25Z</time>
      </trkpt>
      <trkpt lat="46.147989481687546" lon="8.18197064101696">
        <ele>1949.1800000000001</ele>
        <time>2019-08-04T07:57:40Z</time>
      </trkpt>
      <trkpt lat="46.147977914661169" lon="8.181911716237664">
        <ele>1950.46</ele>
        <time>2019-08-04T07:57:53Z</time>
      </trkpt>
      <trkpt lat="46.147966096177697" lon="8.18180744536221">
        <ele>1952.45</ele>
        <time>2019-08-04T07:58:07Z</time>
      </trkpt>
      <trkpt lat="46.14793692715466" lon="8.181663528084755">
        <ele>1953.7</ele>
        <time>2019-08-04T07:58:21Z</time>
      </trkpt>
      <trkpt lat="46.147918235510588" lon="8.181525561958551">
        <ele>1955.95</ele>
        <time>2019-08-04T07:58:38Z</time>
      </trkpt>
      <trkpt lat="46.147914379835129" lon="8.181407880038023">
        <ele>1958.1400000000001</ele>
        <time>2019-08-04T07:58:53Z</time>
      </trkpt>
      <trkpt lat="46.147915218025446" lon="8.181295227259398">
        <ele>1960.22</ele>
        <time>2019-08-04T07:59:07Z</time>
      </trkpt>
      <trkpt lat="46.147909350693226" lon="8.181185843423009">
        <ele>1961.5</ele>
        <time>2019-08-04T07:59:20Z</time>
      </trkpt>
      <trkpt lat="46.147876158356667" lon="8.181037483736873">
        <ele>1962.98</ele>
        <time>2019-08-04T07:59:35Z</time>
      </trkpt>
      <trkpt lat="46.147857801988721" lon="8.180951233953238">
        <ele>1964.76</ele>
        <time>2019-08-04T07:59:47Z</time>
      </trkpt>
      <trkpt lat="46.147845229133964" lon="8.180858278647065">
        <ele>1967.01</ele>
        <time>2019-08-04T08:00:00Z</time>
      </trkpt>
      <trkpt lat="46.147829638794065" lon="8.180766832083464">
        <ele>1968.98</ele>
        <time>2019-08-04T08:00:14Z</time>
      </trkpt>
      <trkpt lat="46.147806420922279" lon="8.180695753544569">
        <ele>1970.79</ele>
        <time>2019-08-04T08:00:27Z</time>
      </trkpt>
      <trkpt lat="46.147784627974033" lon="8.180642612278462">
        <ele>1972.54</ele>
        <time>2019-08-04T08:00:40Z</time>
      </trkpt>
      <trkpt lat="46.147758392617106" lon="8.180596847087145">
        <ele>1974.72</ele>
        <time>2019-08-04T08:00:58Z</time>
      </trkpt>
      <trkpt lat="46.147727882489562" lon="8.180528366938233">
        <ele>1976.78</ele>
        <time>2019-08-04T08:01:13Z</time>
      </trkpt>
      <trkpt lat="46.147702736780047" lon="8.180489558726549">
        <ele>1977.6300000000001</ele>
        <time>2019-08-04T08:01:27Z</time>
      </trkpt>
      <trkpt lat="46.147702652961016" lon="8.180445218458772">
        <ele>1979.5999999999999</ele>
        <time>2019-08-04T08:01:43Z</time>
      </trkpt>
      <trkpt lat="46.147714303806424" lon="8.18036399781704">
        <ele>1982.5</ele>
        <time>2019-08-04T08:01:56Z</time>
      </trkpt>
      <trkpt lat="46.147709945216775" lon="8.180277412757278">
        <ele>1984.6600000000001</ele>
        <time>2019-08-04T08:02:10Z</time>
      </trkpt>
      <trkpt lat="46.147700641304255" lon="8.180165598168969">
        <ele>1986.77</ele>
        <time>2019-08-04T08:02:25Z</time>
      </trkpt>
      <trkpt lat="46.147670801728964" lon="8.180058812722564">
        <ele>1989.1300000000001</ele>
        <time>2019-08-04T08:02:42Z</time>
      </trkpt>
      <trkpt lat="46.147650349885225" lon="8.180029056966305">
        <ele>1989.97</ele>
        <time>2019-08-04T08:02:52Z</time>
      </trkpt>
      <trkpt lat="46.147616654634476" lon="8.179933838546276">
        <ele>1991.77</ele>
        <time>2019-08-04T08:03:05Z</time>
      </trkpt>
      <trkpt lat="46.147596789523959" lon="8.179845912382007">
        <ele>1994.8399999999999</ele>
        <time>2019-08-04T08:03:19Z</time>
      </trkpt>
      <trkpt lat="46.147607015445828" lon="8.179824119433761">
        <ele>1995.97</ele>
        <time>2019-08-04T08:03:35Z</time>
      </trkpt>
      <trkpt lat="46.147611122578382" lon="8.179711299017072">
        <ele>1998.3499999999999</ele>
        <time>2019-08-04T08:03:49Z</time>
      </trkpt>
      <trkpt lat="46.147594777867198" lon="8.179627396166325">
        <ele>2000.2</ele>
        <time>2019-08-04T08:04:00Z</time>
      </trkpt>
      <trkpt lat="46.147584049031138" lon="8.179548773914576">
        <ele>2003.26</ele>
        <time>2019-08-04T08:04:13Z</time>
      </trkpt>
      <trkpt lat="46.14758170209825" lon="8.179493369534612">
        <ele>2004.1900000000001</ele>
        <time>2019-08-04T08:04:28Z</time>
      </trkpt>
      <trkpt lat="46.147572733461857" lon="8.179406449198723">
        <ele>2005.3499999999999</ele>
        <time>2019-08-04T08:04:41Z</time>
      </trkpt>
      <trkpt lat="46.147559154778719" lon="8.179319109767675">
        <ele>2007.46</ele>
        <time>2019-08-04T08:04:52Z</time>
      </trkpt>
      <trkpt lat="46.147564183920622" lon="8.179265800863504">
        <ele>2008.4400000000001</ele>
        <time>2019-08-04T08:05:05Z</time>
      </trkpt>
      <trkpt lat="46.147541804239154" lon="8.179229171946645">
        <ele>2009.4400000000001</ele>
        <time>2019-08-04T08:05:16Z</time>
      </trkpt>
      <trkpt lat="46.14750693552196" lon="8.179154405370355">
        <ele>2011.01</ele>
        <time>2019-08-04T08:05:28Z</time>
      </trkpt>
      <trkpt lat="46.147473491728306" lon="8.179059438407421">
        <ele>2014.01</ele>
        <time>2019-08-04T08:05:42Z</time>
      </trkpt>
      <trkpt lat="46.14743996411562" lon="8.179004201665521">
        <ele>2015.77</ele>
        <time>2019-08-04T08:05:55Z</time>
      </trkpt>
      <trkpt lat="46.147394366562366" lon="8.178953323513269">
        <ele>2017.6300000000001</ele>
        <time>2019-08-04T08:06:06Z</time>
      </trkpt>
      <trkpt lat="46.147360503673553" lon="8.178912168368697">
        <ele>2018.4200000000001</ele>
        <time>2019-08-04T08:06:19Z</time>
      </trkpt>
      <trkpt lat="46.147314487025142" lon="8.178836144506931">
        <ele>2020.51</ele>
        <time>2019-08-04T08:06:32Z</time>
      </trkpt>
      <trkpt lat="46.147274924442172" lon="8.178751152008772">
        <ele>2022.47</ele>
        <time>2019-08-04T08:06:46Z</time>
      </trkpt>
      <trkpt lat="46.147227818146348" lon="8.178651910275221">
        <ele>2025.0999999999999</ele>
        <time>2019-08-04T08:07:00Z</time>
      </trkpt>
      <trkpt lat="46.147159421816468" lon="8.17852727137506">
        <ele>2027.8199999999999</ele>
        <time>2019-08-04T08:07:15Z</time>
      </trkpt>
      <trkpt lat="46.14708423614502" lon="8.178388467058539">
        <ele>2029.54</ele>
        <time>2019-08-04T08:07:31Z</time>
      </trkpt>
      <trkpt lat="46.147078620269895" lon="8.1783611420542">
        <ele>2029.8399999999999</ele>
        <time>2019-08-04T08:07:36Z</time>
      </trkpt>
      <trkpt lat="46.147098485380411" lon="8.178302552551031">
        <ele>2030.3399999999999</ele>
        <time>2019-08-04T08:07:48Z</time>
      </trkpt>
      <trkpt lat="46.147121703252196" lon="8.17820381373167">
        <ele>2032.1500000000001</ele>
        <time>2019-08-04T08:08:00Z</time>
      </trkpt>
      <trkpt lat="46.147116674110293" lon="8.178137261420488">
        <ele>2033.4300000000001</ele>
        <time>2019-08-04T08:08:13Z</time>
      </trkpt>
      <trkpt lat="46.147072250023484" lon="8.178081102669239">
        <ele>2036.47</ele>
        <time>2019-08-04T08:08:30Z</time>
      </trkpt>
      <trkpt lat="46.147053139284253" lon="8.178052352741361">
        <ele>2038.6800000000001</ele>
        <time>2019-08-04T08:08:44Z</time>
      </trkpt>
      <trkpt lat="46.147038135677576" lon="8.178049251437187">
        <ele>2039.3699999999999</ele>
        <time>2019-08-04T08:08:58Z</time>
      </trkpt>
      <trkpt lat="46.147023718804121" lon="8.178006336092949">
        <ele>2041.5599999999999</ele>
        <time>2019-08-04T08:09:10Z</time>
      </trkpt>
      <trkpt lat="46.147006954997778" lon="8.177972221747041">
        <ele>2043.05</ele>
        <time>2019-08-04T08:09:25Z</time>
      </trkpt>
      <trkpt lat="46.146997315809131" lon="8.177936095744371">
        <ele>2044.46</ele>
        <time>2019-08-04T08:09:41Z</time>
      </trkpt>
      <trkpt lat="46.146983485668898" lon="8.177928132936359">
        <ele>2046.2</ele>
        <time>2019-08-04T08:09:53Z</time>
      </trkpt>
      <trkpt lat="46.146971918642521" lon="8.177907261997461">
        <ele>2047.9400000000001</ele>
        <time>2019-08-04T08:10:05Z</time>
      </trkpt>
      <trkpt lat="46.14695624448359" lon="8.177900891751051">
        <ele>2049.0500000000002</ele>
        <time>2019-08-04T08:10:18Z</time>
      </trkpt>
      <trkpt lat="46.146932942792773" lon="8.177867364138365">
        <ele>2051.5700000000002</ele>
        <time>2019-08-04T08:10:33Z</time>
      </trkpt>
      <trkpt lat="46.146926656365395" lon="8.177869459614158">
        <ele>2051.6399999999999</ele>
        <time>2019-08-04T08:10:50Z</time>
      </trkpt>
      <trkpt lat="46.146906372159719" lon="8.177819000557065">
        <ele>2053.4899999999998</ele>
        <time>2019-08-04T08:11:05Z</time>
      </trkpt>
      <trkpt lat="46.146880304440856" lon="8.177811456844211">
        <ele>2054.8800000000001</ele>
        <time>2019-08-04T08:11:16Z</time>
      </trkpt>
      <trkpt lat="46.146848620846868" lon="8.177756136283279">
        <ele>2056.8899999999999</ele>
        <time>2019-08-04T08:11:28Z</time>
      </trkpt>
      <trkpt lat="46.146821295842528" lon="8.177722105756402">
        <ele>2058.6999999999998</ele>
        <time>2019-08-04T08:11:42Z</time>
      </trkpt>
      <trkpt lat="46.146804615855217" lon="8.177716992795467">
        <ele>2059.9699999999998</ele>
        <time>2019-08-04T08:11:48Z</time>
      </trkpt>
      <trkpt lat="46.146783158183098" lon="8.177676256746054">
        <ele>2061.8600000000001</ele>
        <time>2019-08-04T08:12:02Z</time>
      </trkpt>
      <trkpt lat="46.146759269759059" lon="8.177681537345052">
        <ele>2063.5500000000002</ele>
        <time>2019-08-04T08:12:13Z</time>
      </trkpt>
      <trkpt lat="46.146723562851548" lon="8.177625210955739">
        <ele>2065.8400000000001</ele>
        <time>2019-08-04T08:12:27Z</time>
      </trkpt>
      <trkpt lat="46.146697998046875" lon="8.177579278126359">
        <ele>2067.9000000000001</ele>
        <time>2019-08-04T08:12:39Z</time>
      </trkpt>
      <trkpt lat="46.146678300574422" lon="8.17756318487227">
        <ele>2069.1900000000001</ele>
        <time>2019-08-04T08:12:52Z</time>
      </trkpt>
      <trkpt lat="46.146638570353389" lon="8.177520101889968">
        <ele>2071.3400000000001</ele>
        <time>2019-08-04T08:13:05Z</time>
      </trkpt>
      <trkpt lat="46.146604875102639" lon="8.177480287849903">
        <ele>2073.1100000000001</ele>
        <time>2019-08-04T08:13:17Z</time>
      </trkpt>
      <trkpt lat="46.14653798751533" lon="8.177464110776782">
        <ele>2075.5500000000002</ele>
        <time>2019-08-04T08:13:31Z</time>
      </trkpt>
      <trkpt lat="46.146516278386116" lon="8.17747475579381">
        <ele>2076.52</ele>
        <time>2019-08-04T08:13:45Z</time>
      </trkpt>
      <trkpt lat="46.146475458517671" lon="8.177499063313007">
        <ele>2078.1900000000001</ele>
        <time>2019-08-04T08:13:57Z</time>
      </trkpt>
      <trkpt lat="46.14642265252769" lon="8.177459081634879">
        <ele>2080.1199999999999</ele>
        <time>2019-08-04T08:14:09Z</time>
      </trkpt>
      <trkpt lat="46.146368170157075" lon="8.177417172119021">
        <ele>2080.5500000000002</ele>
        <time>2019-08-04T08:14:20Z</time>
      </trkpt>
      <trkpt lat="46.14633908495307" lon="8.17739705555141">
        <ele>2082.23</ele>
        <time>2019-08-04T08:14:34Z</time>
      </trkpt>
      <trkpt lat="46.14628778770566" lon="8.177326899021864">
        <ele>2083.0799999999999</ele>
        <time>2019-08-04T08:14:48Z</time>
      </trkpt>
      <trkpt lat="46.14621008746326" lon="8.17723729647696">
        <ele>2084.4299999999998</ele>
        <time>2019-08-04T08:15:02Z</time>
      </trkpt>
      <trkpt lat="46.146173542365432" lon="8.17719672806561">
        <ele>2085.9200000000001</ele>
        <time>2019-08-04T08:15:14Z</time>
      </trkpt>
      <trkpt lat="46.146162394434214" lon="8.17718013189733">
        <ele>2087.1900000000001</ele>
        <time>2019-08-04T08:15:27Z</time>
      </trkpt>
      <trkpt lat="46.146149737760425" lon="8.177145263180137">
        <ele>2088.8099999999999</ele>
        <time>2019-08-04T08:15:46Z</time>
      </trkpt>
      <trkpt lat="46.146139176562428" lon="8.177095390856266">
        <ele>2090.2199999999998</ele>
        <time>2019-08-04T08:15:58Z</time>
      </trkpt>
      <trkpt lat="46.146104894578457" lon="8.177020540460944">
        <ele>2092.4899999999998</ele>
        <time>2019-08-04T08:16:14Z</time>
      </trkpt>
      <trkpt lat="46.146076563745737" lon="8.176972763612866">
        <ele>2094.1399999999999</ele>
        <time>2019-08-04T08:16:26Z</time>
      </trkpt>
      <trkpt lat="46.14605862647295" lon="8.176884753629565">
        <ele>2096.1300000000001</ele>
        <time>2019-08-04T08:16:41Z</time>
      </trkpt>
      <trkpt lat="46.146062482148409" lon="8.176791630685329">
        <ele>2098.25</ele>
        <time>2019-08-04T08:16:57Z</time>
      </trkpt>
      <trkpt lat="46.146063152700663" lon="8.176722060889006">
        <ele>2100.4699999999998</ele>
        <time>2019-08-04T08:17:12Z</time>
      </trkpt>
      <trkpt lat="46.146071869879961" lon="8.176636733114719">
        <ele>2102.1300000000001</ele>
        <time>2019-08-04T08:17:27Z</time>
      </trkpt>
      <trkpt lat="46.146036833524704" lon="8.176541849970818">
        <ele>2103.79</ele>
        <time>2019-08-04T08:17:41Z</time>
      </trkpt>
      <trkpt lat="46.145996348932385" lon="8.176453923806548">
        <ele>2106.4400000000001</ele>
        <time>2019-08-04T08:17:57Z</time>
      </trkpt>
      <trkpt lat="46.145988134667277" lon="8.176412768661976">
        <ele>2107.7199999999998</ele>
        <time>2019-08-04T08:18:08Z</time>
      </trkpt>
      <trkpt lat="46.145966844633222" lon="8.176353257149458">
        <ele>2109.6999999999998</ele>
        <time>2019-08-04T08:18:20Z</time>
      </trkpt>
      <trkpt lat="46.145939771085978" lon="8.176275137811899">
        <ele>2111.6500000000001</ele>
        <time>2019-08-04T08:18:34Z</time>
      </trkpt>
      <trkpt lat="46.145947566255927" lon="8.176275389268994">
        <ele>2112.0300000000002</ele>
        <time>2019-08-04T08:18:46Z</time>
      </trkpt>
      <trkpt lat="46.145951254293323" lon="8.176271617412567">
        <ele>2112.3299999999999</ele>
        <time>2019-08-04T08:19:03Z</time>
      </trkpt>
      <trkpt lat="46.145931556820869" lon="8.176246220245957">
        <ele>2112.8899999999999</ele>
        <time>2019-08-04T08:19:26Z</time>
      </trkpt>
      <trkpt lat="46.145874308422208" lon="8.176263989880681">
        <ele>2114.3600000000001</ele>
        <time>2019-08-04T08:19:39Z</time>
      </trkpt>
      <trkpt lat="46.145821586251259" lon="8.176273964345455">
        <ele>2115.6300000000001</ele>
        <time>2019-08-04T08:19:52Z</time>
      </trkpt>
      <trkpt lat="46.145785544067621" lon="8.176227528601885">
        <ele>2116.9499999999998</ele>
        <time>2019-08-04T08:20:09Z</time>
      </trkpt>
      <trkpt lat="46.145808678120375" lon="8.176183523610234">
        <ele>2118.8200000000002</ele>
        <time>2019-08-04T08:20:21Z</time>
      </trkpt>
      <trkpt lat="46.145805073902011" lon="8.176156617701054">
        <ele>2118.96</ele>
        <time>2019-08-04T08:20:32Z</time>
      </trkpt>
      <trkpt lat="46.145815216004848" lon="8.176157372072339">
        <ele>2118.3400000000001</ele>
        <time>2019-08-04T08:20:46Z</time>
      </trkpt>
      <trkpt lat="46.1458142939955" lon="8.176155276596546">
        <ele>2118.46</ele>
        <time>2019-08-04T08:21:07Z</time>
      </trkpt>
      <trkpt lat="46.145811276510358" lon="8.176158042624593">
        <ele>2118.5500000000002</ele>
        <time>2019-08-04T08:22:02Z</time>
      </trkpt>
      <trkpt lat="46.145814126357436" lon="8.17615401931107">
        <ele>2118.6500000000001</ele>
        <time>2019-08-04T08:22:49Z</time>
      </trkpt>
      <trkpt lat="46.145812952890992" lon="8.17616181448102">
        <ele>2118.48</ele>
        <time>2019-08-04T08:23:32Z</time>
      </trkpt>
      <trkpt lat="46.145817060023546" lon="8.176143122836947">
        <ele>2118.6500000000001</ele>
        <time>2019-08-04T08:24:39Z</time>
      </trkpt>
      <trkpt lat="46.145820999518037" lon="8.176135746762157">
        <ele>2118.79</ele>
        <time>2019-08-04T08:25:26Z</time>
      </trkpt>
      <trkpt lat="46.145820999518037" lon="8.176143290475011">
        <ele>2118.7800000000002</ele>
        <time>2019-08-04T08:26:03Z</time>
      </trkpt>
      <trkpt lat="46.145817646756768" lon="8.176138428971171">
        <ele>2119.21</ele>
        <time>2019-08-04T08:26:41Z</time>
      </trkpt>
      <trkpt lat="46.145824184641242" lon="8.176137255504727">
        <ele>2119.1700000000001</ele>
        <time>2019-08-04T08:27:04Z</time>
      </trkpt>
      <trkpt lat="46.145822172984481" lon="8.176153432577848">
        <ele>2120.4099999999999</ele>
        <time>2019-08-04T08:27:25Z</time>
      </trkpt>
      <trkpt lat="46.145827285945415" lon="8.1761593837291">
        <ele>2119.7199999999998</ele>
        <time>2019-08-04T08:27:53Z</time>
      </trkpt>
      <trkpt lat="46.145822340622544" lon="8.176151253283024">
        <ele>2120.0100000000002</ele>
        <time>2019-08-04T08:28:16Z</time>
      </trkpt>
      <trkpt lat="46.145814629271626" lon="8.176148906350136">
        <ele>2120.6300000000001</ele>
        <time>2019-08-04T08:28:31Z</time>
      </trkpt>
      <trkpt lat="46.145818401128054" lon="8.176143793389201">
        <ele>2120.2399999999998</ele>
        <time>2019-08-04T08:28:53Z</time>
      </trkpt>
      <trkpt lat="46.145821837708354" lon="8.176130717620254">
        <ele>2120.48</ele>
        <time>2019-08-04T08:29:10Z</time>
      </trkpt>
      <trkpt lat="46.145807756111026" lon="8.176139015704393">
        <ele>2120.98</ele>
        <time>2019-08-04T08:29:31Z</time>
      </trkpt>
      <trkpt lat="46.145805576816201" lon="8.176143709570169">
        <ele>2120.9099999999999</ele>
        <time>2019-08-04T08:29:50Z</time>
      </trkpt>
      <trkpt lat="46.145799960941076" lon="8.176097776740789">
        <ele>2121.1900000000001</ele>
        <time>2019-08-04T08:30:13Z</time>
      </trkpt>
      <trkpt lat="46.145786214619875" lon="8.176098950207233">
        <ele>2121.4299999999998</ele>
        <time>2019-08-04T08:30:35Z</time>
      </trkpt>
      <trkpt lat="46.145787807181478" lon="8.176097776740789">
        <ele>2121.1500000000001</ele>
        <time>2019-08-04T08:30:57Z</time>
      </trkpt>
      <trkpt lat="46.145792417228222" lon="8.176110768690705">
        <ele>2120.96</ele>
        <time>2019-08-04T08:31:15Z</time>
      </trkpt>
      <trkpt lat="46.145809851586819" lon="8.176108505576849">
        <ele>2121.21</ele>
        <time>2019-08-04T08:31:32Z</time>
      </trkpt>
      <trkpt lat="46.14581823348999" lon="8.176112528890371">
        <ele>2121.04</ele>
        <time>2019-08-04T08:31:56Z</time>
      </trkpt>
      <trkpt lat="46.145819993689656" lon="8.176115462556481">
        <ele>2120.98</ele>
        <time>2019-08-04T08:32:14Z</time>
      </trkpt>
      <trkpt lat="46.14582410082221" lon="8.176103727892041">
        <ele>2121.23</ele>
        <time>2019-08-04T08:32:35Z</time>
      </trkpt>
      <trkpt lat="46.145821083337069" lon="8.17608755081892">
        <ele>2121.9000000000001</ele>
        <time>2019-08-04T08:32:57Z</time>
      </trkpt>
      <trkpt lat="46.145807504653931" lon="8.176098698750138">
        <ele>2122.1500000000001</ele>
        <time>2019-08-04T08:33:23Z</time>
      </trkpt>
      <trkpt lat="46.14580063149333" lon="8.176075480878353">
        <ele>2121.73</ele>
        <time>2019-08-04T08:33:49Z</time>
      </trkpt>
      <trkpt lat="46.145799290388823" lon="8.176049077883363">
        <ele>2121.5799999999999</ele>
        <time>2019-08-04T08:34:06Z</time>
      </trkpt>
      <trkpt lat="46.14579769782722" lon="8.175971377640963">
        <ele>2121.21</ele>
        <time>2019-08-04T08:34:16Z</time>
      </trkpt>
      <trkpt lat="46.145801804959774" lon="8.17589501850307">
        <ele>2122.1199999999999</ele>
        <time>2019-08-04T08:34:28Z</time>
      </trkpt>
      <trkpt lat="46.145798787474632" lon="8.175806673243642">
        <ele>2123.1100000000001</ele>
        <time>2019-08-04T08:34:42Z</time>
      </trkpt>
      <trkpt lat="46.145826615393162" lon="8.175753364339471">
        <ele>2124.0599999999999</ele>
        <time>2019-08-04T08:34:54Z</time>
      </trkpt>
      <trkpt lat="46.145829716697335" lon="8.175635766237974">
        <ele>2125.0700000000002</ele>
        <time>2019-08-04T08:35:09Z</time>
      </trkpt>
      <trkpt lat="46.145846480503678" lon="8.175559239462018">
        <ele>2126.6500000000001</ele>
        <time>2019-08-04T08:35:23Z</time>
      </trkpt>
      <trkpt lat="46.14586366340518" lon="8.175448514521122">
        <ele>2128.1999999999998</ele>
        <time>2019-08-04T08:35:37Z</time>
      </trkpt>
      <trkpt lat="46.145881684496999" lon="8.175372155383229">
        <ele>2129.6599999999999</ele>
        <time>2019-08-04T08:35:50Z</time>
      </trkpt>
      <trkpt lat="46.145897610113025" lon="8.175290683284402">
        <ele>2131.4099999999999</ele>
        <time>2019-08-04T08:36:03Z</time>
      </trkpt>
      <trkpt lat="46.145910350605845" lon="8.175191273912787">
        <ele>2133.3699999999999</ele>
        <time>2019-08-04T08:36:17Z</time>
      </trkpt>
      <trkpt lat="46.145926862955093" lon="8.175075268372893">
        <ele>2135.02</ele>
        <time>2019-08-04T08:36:33Z</time>
      </trkpt>
      <trkpt lat="46.145930048078299" lon="8.174964962527156">
        <ele>2135.9200000000001</ele>
        <time>2019-08-04T08:36:45Z</time>
      </trkpt>
      <trkpt lat="46.145946979522705" lon="8.174849711358547">
        <ele>2136.6500000000001</ele>
        <time>2019-08-04T08:36:59Z</time>
      </trkpt>
      <trkpt lat="46.145963072776794" lon="8.174740243703127">
        <ele>2137.9499999999998</ele>
        <time>2019-08-04T08:37:12Z</time>
      </trkpt>
      <trkpt lat="46.145992493256927" lon="8.174625327810645">
        <ele>2138.8899999999999</ele>
        <time>2019-08-04T08:37:27Z</time>
      </trkpt>
      <trkpt lat="46.146009424701333" lon="8.17453128285706">
        <ele>2140.2199999999998</ele>
        <time>2019-08-04T08:37:40Z</time>
      </trkpt>
      <trkpt lat="46.145988386124372" lon="8.174430280923843">
        <ele>2139.5599999999999</ele>
        <time>2019-08-04T08:37:55Z</time>
      </trkpt>
      <trkpt lat="46.1459696944803" lon="8.174384012818337">
        <ele>2138.9000000000001</ele>
        <time>2019-08-04T08:38:07Z</time>
      </trkpt>
      <trkpt lat="46.145954523235559" lon="8.174310754984617">
        <ele>2138.7199999999998</ele>
        <time>2019-08-04T08:38:19Z</time>
      </trkpt>
      <trkpt lat="46.145948236808181" lon="8.174174632877111">
        <ele>2139.8099999999999</ele>
        <time>2019-08-04T08:38:35Z</time>
      </trkpt>
      <trkpt lat="46.14595259539783" lon="8.174080085009337">
        <ele>2141.8299999999999</ele>
        <time>2019-08-04T08:38:48Z</time>
      </trkpt>
      <trkpt lat="46.145938849076629" lon="8.173957541584969">
        <ele>2143.54</ele>
        <time>2019-08-04T08:39:00Z</time>
      </trkpt>
      <trkpt lat="46.14593499340117" lon="8.173843380063772">
        <ele>2145.71</ele>
        <time>2019-08-04T08:39:16Z</time>
      </trkpt>
      <trkpt lat="46.145937675610185" lon="8.173815133050084">
        <ele>2146.0799999999999</ele>
        <time>2019-08-04T08:39:29Z</time>
      </trkpt>
      <trkpt lat="46.145927868783474" lon="8.173740869387984">
        <ele>2148.2399999999998</ele>
        <time>2019-08-04T08:39:42Z</time>
      </trkpt>
      <trkpt lat="46.145912110805511" lon="8.173700384795666">
        <ele>2149.23</ele>
        <time>2019-08-04T08:39:54Z</time>
      </trkpt>
      <trkpt lat="46.145899118855596" lon="8.173664761707187">
        <ele>2150.8099999999999</ele>
        <time>2019-08-04T08:40:06Z</time>
      </trkpt>
      <trkpt lat="46.145876822993159" lon="8.173648668453097">
        <ele>2152.0300000000002</ele>
        <time>2019-08-04T08:40:18Z</time>
      </trkpt>
      <trkpt lat="46.145853772759438" lon="8.173607429489493">
        <ele>2153.4899999999998</ele>
        <time>2019-08-04T08:40:30Z</time>
      </trkpt>
      <trkpt lat="46.145819490775466" lon="8.173554455861449">
        <ele>2155.23</ele>
        <time>2019-08-04T08:40:43Z</time>
      </trkpt>
      <trkpt lat="46.145798368379474" lon="8.173509947955608">
        <ele>2156.71</ele>
        <time>2019-08-04T08:40:56Z</time>
      </trkpt>
      <trkpt lat="46.14578939974308" lon="8.173474073410034">
        <ele>2158.6300000000001</ele>
        <time>2019-08-04T08:41:07Z</time>
      </trkpt>
      <trkpt lat="46.145811611786485" lon="8.173442222177982">
        <ele>2160.1900000000001</ele>
        <time>2019-08-04T08:41:20Z</time>
      </trkpt>
      <trkpt lat="46.145835919305682" lon="8.173426548019052">
        <ele>2162.0100000000002</ele>
        <time>2019-08-04T08:41:32Z</time>
      </trkpt>
      <trkpt lat="46.145818484947085" lon="8.173382123932242">
        <ele>2163.52</ele>
        <time>2019-08-04T08:41:45Z</time>
      </trkpt>
      <trkpt lat="46.145814042538404" lon="8.173335939645767">
        <ele>2165.7399999999998</ele>
        <time>2019-08-04T08:41:59Z</time>
      </trkpt>
      <trkpt lat="46.145824939012527" lon="8.173292353749275">
        <ele>2167.9400000000001</ele>
        <time>2019-08-04T08:42:11Z</time>
      </trkpt>
      <trkpt lat="46.145860981196165" lon="8.173274835571647">
        <ele>2170.3299999999999</ele>
        <time>2019-08-04T08:42:24Z</time>
      </trkpt>
      <trkpt lat="46.145869698375463" lon="8.173210043460131">
        <ele>2172.3200000000002</ele>
        <time>2019-08-04T08:42:37Z</time>
      </trkpt>
      <trkpt lat="46.145855113863945" lon="8.173174588009715">
        <ele>2174.02</ele>
        <time>2019-08-04T08:42:48Z</time>
      </trkpt>
      <trkpt lat="46.145886210724711" lon="8.173151705414057">
        <ele>2174.3400000000001</ele>
        <time>2019-08-04T08:43:03Z</time>
      </trkpt>
      <trkpt lat="46.145857628434896" lon="8.173076519742608">
        <ele>2176.4699999999998</ele>
        <time>2019-08-04T08:43:16Z</time>
      </trkpt>
      <trkpt lat="46.145819909870625" lon="8.173007369041443">
        <ele>2178.8899999999999</ele>
        <time>2019-08-04T08:43:29Z</time>
      </trkpt>
      <trkpt lat="46.145834075286984" lon="8.172944840043783">
        <ele>2181.3400000000001</ele>
        <time>2019-08-04T08:43:40Z</time>
      </trkpt>
      <trkpt lat="46.145800882950425" lon="8.1728904414922">
        <ele>2182.8200000000002</ele>
        <time>2019-08-04T08:43:53Z</time>
      </trkpt>
      <trkpt lat="46.145795937627554" lon="8.172844341024756">
        <ele>2185.4699999999998</ele>
        <time>2019-08-04T08:44:06Z</time>
      </trkpt>
      <trkpt lat="46.145774647593498" lon="8.172798408195376">
        <ele>2186.9699999999998</ele>
        <time>2019-08-04T08:44:18Z</time>
      </trkpt>
      <trkpt lat="46.145745562389493" lon="8.172762533649802">
        <ele>2188.7199999999998</ele>
        <time>2019-08-04T08:44:30Z</time>
      </trkpt>
      <trkpt lat="46.145746987313032" lon="8.172712493687868">
        <ele>2190.5799999999999</ele>
        <time>2019-08-04T08:44:42Z</time>
      </trkpt>
      <trkpt lat="46.145727625116706" lon="8.172662872821093">
        <ele>2192.6799999999998</ele>
        <time>2019-08-04T08:44:54Z</time>
      </trkpt>
      <trkpt lat="46.145700216293335" lon="8.172580478712916">
        <ele>2194.7600000000002</ele>
        <time>2019-08-04T08:45:08Z</time>
      </trkpt>
      <trkpt lat="46.145657133311033" lon="8.172550806775689">
        <ele>2196.25</ele>
        <time>2019-08-04T08:45:20Z</time>
      </trkpt>
      <trkpt lat="46.145617319270968" lon="8.172508059069514">
        <ele>2198.3699999999999</ele>
        <time>2019-08-04T08:45:32Z</time>
      </trkpt>
      <trkpt lat="46.145581780001521" lon="8.172432538121939">
        <ele>2200.79</ele>
        <time>2019-08-04T08:45:47Z</time>
      </trkpt>
      <trkpt lat="46.145514054223895" lon="8.172347042709589">
        <ele>2202.1999999999998</ele>
        <time>2019-08-04T08:46:02Z</time>
      </trkpt>
      <trkpt lat="46.145421266555786" lon="8.172280071303248">
        <ele>2202.6700000000001</ele>
        <time>2019-08-04T08:46:16Z</time>
      </trkpt>
      <trkpt lat="46.145420596003532" lon="8.172211507335305">
        <ele>2203.0300000000002</ele>
        <time>2019-08-04T08:46:27Z</time>
      </trkpt>
      <trkpt lat="46.145358067005873" lon="8.172045545652509">
        <ele>2202</ele>
        <time>2019-08-04T08:46:39Z</time>
      </trkpt>
      <trkpt lat="46.145307943224907" lon="8.171881008893251">
        <ele>2201.2399999999998</ele>
        <time>2019-08-04T08:46:52Z</time>
      </trkpt>
      <trkpt lat="46.145318588241935" lon="8.171838847920299">
        <ele>2201.4200000000001</ele>
        <time>2019-08-04T08:47:02Z</time>
      </trkpt>
      <trkpt lat="46.145306685939431" lon="8.171636257320643">
        <ele>2200.0900000000001</ele>
        <time>2019-08-04T08:47:15Z</time>
      </trkpt>
      <trkpt lat="46.145306266844273" lon="8.171578254550695">
        <ele>2199.7399999999998</ele>
        <time>2019-08-04T08:47:19Z</time>
      </trkpt>
      <trkpt lat="46.145299477502704" lon="8.171492172405124">
        <ele>2199.3000000000002</ele>
        <time>2019-08-04T08:47:25Z</time>
      </trkpt>
      <trkpt lat="46.145261088386178" lon="8.171318164095283">
        <ele>2198</ele>
        <time>2019-08-04T08:47:37Z</time>
      </trkpt>
      <trkpt lat="46.145263938233256" lon="8.171102497726679">
        <ele>2197.5500000000002</ele>
        <time>2019-08-04T08:47:52Z</time>
      </trkpt>
      <trkpt lat="46.145280869677663" lon="8.171036364510655">
        <ele>2197.0700000000002</ele>
        <time>2019-08-04T08:47:57Z</time>
      </trkpt>
      <trkpt lat="46.145338956266642" lon="8.171020690351725">
        <ele>2195.4499999999998</ele>
        <time>2019-08-04T08:48:09Z</time>
      </trkpt>
      <trkpt lat="46.145342560485005" lon="8.171010632067919">
        <ele>2195.3600000000001</ele>
        <time>2019-08-04T08:48:13Z</time>
      </trkpt>
      <trkpt lat="46.145418835803866" lon="8.170945588499308">
        <ele>2194.2800000000002</ele>
        <time>2019-08-04T08:48:21Z</time>
      </trkpt>
      <trkpt lat="46.145486561581492" lon="8.17079815082252">
        <ele>2195.8299999999999</ele>
        <time>2019-08-04T08:48:36Z</time>
      </trkpt>
      <trkpt lat="46.145508186891675" lon="8.170656329020858">
        <ele>2197.29</ele>
        <time>2019-08-04T08:48:51Z</time>
      </trkpt>
      <trkpt lat="46.145518161356449" lon="8.170622801408172">
        <ele>2197.1999999999998</ele>
        <time>2019-08-04T08:49:03Z</time>
      </trkpt>
      <trkpt lat="46.145544648170471" lon="8.170487685129046">
        <ele>2197.4699999999998</ele>
        <time>2019-08-04T08:49:16Z</time>
      </trkpt>
      <trkpt lat="46.14555093459785" lon="8.170412331819534">
        <ele>2197.3699999999999</ele>
        <time>2019-08-04T08:49:28Z</time>
      </trkpt>
      <trkpt lat="46.145574236288667" lon="8.170346030965447">
        <ele>2198.5</ele>
        <time>2019-08-04T08:49:38Z</time>
      </trkpt>
      <trkpt lat="46.145612876862288" lon="8.170239580795169">
        <ele>2200.25</ele>
        <time>2019-08-04T08:49:53Z</time>
      </trkpt>
      <trkpt lat="46.145648248493671" lon="8.170152325183153">
        <ele>2201.7399999999998</ele>
        <time>2019-08-04T08:50:05Z</time>
      </trkpt>
      <trkpt lat="46.14566819742322" lon="8.170057022944093">
        <ele>2203.0500000000002</ele>
        <time>2019-08-04T08:50:19Z</time>
      </trkpt>
      <trkpt lat="46.145676076412201" lon="8.169934395700693">
        <ele>2204.8299999999999</ele>
        <time>2019-08-04T08:50:33Z</time>
      </trkpt>
      <trkpt lat="46.145671885460615" lon="8.169840015470982">
        <ele>2205.9000000000001</ele>
        <time>2019-08-04T08:50:45Z</time>
      </trkpt>
      <trkpt lat="46.145721673965454" lon="8.16978226415813">
        <ele>2207.6599999999999</ele>
        <time>2019-08-04T08:51:00Z</time>
      </trkpt>
      <trkpt lat="46.145751848816872" lon="8.169740187004209">
        <ele>2208.7800000000002</ele>
        <time>2019-08-04T08:51:12Z</time>
      </trkpt>
      <trkpt lat="46.145774563774467" lon="8.16967866383493">
        <ele>2210.48</ele>
        <time>2019-08-04T08:51:26Z</time>
      </trkpt>
      <trkpt lat="46.145797949284315" lon="8.16961420699954">
        <ele>2212.6999999999998</ele>
        <time>2019-08-04T08:51:39Z</time>
      </trkpt>
      <trkpt lat="46.145823011174798" lon="8.169528460130096">
        <ele>2214.7800000000002</ele>
        <time>2019-08-04T08:51:54Z</time>
      </trkpt>
      <trkpt lat="46.145813120529056" lon="8.169459477066994">
        <ele>2216.52</ele>
        <time>2019-08-04T08:52:06Z</time>
      </trkpt>
      <trkpt lat="46.145813371986151" lon="8.169406671077013">
        <ele>2217.52</ele>
        <time>2019-08-04T08:52:17Z</time>
      </trkpt>
      <trkpt lat="46.145856454968452" lon="8.16940700635314">
        <ele>2218.02</ele>
        <time>2019-08-04T08:52:29Z</time>
      </trkpt>
      <trkpt lat="46.145883360877633" lon="8.169371215626597">
        <ele>2219.5599999999999</ele>
        <time>2019-08-04T08:52:42Z</time>
      </trkpt>
      <trkpt lat="46.145895011723042" lon="8.169324863702059">
        <ele>2220.6199999999999</ele>
        <time>2019-08-04T08:52:55Z</time>
      </trkpt>
      <trkpt lat="46.145925940945745" lon="8.169257640838623">
        <ele>2222.96</ele>
        <time>2019-08-04T08:53:09Z</time>
      </trkpt>
      <trkpt lat="46.14590180106461" lon="8.169169211760163">
        <ele>2225.4699999999998</ele>
        <time>2019-08-04T08:53:24Z</time>
      </trkpt>
      <trkpt lat="46.145880594849586" lon="8.169106179848313">
        <ele>2227.21</ele>
        <time>2019-08-04T08:53:38Z</time>
      </trkpt>
      <trkpt lat="46.145895849913359" lon="8.169079776853323">
        <ele>2227.9299999999998</ele>
        <time>2019-08-04T08:53:49Z</time>
      </trkpt>
      <trkpt lat="46.145908841863275" lon="8.169039376080036">
        <ele>2230.0799999999999</ele>
        <time>2019-08-04T08:54:01Z</time>
      </trkpt>
      <trkpt lat="46.14590615965426" lon="8.168987324461341">
        <ele>2232.52</ele>
        <time>2019-08-04T08:54:14Z</time>
      </trkpt>
      <trkpt lat="46.145936585962772" lon="8.168954970315099">
        <ele>2235</ele>
        <time>2019-08-04T08:54:27Z</time>
      </trkpt>
      <trkpt lat="46.145945386961102" lon="8.168914066627622">
        <ele>2236.21</ele>
        <time>2019-08-04T08:54:40Z</time>
      </trkpt>
      <trkpt lat="46.145934406667948" lon="8.168869139626622">
        <ele>2237.9499999999998</ele>
        <time>2019-08-04T08:54:52Z</time>
      </trkpt>
      <trkpt lat="46.145902052521706" lon="8.168793953955174">
        <ele>2240.1700000000001</ele>
        <time>2019-08-04T08:55:06Z</time>
      </trkpt>
      <trkpt lat="46.145869698375463" lon="8.168738130480051">
        <ele>2241.4099999999999</ele>
        <time>2019-08-04T08:55:20Z</time>
      </trkpt>
      <trkpt lat="46.145878750830889" lon="8.168708207085729">
        <ele>2242.96</ele>
        <time>2019-08-04T08:55:33Z</time>
      </trkpt>
      <trkpt lat="46.145854946225882" lon="8.168667890131474">
        <ele>2244.46</ele>
        <time>2019-08-04T08:55:46Z</time>
      </trkpt>
      <trkpt lat="46.145830722525716" lon="8.16861785016954">
        <ele>2246.3499999999999</ele>
        <time>2019-08-04T08:55:58Z</time>
      </trkpt>
      <trkpt lat="46.145832315087318" lon="8.168543418869376">
        <ele>2248.46</ele>
        <time>2019-08-04T08:56:10Z</time>
      </trkpt>
      <trkpt lat="46.145812449976802" lon="8.168470412492752">
        <ele>2251</ele>
        <time>2019-08-04T08:56:23Z</time>
      </trkpt>
      <trkpt lat="46.145765092223883" lon="8.168404949828982">
        <ele>2253.0799999999999</ele>
        <time>2019-08-04T08:56:37Z</time>
      </trkpt>
      <trkpt lat="46.145701389759779" lon="8.168367985635996">
        <ele>2255.04</ele>
        <time>2019-08-04T08:56:51Z</time>
      </trkpt>
      <trkpt lat="46.145649254322052" lon="8.168303947895765">
        <ele>2256.9400000000001</ele>
        <time>2019-08-04T08:57:04Z</time>
      </trkpt>
      <trkpt lat="46.145598543807864" lon="8.168201856315136">
        <ele>2258.9200000000001</ele>
        <time>2019-08-04T08:57:17Z</time>
      </trkpt>
      <trkpt lat="46.145575409755111" lon="8.168060956522822">
        <ele>2260.4000000000001</ele>
        <time>2019-08-04T08:57:31Z</time>
      </trkpt>
      <trkpt lat="46.145582031458616" lon="8.167889630421996">
        <ele>2261.3000000000002</ele>
        <time>2019-08-04T08:57:46Z</time>
      </trkpt>
      <trkpt lat="46.145633831620216" lon="8.167760632932186">
        <ele>2262.9499999999998</ele>
        <time>2019-08-04T08:58:02Z</time>
      </trkpt>
      <trkpt lat="46.145686889067292" lon="8.167694164440036">
        <ele>2265.4899999999998</ele>
        <time>2019-08-04T08:58:18Z</time>
      </trkpt>
      <trkpt lat="46.145738856866956" lon="8.167623924091458">
        <ele>2268.1799999999998</ele>
        <time>2019-08-04T08:58:31Z</time>
      </trkpt>
      <trkpt lat="46.145812701433897" lon="8.16751697100699">
        <ele>2270.73</ele>
        <time>2019-08-04T08:58:47Z</time>
      </trkpt>
      <trkpt lat="46.145920744165778" lon="8.167438684031367">
        <ele>2272.7600000000002</ele>
        <time>2019-08-04T08:59:02Z</time>
      </trkpt>
      <trkpt lat="46.146021578460932" lon="8.167385375127196">
        <ele>2274.21</ele>
        <time>2019-08-04T08:59:16Z</time>
      </trkpt>
      <trkpt lat="46.146093243733048" lon="8.167309602722526">
        <ele>2275.0599999999999</ele>
        <time>2019-08-04T08:59:31Z</time>
      </trkpt>
      <trkpt lat="46.146146301180124" lon="8.167261239141226">
        <ele>2276.48</ele>
        <time>2019-08-04T08:59:45Z</time>
      </trkpt>
      <trkpt lat="46.146215116605163" lon="8.167222766205668">
        <ele>2278.9899999999998</ele>
        <time>2019-08-04T09:00:01Z</time>
      </trkpt>
      <trkpt lat="46.146265408024192" lon="8.167163422331214">
        <ele>2280.3600000000001</ele>
        <time>2019-08-04T09:00:14Z</time>
      </trkpt>
      <trkpt lat="46.146281166002154" lon="8.167083878070116">
        <ele>2281.27</ele>
        <time>2019-08-04T09:00:25Z</time>
      </trkpt>
      <trkpt lat="46.146287200972438" lon="8.167086308822036">
        <ele>2281.3800000000001</ele>
        <time>2019-08-04T09:00:38Z</time>
      </trkpt>
      <trkpt lat="46.146277394145727" lon="8.167015230283141">
        <ele>2281.4899999999998</ele>
        <time>2019-08-04T09:00:52Z</time>
      </trkpt>
      <trkpt lat="46.146303713321686" lon="8.166984720155597">
        <ele>2282.79</ele>
        <time>2019-08-04T09:01:04Z</time>
      </trkpt>
      <trkpt lat="46.146354759112" lon="8.166932919993997">
        <ele>2285.0999999999999</ele>
        <time>2019-08-04T09:01:17Z</time>
      </trkpt>
      <trkpt lat="46.14639088511467" lon="8.166830157861114">
        <ele>2287.4099999999999</ele>
        <time>2019-08-04T09:01:33Z</time>
      </trkpt>
      <trkpt lat="46.146424412727356" lon="8.166758492588997">
        <ele>2288.9099999999999</ele>
        <time>2019-08-04T09:01:46Z</time>
      </trkpt>
      <trkpt lat="46.146432459354401" lon="8.166759582236409">
        <ele>2288.8499999999999</ele>
        <time>2019-08-04T09:02:06Z</time>
      </trkpt>
      <trkpt lat="46.146456599235535" lon="8.166787242516875">
        <ele>2289.7399999999998</ele>
        <time>2019-08-04T09:02:18Z</time>
      </trkpt>
      <trkpt lat="46.146476045250893" lon="8.16679872572422">
        <ele>2290.1500000000001</ele>
        <time>2019-08-04T09:02:30Z</time>
      </trkpt>
      <trkpt lat="46.146450731903315" lon="8.166752038523555">
        <ele>2289.6900000000001</ele>
        <time>2019-08-04T09:02:43Z</time>
      </trkpt>
      <trkpt lat="46.146453162655234" lon="8.166743824258447">
        <ele>2289.4000000000001</ele>
        <time>2019-08-04T09:02:47Z</time>
      </trkpt>
      <trkpt lat="46.146472692489624" lon="8.166618850082159">
        <ele>2289.79</ele>
        <time>2019-08-04T09:03:00Z</time>
      </trkpt>
      <trkpt lat="46.146489707753062" lon="8.166556069627404">
        <ele>2291.77</ele>
        <time>2019-08-04T09:03:12Z</time>
      </trkpt>
      <trkpt lat="46.146504962816834" lon="8.166513321921229">
        <ele>2293.8299999999999</ele>
        <time>2019-08-04T09:03:25Z</time>
      </trkpt>
      <trkpt lat="46.146524325013161" lon="8.166456576436758">
        <ele>2296.4899999999998</ele>
        <time>2019-08-04T09:03:38Z</time>
      </trkpt>
      <trkpt lat="46.146538574248552" lon="8.166397986933589">
        <ele>2298.6199999999999</ele>
        <time>2019-08-04T09:03:52Z</time>
      </trkpt>
      <trkpt lat="46.146545363590121" lon="8.166363453492522">
        <ele>2300.8200000000002</ele>
        <time>2019-08-04T09:04:05Z</time>
      </trkpt>
      <trkpt lat="46.146538071334362" lon="8.166329087689519">
        <ele>2302.48</ele>
        <time>2019-08-04T09:04:17Z</time>
      </trkpt>
      <trkpt lat="46.146546453237534" lon="8.166300170123577">
        <ele>2304.6700000000001</ele>
        <time>2019-08-04T09:04:31Z</time>
      </trkpt>
      <trkpt lat="46.146548045799136" lon="8.166263708844781">
        <ele>2306.4200000000001</ele>
        <time>2019-08-04T09:04:45Z</time>
      </trkpt>
      <trkpt lat="46.146559445187449" lon="8.166228169575334">
        <ele>2308.0599999999999</ele>
        <time>2019-08-04T09:04:55Z</time>
      </trkpt>
      <trkpt lat="46.146559026092291" lon="8.166185002774">
        <ele>2309.9099999999999</ele>
        <time>2019-08-04T09:05:07Z</time>
      </trkpt>
      <trkpt lat="46.146585093811154" lon="8.166150972247124">
        <ele>2312.25</ele>
        <time>2019-08-04T09:05:23Z</time>
      </trkpt>
      <trkpt lat="46.146608144044876" lon="8.166120126843453">
        <ele>2314.3200000000002</ele>
        <time>2019-08-04T09:05:34Z</time>
      </trkpt>
      <trkpt lat="46.146627170965075" lon="8.16609313711524">
        <ele>2315.7600000000002</ele>
        <time>2019-08-04T09:05:44Z</time>
      </trkpt>
      <trkpt lat="46.146634966135025" lon="8.166086934506893">
        <ele>2317.54</ele>
        <time>2019-08-04T09:05:57Z</time>
      </trkpt>
      <trkpt lat="46.146631110459566" lon="8.166044857352972">
        <ele>2317.75</ele>
        <time>2019-08-04T09:06:18Z</time>
      </trkpt>
      <trkpt lat="46.146652232855558" lon="8.165970090776682">
        <ele>2318.29</ele>
        <time>2019-08-04T09:06:32Z</time>
      </trkpt>
      <trkpt lat="46.146687436848879" lon="8.165895575657487">
        <ele>2320</ele>
        <time>2019-08-04T09:06:44Z</time>
      </trkpt>
      <trkpt lat="46.146719623357058" lon="8.165804632008076">
        <ele>2322.02</ele>
        <time>2019-08-04T09:06:59Z</time>
      </trkpt>
      <trkpt lat="46.14676471799612" lon="8.165735146030784">
        <ele>2321.73</ele>
        <time>2019-08-04T09:07:10Z</time>
      </trkpt>
      <trkpt lat="46.146770585328341" lon="8.165663313120604">
        <ele>2322.8699999999999</ele>
        <time>2019-08-04T09:07:20Z</time>
      </trkpt>
      <trkpt lat="46.146776285022497" lon="8.165565496310592">
        <ele>2323.75</ele>
        <time>2019-08-04T09:07:32Z</time>
      </trkpt>
      <trkpt lat="46.14680134691298" lon="8.165486371144652">
        <ele>2325.1799999999998</ele>
        <time>2019-08-04T09:07:44Z</time>
      </trkpt>
      <trkpt lat="46.146807968616486" lon="8.165427278727293">
        <ele>2326.73</ele>
        <time>2019-08-04T09:07:56Z</time>
      </trkpt>
      <trkpt lat="46.146793132647872" lon="8.165356619283557">
        <ele>2328.1999999999998</ele>
        <time>2019-08-04T09:08:07Z</time>
      </trkpt>
      <trkpt lat="46.146775530651212" lon="8.165329964831471">
        <ele>2329.6700000000001</ele>
        <time>2019-08-04T09:08:18Z</time>
      </trkpt>
      <trkpt lat="46.146776452660561" lon="8.1653215829283">
        <ele>2329.9899999999998</ele>
        <time>2019-08-04T09:08:46Z</time>
      </trkpt>
      <trkpt lat="46.146776285022497" lon="8.16528101451695">
        <ele>2329.98</ele>
        <time>2019-08-04T09:08:59Z</time>
      </trkpt>
      <trkpt lat="46.146777123212814" lon="8.165187304839492">
        <ele>2331.1300000000001</ele>
        <time>2019-08-04T09:09:09Z</time>
      </trkpt>
      <trkpt lat="46.146769411861897" lon="8.165091080591083">
        <ele>2332.3200000000002</ele>
        <time>2019-08-04T09:09:20Z</time>
      </trkpt>
      <trkpt lat="46.146782403811812" lon="8.165034670382738">
        <ele>2331.9099999999999</ele>
        <time>2019-08-04T09:09:33Z</time>
      </trkpt>
      <trkpt lat="46.146780224516988" lon="8.165012877434492">
        <ele>2332.77</ele>
        <time>2019-08-04T09:09:51Z</time>
      </trkpt>
      <trkpt lat="46.146820792928338" lon="8.164874324575067">
        <ele>2333.1700000000001</ele>
        <time>2019-08-04T09:10:04Z</time>
      </trkpt>
      <trkpt lat="46.14684384316206" lon="8.164779776707292">
        <ele>2334.9499999999998</ele>
        <time>2019-08-04T09:10:16Z</time>
      </trkpt>
      <trkpt lat="46.146858762949705" lon="8.164683803915978">
        <ele>2335.98</ele>
        <time>2019-08-04T09:10:26Z</time>
      </trkpt>
      <trkpt lat="46.146881310269237" lon="8.164571318775415">
        <ele>2337.6399999999999</ele>
        <time>2019-08-04T09:10:39Z</time>
      </trkpt>
      <trkpt lat="46.146914418786764" lon="8.16449286416173">
        <ele>2338.8499999999999</ele>
        <time>2019-08-04T09:10:50Z</time>
      </trkpt>
      <trkpt lat="46.146955154836178" lon="8.164432179182768">
        <ele>2339.48</ele>
        <time>2019-08-04T09:11:00Z</time>
      </trkpt>
      <trkpt lat="46.14697870798409" lon="8.164339307695627">
        <ele>2339.0999999999999</ele>
        <time>2019-08-04T09:11:13Z</time>
      </trkpt>
      <trkpt lat="46.146998908370733" lon="8.164223385974765">
        <ele>2340.3400000000001</ele>
        <time>2019-08-04T09:11:26Z</time>
      </trkpt>
      <trkpt lat="46.147024054080248" lon="8.164119869470596">
        <ele>2340.3200000000002</ele>
        <time>2019-08-04T09:11:39Z</time>
      </trkpt>
      <trkpt lat="46.147068226709962" lon="8.163975533097982">
        <ele>2340.8899999999999</ele>
        <time>2019-08-04T09:11:55Z</time>
      </trkpt>
      <trkpt lat="46.147079709917307" lon="8.163930019363761">
        <ele>2340.4000000000001</ele>
        <time>2019-08-04T09:11:59Z</time>
      </trkpt>
      <trkpt lat="46.147060096263885" lon="8.163807475939393">
        <ele>2341.5599999999999</ele>
        <time>2019-08-04T09:12:12Z</time>
      </trkpt>
      <trkpt lat="46.147000668570399" lon="8.1638278439641">
        <ele>2344.5900000000001</ele>
        <time>2019-08-04T09:12:25Z</time>
      </trkpt>
      <trkpt lat="46.146969404071569" lon="8.163824323564768">
        <ele>2346.6199999999999</ele>
        <time>2019-08-04T09:12:39Z</time>
      </trkpt>
      <trkpt lat="46.146970326080918" lon="8.163818456232548">
        <ele>2346.5500000000002</ele>
        <time>2019-08-04T09:12:51Z</time>
      </trkpt>
      <trkpt lat="46.14696747623384" lon="8.163823988288641">
        <ele>2345.6500000000001</ele>
        <time>2019-08-04T09:13:03Z</time>
      </trkpt>
      <trkpt lat="46.146972253918648" lon="8.16384200938046">
        <ele>2345.27</ele>
        <time>2019-08-04T09:14:04Z</time>
      </trkpt>
      <trkpt lat="46.146978121250868" lon="8.163844691589475">
        <ele>2346.1100000000001</ele>
        <time>2019-08-04T09:14:13Z</time>
      </trkpt>
      <trkpt lat="46.146975355222821" lon="8.163810577243567">
        <ele>2346.0300000000002</ele>
        <time>2019-08-04T09:14:26Z</time>
      </trkpt>
      <trkpt lat="46.147007625550032" lon="8.163721142336726">
        <ele>2344.8600000000001</ele>
        <time>2019-08-04T09:14:37Z</time>
      </trkpt>
      <trkpt lat="46.147023634985089" lon="8.163649225607514">
        <ele>2345.48</ele>
        <time>2019-08-04T09:14:48Z</time>
      </trkpt>
      <trkpt lat="46.147032519802451" lon="8.163637239485979">
        <ele>2345.0900000000001</ele>
        <time>2019-08-04T09:15:06Z</time>
      </trkpt>
      <trkpt lat="46.147066131234169" lon="8.163575548678637">
        <ele>2345.1799999999998</ele>
        <time>2019-08-04T09:15:17Z</time>
      </trkpt>
      <trkpt lat="46.147113153710961" lon="8.16348628140986">
        <ele>2344.9299999999998</ele>
        <time>2019-08-04T09:15:30Z</time>
      </trkpt>
      <trkpt lat="46.14713410846889" lon="8.163426350802183">
        <ele>2344.3800000000001</ele>
        <time>2019-08-04T09:15:38Z</time>
      </trkpt>
      <trkpt lat="46.147181382402778" lon="8.163320571184158">
        <ele>2343.9400000000001</ele>
        <time>2019-08-04T09:15:50Z</time>
      </trkpt>
      <trkpt lat="46.147194541990757" lon="8.163236165419221">
        <ele>2343.23</ele>
        <time>2019-08-04T09:16:01Z</time>
      </trkpt>
      <trkpt lat="46.14719320088625" lon="8.163210852071643">
        <ele>2342.6500000000001</ele>
        <time>2019-08-04T09:16:03Z</time>
      </trkpt>
      <trkpt lat="46.147224297747016" lon="8.163048662245274">
        <ele>2341.1700000000001</ele>
        <time>2019-08-04T09:16:17Z</time>
      </trkpt>
      <trkpt lat="46.147277187556028" lon="8.162871468812227">
        <ele>2339.6100000000001</ele>
        <time>2019-08-04T09:16:33Z</time>
      </trkpt>
      <trkpt lat="46.14730023778975" lon="8.162801982834935">
        <ele>2339.3699999999999</ele>
        <time>2019-08-04T09:16:44Z</time>
      </trkpt>
      <trkpt lat="46.147342985495925" lon="8.162711877375841">
        <ele>2338.8800000000001</ele>
        <time>2019-08-04T09:16:55Z</time>
      </trkpt>
      <trkpt lat="46.147382128983736" lon="8.162596877664328">
        <ele>2338.5999999999999</ele>
        <time>2019-08-04T09:17:07Z</time>
      </trkpt>
      <trkpt lat="46.147426217794418" lon="8.162509705871344">
        <ele>2337.6300000000001</ele>
        <time>2019-08-04T09:17:20Z</time>
      </trkpt>
      <trkpt lat="46.147456895560026" lon="8.162419181317091">
        <ele>2336.5999999999999</ele>
        <time>2019-08-04T09:17:32Z</time>
      </trkpt>
      <trkpt lat="46.147553706541657" lon="8.162261601537466">
        <ele>2336.8499999999999</ele>
        <time>2019-08-04T09:17:49Z</time>
      </trkpt>
      <trkpt lat="46.147593436762691" lon="8.162130424752832">
        <ele>2337.4299999999998</ele>
        <time>2019-08-04T09:18:02Z</time>
      </trkpt>
      <trkpt lat="46.14767356775701" lon="8.16198667511344">
        <ele>2338.73</ele>
        <time>2019-08-04T09:18:17Z</time>
      </trkpt>
      <trkpt lat="46.147745903581381" lon="8.161900006234646">
        <ele>2340.02</ele>
        <time>2019-08-04T09:18:30Z</time>
      </trkpt>
      <trkpt lat="46.147801643237472" lon="8.161821467801929">
        <ele>2340.6100000000001</ele>
        <time>2019-08-04T09:18:43Z</time>
      </trkpt>
      <trkpt lat="46.14786802791059" lon="8.161750473082066">
        <ele>2341.9499999999998</ele>
        <time>2019-08-04T09:18:56Z</time>
      </trkpt>
      <trkpt lat="46.147887390106916" lon="8.161723986268044">
        <ele>2342.0799999999999</ele>
        <time>2019-08-04T09:19:00Z</time>
      </trkpt>
      <trkpt lat="46.147915469482541" lon="8.16168375313282">
        <ele>2341.9499999999998</ele>
        <time>2019-08-04T09:19:04Z</time>
      </trkpt>
      <trkpt lat="46.148017477244139" lon="8.161524496972561">
        <ele>2341.6300000000001</ele>
        <time>2019-08-04T09:19:21Z</time>
      </trkpt>
      <trkpt lat="46.148084700107574" lon="8.161392062902451">
        <ele>2342.8899999999999</ele>
        <time>2019-08-04T09:19:36Z</time>
      </trkpt>
      <trkpt lat="46.148108839988708" lon="8.161276560276747">
        <ele>2344.9499999999998</ele>
        <time>2019-08-04T09:19:50Z</time>
      </trkpt>
      <trkpt lat="46.148118982091546" lon="8.161185784265399">
        <ele>2347.1599999999999</ele>
        <time>2019-08-04T09:20:04Z</time>
      </trkpt>
      <trkpt lat="46.148134237155318" lon="8.161067012697458">
        <ele>2349.6900000000001</ele>
        <time>2019-08-04T09:20:19Z</time>
      </trkpt>
      <trkpt lat="46.148131554946303" lon="8.161008087918162">
        <ele>2351.1399999999999</ele>
        <time>2019-08-04T09:20:30Z</time>
      </trkpt>
      <trkpt lat="46.148124597966671" lon="8.161005489528179">
        <ele>2350.54</ele>
        <time>2019-08-04T09:20:44Z</time>
      </trkpt>
      <trkpt lat="46.148120323196054" lon="8.161002891138196">
        <ele>2351.2800000000002</ele>
        <time>2019-08-04T09:21:04Z</time>
      </trkpt>
      <trkpt lat="46.148146307095885" lon="8.161018146201968">
        <ele>2350.2199999999998</ele>
        <time>2019-08-04T09:21:26Z</time>
      </trkpt>
      <trkpt lat="46.148138931021094" lon="8.160949498414993">
        <ele>2349.96</ele>
        <time>2019-08-04T09:21:39Z</time>
      </trkpt>
      <trkpt lat="46.148166172206402" lon="8.160812621936202">
        <ele>2348.21</ele>
        <time>2019-08-04T09:21:51Z</time>
      </trkpt>
      <trkpt lat="46.148197269067168" lon="8.16070650704205">
        <ele>2347.7600000000002</ele>
        <time>2019-08-04T09:22:03Z</time>
      </trkpt>
      <trkpt lat="46.148210512474179" lon="8.160582622513175">
        <ele>2348.3299999999999</ele>
        <time>2019-08-04T09:22:15Z</time>
      </trkpt>
      <trkpt lat="46.148208752274513" lon="8.160451026633382">
        <ele>2350.3200000000002</ele>
        <time>2019-08-04T09:22:28Z</time>
      </trkpt>
      <trkpt lat="46.148185953497887" lon="8.160372572019696">
        <ele>2351.6100000000001</ele>
        <time>2019-08-04T09:22:40Z</time>
      </trkpt>
      <trkpt lat="46.148148067295551" lon="8.160291938111186">
        <ele>2351.27</ele>
        <time>2019-08-04T09:22:55Z</time>
      </trkpt>
      <trkpt lat="46.14812795072794" lon="8.160243909806013">
        <ele>2351.1100000000001</ele>
        <time>2019-08-04T09:23:07Z</time>
      </trkpt>
      <trkpt lat="46.148124933242798" lon="8.160237707197666">
        <ele>2351.0100000000002</ele>
        <time>2019-08-04T09:23:08Z</time>
      </trkpt>
      <trkpt lat="46.148100290447474" lon="8.160168305039406">
        <ele>2350.4400000000001</ele>
        <time>2019-08-04T09:23:20Z</time>
      </trkpt>
      <trkpt lat="46.14807715639472" lon="8.1600321829319">
        <ele>2352.75</ele>
        <time>2019-08-04T09:23:35Z</time>
      </trkpt>
      <trkpt lat="46.148049077019095" lon="8.159960098564625">
        <ele>2352.7199999999998</ele>
        <time>2019-08-04T09:23:47Z</time>
      </trkpt>
      <trkpt lat="46.14802535623312" lon="8.159881979227066">
        <ele>2354.1799999999998</ele>
        <time>2019-08-04T09:23:59Z</time>
      </trkpt>
      <trkpt lat="46.147996438667178" lon="8.159763459116221">
        <ele>2355.1700000000001</ele>
        <time>2019-08-04T09:24:11Z</time>
      </trkpt>
      <trkpt lat="46.147981602698565" lon="8.159680981189013">
        <ele>2355.5300000000002</ele>
        <time>2019-08-04T09:24:23Z</time>
      </trkpt>
      <trkpt lat="46.147967521101236" lon="8.159627756103873">
        <ele>2356.0100000000002</ele>
        <time>2019-08-04T09:24:32Z</time>
      </trkpt>
      <trkpt lat="46.14797011949122" lon="8.159565730020404">
        <ele>2355.8899999999999</ele>
        <time>2019-08-04T09:24:43Z</time>
      </trkpt>
      <trkpt lat="46.147971209138632" lon="8.159507559612393">
        <ele>2356.5900000000001</ele>
        <time>2019-08-04T09:24:56Z</time>
      </trkpt>
      <trkpt lat="46.147954696789384" lon="8.159462129697204">
        <ele>2356.7800000000002</ele>
        <time>2019-08-04T09:25:13Z</time>
      </trkpt>
      <trkpt lat="46.147956205531955" lon="8.159432541579008">
        <ele>2357.4099999999999</ele>
        <time>2019-08-04T09:25:28Z</time>
      </trkpt>
      <trkpt lat="46.147938603535295" lon="8.15939063206315">
        <ele>2359.04</ele>
        <time>2019-08-04T09:25:40Z</time>
      </trkpt>
      <trkpt lat="46.147897532209754" lon="8.159334138035774">
        <ele>2359.5100000000002</ele>
        <time>2019-08-04T09:25:51Z</time>
      </trkpt>
      <trkpt lat="46.147884959354997" lon="8.15928359515965">
        <ele>2360.3000000000002</ele>
        <time>2019-08-04T09:26:03Z</time>
      </trkpt>
      <trkpt lat="46.147868949919939" lon="8.159231375902891">
        <ele>2360.0500000000002</ele>
        <time>2019-08-04T09:26:17Z</time>
      </trkpt>
      <trkpt lat="46.147864926606417" lon="8.159200698137283">
        <ele>2361.0500000000002</ele>
        <time>2019-08-04T09:26:27Z</time>
      </trkpt>
      <trkpt lat="46.147871883586049" lon="8.15917412750423">
        <ele>2361.3499999999999</ele>
        <time>2019-08-04T09:26:39Z</time>
      </trkpt>
      <trkpt lat="46.147865680977702" lon="8.159090308472514">
        <ele>2363.2199999999998</ele>
        <time>2019-08-04T09:26:52Z</time>
      </trkpt>
      <trkpt lat="46.147874146699905" lon="8.159059714525938">
        <ele>2363.27</ele>
        <time>2019-08-04T09:27:04Z</time>
      </trkpt>
      <trkpt lat="46.14787045866251" lon="8.158992491662502">
        <ele>2364.8499999999999</ele>
        <time>2019-08-04T09:27:14Z</time>
      </trkpt>
      <trkpt lat="46.147865261882544" lon="8.158886544406414">
        <ele>2366.1199999999999</ele>
        <time>2019-08-04T09:27:28Z</time>
      </trkpt>
      <trkpt lat="46.147840283811092" lon="8.158770706504583">
        <ele>2366.29</ele>
        <time>2019-08-04T09:27:41Z</time>
      </trkpt>
      <trkpt lat="46.147846318781376" lon="8.158698454499245">
        <ele>2368.4099999999999</ele>
        <time>2019-08-04T09:27:53Z</time>
      </trkpt>
      <trkpt lat="46.147838942706585" lon="8.158646319061518">
        <ele>2369.5900000000001</ele>
        <time>2019-08-04T09:28:10Z</time>
      </trkpt>
      <trkpt lat="46.14783626049757" lon="8.158634835854173">
        <ele>2369.4299999999998</ele>
        <time>2019-08-04T09:28:24Z</time>
      </trkpt>
      <trkpt lat="46.14783919416368" lon="8.158627962693572">
        <ele>2369.2399999999998</ele>
        <time>2019-08-04T09:28:39Z</time>
      </trkpt>
      <trkpt lat="46.147838607430458" lon="8.158623436465859">
        <ele>2369.3299999999999</ele>
        <time>2019-08-04T09:28:54Z</time>
      </trkpt>
      <trkpt lat="46.147836595773697" lon="8.158551687374711">
        <ele>2370.4200000000001</ele>
        <time>2019-08-04T09:29:12Z</time>
      </trkpt>
      <trkpt lat="46.147824944928288" lon="8.158417409285903">
        <ele>2372.8099999999999</ele>
        <time>2019-08-04T09:29:28Z</time>
      </trkpt>
      <trkpt lat="46.147813629359007" lon="8.158348258584738">
        <ele>2374.5500000000002</ele>
        <time>2019-08-04T09:29:40Z</time>
      </trkpt>
      <trkpt lat="46.147805247455835" lon="8.158297128975391">
        <ele>2375.04</ele>
        <time>2019-08-04T09:29:52Z</time>
      </trkpt>
      <trkpt lat="46.147793345153332" lon="8.158234097063541">
        <ele>2374.75</ele>
        <time>2019-08-04T09:30:04Z</time>
      </trkpt>
      <trkpt lat="46.147778760641813" lon="8.158154133707285">
        <ele>2375.7800000000002</ele>
        <time>2019-08-04T09:30:16Z</time>
      </trkpt>
      <trkpt lat="46.147798541933298" lon="8.158108619973064">
        <ele>2377.6700000000001</ele>
        <time>2019-08-04T09:30:29Z</time>
      </trkpt>
      <trkpt lat="46.147812288254499" lon="8.158071739599109">
        <ele>2379.4699999999998</ele>
        <time>2019-08-04T09:30:41Z</time>
      </trkpt>
      <trkpt lat="46.147840786725283" lon="8.158022370189428">
        <ele>2381.6999999999998</ele>
        <time>2019-08-04T09:30:55Z</time>
      </trkpt>
      <trkpt lat="46.14783382974565" lon="8.157904101535678">
        <ele>2383.6500000000001</ele>
        <time>2019-08-04T09:31:08Z</time>
      </trkpt>
      <trkpt lat="46.147804828360677" lon="8.157794885337353">
        <ele>2384.5799999999999</ele>
        <time>2019-08-04T09:31:21Z</time>
      </trkpt>
      <trkpt lat="46.147781359031796" lon="8.157706540077925">
        <ele>2386.5999999999999</ele>
        <time>2019-08-04T09:31:34Z</time>
      </trkpt>
      <trkpt lat="46.147743808105588" lon="8.157610483467579">
        <ele>2389.4200000000001</ele>
        <time>2019-08-04T09:31:49Z</time>
      </trkpt>
      <trkpt lat="46.147726122289896" lon="8.157528340816498">
        <ele>2391.5900000000001</ele>
        <time>2019-08-04T09:32:02Z</time>
      </trkpt>
      <trkpt lat="46.147724026814103" lon="8.157503949478269">
        <ele>2392.27</ele>
        <time>2019-08-04T09:32:16Z</time>
      </trkpt>
      <trkpt lat="46.147720674052835" lon="8.157454244792461">
        <ele>2394.4099999999999</ele>
        <time>2019-08-04T09:32:27Z</time>
      </trkpt>
      <trkpt lat="46.147715896368027" lon="8.157316697761416">
        <ele>2396.5300000000002</ele>
        <time>2019-08-04T09:32:41Z</time>
      </trkpt>
      <trkpt lat="46.147682452574372" lon="8.157197674736381">
        <ele>2397.2199999999998</ele>
        <time>2019-08-04T09:32:54Z</time>
      </trkpt>
      <trkpt lat="46.147638196125627" lon="8.157080160453916">
        <ele>2395</ele>
        <time>2019-08-04T09:33:09Z</time>
      </trkpt>
      <trkpt lat="46.147618498653173" lon="8.156989803537726">
        <ele>2395.1999999999998</ele>
        <time>2019-08-04T09:33:21Z</time>
      </trkpt>
      <trkpt lat="46.147624030709267" lon="8.156924257054925">
        <ele>2396.3299999999999</ele>
        <time>2019-08-04T09:33:31Z</time>
      </trkpt>
      <trkpt lat="46.147613553330302" lon="8.156859381124377">
        <ele>2396.8299999999999</ele>
        <time>2019-08-04T09:33:42Z</time>
      </trkpt>
      <trkpt lat="46.147616989910603" lon="8.156820572912693">
        <ele>2396.6199999999999</ele>
        <time>2019-08-04T09:33:54Z</time>
      </trkpt>
      <trkpt lat="46.147608272731304" lon="8.156785117462277">
        <ele>2397.8299999999999</ele>
        <time>2019-08-04T09:34:09Z</time>
      </trkpt>
      <trkpt lat="46.14759243093431" lon="8.156693587079644">
        <ele>2400.9000000000001</ele>
        <time>2019-08-04T09:34:24Z</time>
      </trkpt>
      <trkpt lat="46.147589748725295" lon="8.156658466905356">
        <ele>2402.52</ele>
        <time>2019-08-04T09:34:36Z</time>
      </trkpt>
      <trkpt lat="46.147586395964026" lon="8.156627872958779">
        <ele>2404.4200000000001</ele>
        <time>2019-08-04T09:34:49Z</time>
      </trkpt>
      <trkpt lat="46.147595616057515" lon="8.156572049483657">
        <ele>2407.0100000000002</ele>
        <time>2019-08-04T09:35:00Z</time>
      </trkpt>
      <trkpt lat="46.147588826715946" lon="8.156498456373811">
        <ele>2408.5700000000002</ele>
        <time>2019-08-04T09:35:13Z</time>
      </trkpt>
      <trkpt lat="46.14759536460042" lon="8.156436681747437">
        <ele>2410.1700000000001</ele>
        <time>2019-08-04T09:35:25Z</time>
      </trkpt>
      <trkpt lat="46.147572817280889" lon="8.156351270154119">
        <ele>2411.7600000000002</ele>
        <time>2019-08-04T09:35:37Z</time>
      </trkpt>
      <trkpt lat="46.147569045424461" lon="8.15626828931272">
        <ele>2413.4699999999998</ele>
        <time>2019-08-04T09:35:51Z</time>
      </trkpt>
      <trkpt lat="46.147543229162693" lon="8.156256303191185">
        <ele>2413.3800000000001</ele>
        <time>2019-08-04T09:36:05Z</time>
      </trkpt>
      <trkpt lat="46.147523615509272" lon="8.156248508021236">
        <ele>2413.4400000000001</ele>
        <time>2019-08-04T09:36:14Z</time>
      </trkpt>
      <trkpt lat="46.147479945793748" lon="8.156264685094357">
        <ele>2414.4299999999998</ele>
        <time>2019-08-04T09:36:26Z</time>
      </trkpt>
      <trkpt lat="46.147462595254183" lon="8.156276503577828">
        <ele>2415.8000000000002</ele>
        <time>2019-08-04T09:36:40Z</time>
      </trkpt>
      <trkpt lat="46.14743166603148" lon="8.156257309019566">
        <ele>2418.4899999999998</ele>
        <time>2019-08-04T09:36:51Z</time>
      </trkpt>
      <trkpt lat="46.147416746243834" lon="8.156228307634592">
        <ele>2419.7199999999998</ele>
        <time>2019-08-04T09:37:01Z</time>
      </trkpt>
      <trkpt lat="46.147396545857191" lon="8.156218836084008">
        <ele>2421.5300000000002</ele>
        <time>2019-08-04T09:37:14Z</time>
      </trkpt>
      <trkpt lat="46.147375255823135" lon="8.156206095591188">
        <ele>2422.8800000000001</ele>
        <time>2019-08-04T09:37:25Z</time>
      </trkpt>
      <trkpt lat="46.147352457046509" lon="8.156179608777165">
        <ele>2424.1100000000001</ele>
        <time>2019-08-04T09:37:35Z</time>
      </trkpt>
      <trkpt lat="46.147310296073556" lon="8.15613049082458">
        <ele>2425.8699999999999</ele>
        <time>2019-08-04T09:37:47Z</time>
      </trkpt>
      <trkpt lat="46.147259417921305" lon="8.156105512753129">
        <ele>2427.9299999999998</ele>
        <time>2019-08-04T09:38:00Z</time>
      </trkpt>
      <trkpt lat="46.147219268605113" lon="8.156163934618235">
        <ele>2430.2600000000002</ele>
        <time>2019-08-04T09:38:14Z</time>
      </trkpt>
      <trkpt lat="46.147221950814128" lon="8.156210370361805">
        <ele>2431.1999999999998</ele>
        <time>2019-08-04T09:38:29Z</time>
      </trkpt>
      <trkpt lat="46.147192027419806" lon="8.156276838853955">
        <ele>2434.6399999999999</ele>
        <time>2019-08-04T09:38:39Z</time>
      </trkpt>
      <trkpt lat="46.147141652181745" lon="8.156349426135421">
        <ele>2434.9699999999998</ele>
        <time>2019-08-04T09:38:53Z</time>
      </trkpt>
      <trkpt lat="46.147095132619143" lon="8.156415307894349">
        <ele>2434.9200000000001</ele>
        <time>2019-08-04T09:39:03Z</time>
      </trkpt>
      <trkpt lat="46.147077782079577" lon="8.156435675919056">
        <ele>2435.0799999999999</ele>
        <time>2019-08-04T09:39:06Z</time>
      </trkpt>
      <trkpt lat="46.146990694105625" lon="8.156431149691343">
        <ele>2436.04</ele>
        <time>2019-08-04T09:39:18Z</time>
      </trkpt>
      <trkpt lat="46.146944342181087" lon="8.156412877142429">
        <ele>2436.1799999999998</ele>
        <time>2019-08-04T09:39:30Z</time>
      </trkpt>
      <trkpt lat="46.146929925307631" lon="8.156415140256286">
        <ele>2436.0300000000002</ele>
        <time>2019-08-04T09:39:44Z</time>
      </trkpt>
      <trkpt lat="46.146907294169068" lon="8.156389910727739">
        <ele>2436.21</ele>
        <time>2019-08-04T09:39:54Z</time>
      </trkpt>
      <trkpt lat="46.146879550069571" lon="8.156379768624902">
        <ele>2435.6300000000001</ele>
        <time>2019-08-04T09:40:05Z</time>
      </trkpt>
      <trkpt lat="46.146883321925998" lon="8.156357808038592">
        <ele>2435.3200000000002</ele>
        <time>2019-08-04T09:40:20Z</time>
      </trkpt>
      <trkpt lat="46.146889692172408" lon="8.156360993161798">
        <ele>2435.9400000000001</ele>
        <time>2019-08-04T09:40:42Z</time>
      </trkpt>
      <trkpt lat="46.146882651373744" lon="8.156303577125073">
        <ele>2434.77</ele>
        <time>2019-08-04T09:40:59Z</time>
      </trkpt>
      <trkpt lat="46.146914334967732" lon="8.15624532289803">
        <ele>2436.9400000000001</ele>
        <time>2019-08-04T09:41:13Z</time>
      </trkpt>
      <trkpt lat="46.146911904215813" lon="8.156226295977831">
        <ele>2436.8499999999999</ele>
        <time>2019-08-04T09:41:27Z</time>
      </trkpt>
      <trkpt lat="46.146909389644861" lon="8.156190672889352">
        <ele>2436.9499999999998</ele>
        <time>2019-08-04T09:41:39Z</time>
      </trkpt>
      <trkpt lat="46.146902767941356" lon="8.15619888715446">
        <ele>2435.9400000000001</ele>
        <time>2019-08-04T09:41:48Z</time>
      </trkpt>
      <trkpt lat="46.146897235885262" lon="8.156160749495029">
        <ele>2434.7600000000002</ele>
        <time>2019-08-04T09:42:06Z</time>
      </trkpt>
      <trkpt lat="46.146908635273576" lon="8.156159827485681">
        <ele>2435.4899999999998</ele>
        <time>2019-08-04T09:42:49Z</time>
      </trkpt>
      <trkpt lat="46.146908132359385" lon="8.156150104478002">
        <ele>2434.9499999999998</ele>
        <time>2019-08-04T09:43:03Z</time>
      </trkpt>
      <trkpt lat="46.146904863417149" lon="8.156162761151791">
        <ele>2434.7800000000002</ele>
        <time>2019-08-04T09:43:33Z</time>
      </trkpt>
      <trkpt lat="46.146903857588768" lon="8.156175334006548">
        <ele>2435.4000000000001</ele>
        <time>2019-08-04T09:44:04Z</time>
      </trkpt>
      <trkpt lat="46.146901259198785" lon="8.156182123348117">
        <ele>2435.5700000000002</ele>
        <time>2019-08-04T09:45:00Z</time>
      </trkpt>
      <trkpt lat="46.146905114874244" lon="8.156185643747449">
        <ele>2435.5700000000002</ele>
        <time>2019-08-04T09:45:52Z</time>
      </trkpt>
      <trkpt lat="46.146906455978751" lon="8.156189164146781">
        <ele>2435.3499999999999</ele>
        <time>2019-08-04T09:46:41Z</time>
      </trkpt>
      <trkpt lat="46.146907042711973" lon="8.156197713688016">
        <ele>2435.75</ele>
        <time>2019-08-04T09:47:32Z</time>
      </trkpt>
      <trkpt lat="46.146908802911639" lon="8.156196204945445">
        <ele>2435.9200000000001</ele>
        <time>2019-08-04T09:48:17Z</time>
      </trkpt>
      <trkpt lat="46.146908719092607" lon="8.156185057014227">
        <ele>2436.0999999999999</ele>
        <time>2019-08-04T09:49:04Z</time>
      </trkpt>
      <trkpt lat="46.146904109045863" lon="8.156181704252958">
        <ele>2436.1900000000001</ele>
        <time>2019-08-04T09:50:03Z</time>
      </trkpt>
      <trkpt lat="46.146907461807132" lon="8.156180949881673">
        <ele>2436.3699999999999</ele>
        <time>2019-08-04T09:51:08Z</time>
      </trkpt>
      <trkpt lat="46.146903270855546" lon="8.156184805557132">
        <ele>2436.4699999999998</ele>
        <time>2019-08-04T09:52:09Z</time>
      </trkpt>
      <trkpt lat="46.146903187036514" lon="8.156185392290354">
        <ele>2437.04</ele>
        <time>2019-08-04T09:53:14Z</time>
      </trkpt>
      <trkpt lat="46.146905869245529" lon="8.156179022043943">
        <ele>2437.23</ele>
        <time>2019-08-04T09:54:07Z</time>
      </trkpt>
      <trkpt lat="46.146905869245529" lon="8.156178016215563">
        <ele>2437.3800000000001</ele>
        <time>2019-08-04T09:54:48Z</time>
      </trkpt>
      <trkpt lat="46.146906958892941" lon="8.156179692596197">
        <ele>2437.5500000000002</ele>
        <time>2019-08-04T09:55:37Z</time>
      </trkpt>
      <trkpt lat="46.146914334967732" lon="8.156181452795863">
        <ele>2437.4899999999998</ele>
        <time>2019-08-04T09:56:29Z</time>
      </trkpt>
      <trkpt lat="46.146918693557382" lon="8.15619008615613">
        <ele>2437.5900000000001</ele>
        <time>2019-08-04T09:57:34Z</time>
      </trkpt>
      <trkpt lat="46.146920286118984" lon="8.156192181631923">
        <ele>2438.0500000000002</ele>
        <time>2019-08-04T09:58:28Z</time>
      </trkpt>
      <trkpt lat="46.146917771548033" lon="8.156193690374494">
        <ele>2438.52</ele>
        <time>2019-08-04T09:58:48Z</time>
      </trkpt>
      <trkpt lat="46.146914334967732" lon="8.15619352273643">
        <ele>2437.9499999999998</ele>
        <time>2019-08-04T09:59:40Z</time>
      </trkpt>
      <trkpt lat="46.146914670243859" lon="8.156205927953124">
        <ele>2438.4499999999998</ele>
        <time>2019-08-04T10:00:27Z</time>
      </trkpt>
      <trkpt lat="46.146919196471572" lon="8.156216572970152">
        <ele>2439.23</ele>
        <time>2019-08-04T10:01:18Z</time>
      </trkpt>
      <trkpt lat="46.146918525919318" lon="8.156210035085678">
        <ele>2438.9699999999998</ele>
        <time>2019-08-04T10:02:19Z</time>
      </trkpt>
      <trkpt lat="46.146917771548033" lon="8.156208274886012">
        <ele>2439.3499999999999</ele>
        <time>2019-08-04T10:03:21Z</time>
      </trkpt>
      <trkpt lat="46.146912574768066" lon="8.156213136389852">
        <ele>2439.4200000000001</ele>
        <time>2019-08-04T10:04:27Z</time>
      </trkpt>
      <trkpt lat="46.146916598081589" lon="8.156204083934426">
        <ele>2439.4299999999998</ele>
        <time>2019-08-04T10:05:29Z</time>
      </trkpt>
      <trkpt lat="46.146919950842857" lon="8.156204167753458">
        <ele>2439.3800000000001</ele>
        <time>2019-08-04T10:06:34Z</time>
      </trkpt>
      <trkpt lat="46.146916849538684" lon="8.15621548332274">
        <ele>2439.3899999999999</ele>
        <time>2019-08-04T10:07:37Z</time>
      </trkpt>
      <trkpt lat="46.146917184814811" lon="8.156209113076329">
        <ele>2439.48</ele>
        <time>2019-08-04T10:08:39Z</time>
      </trkpt>
      <trkpt lat="46.146920872852206" lon="8.156213890761137">
        <ele>2439.79</ele>
        <time>2019-08-04T10:09:22Z</time>
      </trkpt>
      <trkpt lat="46.146905701607466" lon="8.156198048964143">
        <ele>2439.5599999999999</ele>
        <time>2019-08-04T10:10:20Z</time>
      </trkpt>
      <trkpt lat="46.146907964721322" lon="8.156202407553792">
        <ele>2439.9000000000001</ele>
        <time>2019-08-04T10:11:27Z</time>
      </trkpt>
      <trkpt lat="46.146916849538684" lon="8.156206011772156">
        <ele>2439.9200000000001</ele>
        <time>2019-08-04T10:11:50Z</time>
      </trkpt>
      <trkpt lat="46.146914418786764" lon="8.156219506636262">
        <ele>2439.6799999999998</ele>
        <time>2019-08-04T10:12:20Z</time>
      </trkpt>
      <trkpt lat="46.146899247542024" lon="8.156203664839268">
        <ele>2439.8899999999999</ele>
        <time>2019-08-04T10:13:05Z</time>
      </trkpt>
      <trkpt lat="46.146896062418818" lon="8.15620232373476">
        <ele>2439.6300000000001</ele>
        <time>2019-08-04T10:14:03Z</time>
      </trkpt>
      <trkpt lat="46.146891536191106" lon="8.156205508857966">
        <ele>2440.1100000000001</ele>
        <time>2019-08-04T10:14:49Z</time>
      </trkpt>
      <trkpt lat="46.146893380209804" lon="8.156208861619234">
        <ele>2440.23</ele>
        <time>2019-08-04T10:15:38Z</time>
      </trkpt>
      <trkpt lat="46.146887009963393" lon="8.156201569363475">
        <ele>2440.4699999999998</ele>
        <time>2019-08-04T10:16:32Z</time>
      </trkpt>
      <trkpt lat="46.146893044933677" lon="8.156196791678667">
        <ele>2441.1599999999999</ele>
        <time>2019-08-04T10:17:34Z</time>
      </trkpt>
      <trkpt lat="46.146891452372074" lon="8.156197713688016">
        <ele>2441.0300000000002</ele>
        <time>2019-08-04T10:18:36Z</time>
      </trkpt>
      <trkpt lat="46.146897403523326" lon="8.156206011772156">
        <ele>2441.02</ele>
        <time>2019-08-04T10:19:45Z</time>
      </trkpt>
      <trkpt lat="46.14690201357007" lon="8.156200395897031">
        <ele>2441.6199999999999</ele>
        <time>2019-08-04T10:20:53Z</time>
      </trkpt>
      <trkpt lat="46.1469039414078" lon="8.156202994287014">
        <ele>2441.5799999999999</ele>
        <time>2019-08-04T10:21:59Z</time>
      </trkpt>
      <trkpt lat="46.146906707435846" lon="8.156201653182507">
        <ele>2441.6399999999999</ele>
        <time>2019-08-04T10:23:09Z</time>
      </trkpt>
      <trkpt lat="46.146908802911639" lon="8.156216656789184">
        <ele>2442.2199999999998</ele>
        <time>2019-08-04T10:24:11Z</time>
      </trkpt>
      <trkpt lat="46.146913496777415" lon="8.156235180795193">
        <ele>2441.9499999999998</ele>
        <time>2019-08-04T10:24:26Z</time>
      </trkpt>
      <trkpt lat="46.146922633051872" lon="8.156245993450284">
        <ele>2441.6399999999999</ele>
        <time>2019-08-04T10:25:08Z</time>
      </trkpt>
      <trkpt lat="46.146930679678917" lon="8.15625068731606">
        <ele>2442.23</ele>
        <time>2019-08-04T10:25:56Z</time>
      </trkpt>
      <trkpt lat="46.146932439878583" lon="8.156250519677997">
        <ele>2442.3899999999999</ele>
        <time>2019-08-04T10:26:35Z</time>
      </trkpt>
      <trkpt lat="46.146933948621154" lon="8.156251022592187">
        <ele>2442.1900000000001</ele>
        <time>2019-08-04T10:27:14Z</time>
      </trkpt>
      <trkpt lat="46.14693570882082" lon="8.156250352039933">
        <ele>2442.7800000000002</ele>
        <time>2019-08-04T10:27:58Z</time>
      </trkpt>
      <trkpt lat="46.146934786811471" lon="8.156252363696694">
        <ele>2442.5</ele>
        <time>2019-08-04T10:28:47Z</time>
      </trkpt>
      <trkpt lat="46.146935625001788" lon="8.156251525506377">
        <ele>2442.3600000000001</ele>
        <time>2019-08-04T10:29:29Z</time>
      </trkpt>
      <trkpt lat="46.146933864802122" lon="8.156249262392521">
        <ele>2443.2399999999998</ele>
        <time>2019-08-04T10:30:18Z</time>
      </trkpt>
      <trkpt lat="46.146934786811471" lon="8.156245909631252">
        <ele>2442.6900000000001</ele>
        <time>2019-08-04T10:31:09Z</time>
      </trkpt>
      <trkpt lat="46.146937636658549" lon="8.156242473050952">
        <ele>2442.6300000000001</ele>
        <time>2019-08-04T10:31:53Z</time>
      </trkpt>
      <trkpt lat="46.146935373544693" lon="8.15623895265162">
        <ele>2442.5900000000001</ele>
        <time>2019-08-04T10:32:46Z</time>
      </trkpt>
      <trkpt lat="46.146934200078249" lon="8.156238282099366">
        <ele>2442.4899999999998</ele>
        <time>2019-08-04T10:33:17Z</time>
      </trkpt>
      <trkpt lat="46.14692447707057" lon="8.156269630417228">
        <ele>2443.46</ele>
        <time>2019-08-04T10:33:25Z</time>
      </trkpt>
      <trkpt lat="46.146935541182756" lon="8.156299721449614">
        <ele>2443.6999999999998</ele>
        <time>2019-08-04T10:33:35Z</time>
      </trkpt>
      <trkpt lat="46.146914418786764" lon="8.15634154714644">
        <ele>2442.4099999999999</ele>
        <time>2019-08-04T10:33:44Z</time>
      </trkpt>
      <trkpt lat="46.146966470405459" lon="8.156392006203532">
        <ele>2443.5100000000002</ele>
        <time>2019-08-04T10:33:54Z</time>
      </trkpt>
      <trkpt lat="46.147000081837177" lon="8.1563850492239">
        <ele>2444.4200000000001</ele>
        <time>2019-08-04T10:34:05Z</time>
      </trkpt>
      <trkpt lat="46.147010140120983" lon="8.156347246840596">
        <ele>2445.3899999999999</ele>
        <time>2019-08-04T10:34:16Z</time>
      </trkpt>
      <trkpt lat="46.147004524245858" lon="8.156360741704702">
        <ele>2445.23</ele>
        <time>2019-08-04T10:34:24Z</time>
      </trkpt>
      <trkpt lat="46.147010056301951" lon="8.156364681199193">
        <ele>2445.3000000000002</ele>
        <time>2019-08-04T10:34:37Z</time>
      </trkpt>
      <trkpt lat="46.147011984139681" lon="8.15636501647532">
        <ele>2445.02</ele>
        <time>2019-08-04T10:35:18Z</time>
      </trkpt>
      <trkpt lat="46.147008799016476" lon="8.156358059495688">
        <ele>2445.3400000000001</ele>
        <time>2019-08-04T10:36:10Z</time>
      </trkpt>
      <trkpt lat="46.147006452083588" lon="8.156360071152449">
        <ele>2445.1599999999999</ele>
        <time>2019-08-04T10:37:01Z</time>
      </trkpt>
      <trkpt lat="46.147009553387761" lon="8.156364010646939">
        <ele>2445.3800000000001</ele>
        <time>2019-08-04T10:37:54Z</time>
      </trkpt>
      <trkpt lat="46.147009637206793" lon="8.15635722130537">
        <ele>2444.8099999999999</ele>
        <time>2019-08-04T10:38:50Z</time>
      </trkpt>
      <trkpt lat="46.147004188969731" lon="8.156361244618893">
        <ele>2445.5500000000002</ele>
        <time>2019-08-04T10:39:04Z</time>
      </trkpt>
      <trkpt lat="46.147004021331668" lon="8.156352862715721">
        <ele>2445.6300000000001</ele>
        <time>2019-08-04T10:39:23Z</time>
      </trkpt>
      <trkpt lat="46.147012403234839" lon="8.156355293467641">
        <ele>2445.5</ele>
        <time>2019-08-04T10:39:38Z</time>
      </trkpt>
      <trkpt lat="46.147021120414138" lon="8.156345067545772">
        <ele>2445.0900000000001</ele>
        <time>2019-08-04T10:39:50Z</time>
      </trkpt>
      <trkpt lat="46.147025814279914" lon="8.15635034814477">
        <ele>2444.6799999999998</ele>
        <time>2019-08-04T10:40:20Z</time>
      </trkpt>
      <trkpt lat="46.147028999403119" lon="8.156350515782833">
        <ele>2445.2199999999998</ele>
        <time>2019-08-04T10:40:37Z</time>
      </trkpt>
      <trkpt lat="46.147029837593436" lon="8.156349677592516">
        <ele>2445.1900000000001</ele>
        <time>2019-08-04T10:40:59Z</time>
      </trkpt>
      <trkpt lat="46.14702564664185" lon="8.156349258497357">
        <ele>2445.23</ele>
        <time>2019-08-04T10:41:17Z</time>
      </trkpt>
      <trkpt lat="46.147012654691935" lon="8.156342385336757">
        <ele>2444.9499999999998</ele>
        <time>2019-08-04T10:41:31Z</time>
      </trkpt>
      <trkpt lat="46.146971415728331" lon="8.156314976513386">
        <ele>2445.3800000000001</ele>
        <time>2019-08-04T10:41:42Z</time>
      </trkpt>
      <trkpt lat="46.146941659972072" lon="8.15629125572741">
        <ele>2445.0300000000002</ele>
        <time>2019-08-04T10:41:54Z</time>
      </trkpt>
      <trkpt lat="46.146936127915978" lon="8.156281113624573">
        <ele>2445.0999999999999</ele>
        <time>2019-08-04T10:42:06Z</time>
      </trkpt>
      <trkpt lat="46.146943503990769" lon="8.156263511627913">
        <ele>2444.8299999999999</ele>
        <time>2019-08-04T10:42:17Z</time>
      </trkpt>
      <trkpt lat="46.146949706599116" lon="8.156253872439265">
        <ele>2445.27</ele>
        <time>2019-08-04T10:42:34Z</time>
      </trkpt>
      <trkpt lat="46.146955573931336" lon="8.156248172745109">
        <ele>2445.1599999999999</ele>
        <time>2019-08-04T10:42:51Z</time>
      </trkpt>
      <trkpt lat="46.146966721862555" lon="8.1561812851578">
        <ele>2443.7399999999998</ele>
        <time>2019-08-04T10:43:03Z</time>
      </trkpt>
      <trkpt lat="46.146934451535344" lon="8.156081289052963">
        <ele>2441</ele>
        <time>2019-08-04T10:43:18Z</time>
      </trkpt>
      <trkpt lat="46.146929422393441" lon="8.156071398407221">
        <ele>2440.9400000000001</ele>
        <time>2019-08-04T10:43:19Z</time>
      </trkpt>
      <trkpt lat="46.146882567554712" lon="8.155978191643953">
        <ele>2438.8600000000001</ele>
        <time>2019-08-04T10:43:30Z</time>
      </trkpt>
      <trkpt lat="46.146868150681257" lon="8.155918596312404">
        <ele>2437.9200000000001</ele>
        <time>2019-08-04T10:43:36Z</time>
      </trkpt>
      <trkpt lat="46.146889105439186" lon="8.155791191384196">
        <ele>2437.3699999999999</ele>
        <time>2019-08-04T10:43:47Z</time>
      </trkpt>
      <trkpt lat="46.146960603073239" lon="8.155742576345801">
        <ele>2435.0599999999999</ele>
        <time>2019-08-04T10:44:01Z</time>
      </trkpt>
      <trkpt lat="46.147040314972401" lon="8.155738385394216">
        <ele>2433.1199999999999</ele>
        <time>2019-08-04T10:44:13Z</time>
      </trkpt>
      <trkpt lat="46.147079626098275" lon="8.155755819752812">
        <ele>2432.27</ele>
        <time>2019-08-04T10:44:25Z</time>
      </trkpt>
      <trkpt lat="46.147132683545351" lon="8.155759507790208">
        <ele>2430.7399999999998</ele>
        <time>2019-08-04T10:44:38Z</time>
      </trkpt>
      <trkpt lat="46.147185740992427" lon="8.155770990997553">
        <ele>2429.6500000000001</ele>
        <time>2019-08-04T10:44:47Z</time>
      </trkpt>
      <trkpt lat="46.147238463163376" lon="8.155788509175181">
        <ele>2429.2399999999998</ele>
        <time>2019-08-04T10:44:58Z</time>
      </trkpt>
      <trkpt lat="46.14732370711863" lon="8.155802423134446">
        <ele>2427.9200000000001</ele>
        <time>2019-08-04T10:45:10Z</time>
      </trkpt>
      <trkpt lat="46.147381542250514" lon="8.155810553580523">
        <ele>2426.8299999999999</ele>
        <time>2019-08-04T10:45:22Z</time>
      </trkpt>
      <trkpt lat="46.147458236664534" lon="8.155861683189869">
        <ele>2424.8099999999999</ele>
        <time>2019-08-04T10:45:34Z</time>
      </trkpt>
      <trkpt lat="46.147489417344332" lon="8.155826143920422">
        <ele>2425.4899999999998</ele>
        <time>2019-08-04T10:45:44Z</time>
      </trkpt>
      <trkpt lat="46.147521268576384" lon="8.155798567458987">
        <ele>2426.6599999999999</ele>
        <time>2019-08-04T10:45:54Z</time>
      </trkpt>
      <trkpt lat="46.14756066352129" lon="8.155724471434951">
        <ele>2428.4400000000001</ele>
        <time>2019-08-04T10:46:06Z</time>
      </trkpt>
      <trkpt lat="46.147572314366698" lon="8.155587008222938">
        <ele>2430.1799999999998</ele>
        <time>2019-08-04T10:46:20Z</time>
      </trkpt>
      <trkpt lat="46.147581031545997" lon="8.155547697097063">
        <ele>2430.6399999999999</ele>
        <time>2019-08-04T10:46:24Z</time>
      </trkpt>
      <trkpt lat="46.147607434540987" lon="8.155459435656667">
        <ele>2431.6700000000001</ele>
        <time>2019-08-04T10:46:37Z</time>
      </trkpt>
      <trkpt lat="46.147641884163022" lon="8.155393972992897">
        <ele>2433.1700000000001</ele>
        <time>2019-08-04T10:46:49Z</time>
      </trkpt>
      <trkpt lat="46.14766619168222" lon="8.155350051820278">
        <ele>2433.46</ele>
        <time>2019-08-04T10:47:01Z</time>
      </trkpt>
      <trkpt lat="46.147678261622787" lon="8.155289450660348">
        <ele>2432.5599999999999</ele>
        <time>2019-08-04T10:47:14Z</time>
      </trkpt>
      <trkpt lat="46.147698629647493" lon="8.155221976339817">
        <ele>2431.5700000000002</ele>
        <time>2019-08-04T10:47:24Z</time>
      </trkpt>
      <trkpt lat="46.14771262742579" lon="8.155149556696415">
        <ele>2430.8400000000001</ele>
        <time>2019-08-04T10:47:35Z</time>
      </trkpt>
      <trkpt lat="46.147735929116607" lon="8.155070431530476">
        <ele>2430.3499999999999</ele>
        <time>2019-08-04T10:47:46Z</time>
      </trkpt>
      <trkpt lat="46.14775906316936" lon="8.154998514801264">
        <ele>2429.9400000000001</ele>
        <time>2019-08-04T10:47:56Z</time>
      </trkpt>
      <trkpt lat="46.147777838632464" lon="8.15494361333549">
        <ele>2431.6399999999999</ele>
        <time>2019-08-04T10:48:03Z</time>
      </trkpt>
      <trkpt lat="46.147798541933298" lon="8.154896590858698">
        <ele>2432.1399999999999</ele>
        <time>2019-08-04T10:48:14Z</time>
      </trkpt>
      <trkpt lat="46.147780772298574" lon="8.154875887557864">
        <ele>2430.8600000000001</ele>
        <time>2019-08-04T10:48:24Z</time>
      </trkpt>
      <trkpt lat="46.147763757035136" lon="8.154813107103109">
        <ele>2428.4299999999998</ele>
        <time>2019-08-04T10:48:34Z</time>
      </trkpt>
      <trkpt lat="46.147746741771698" lon="8.154762145131826">
        <ele>2425.5100000000002</ele>
        <time>2019-08-04T10:48:45Z</time>
      </trkpt>
      <trkpt lat="46.147716818377376" lon="8.154702549800277">
        <ele>2423.5100000000002</ele>
        <time>2019-08-04T10:48:53Z</time>
      </trkpt>
      <trkpt lat="46.147725619375706" lon="8.154649492353201">
        <ele>2422.25</ele>
        <time>2019-08-04T10:48:58Z</time>
      </trkpt>
      <trkpt lat="46.14772972650826" lon="8.154528709128499">
        <ele>2421.71</ele>
        <time>2019-08-04T10:49:09Z</time>
      </trkpt>
      <trkpt lat="46.147749423980713" lon="8.154454529285431">
        <ele>2421.4699999999998</ele>
        <time>2019-08-04T10:49:17Z</time>
      </trkpt>
      <trkpt lat="46.147765768691897" lon="8.15439828671515">
        <ele>2421.04</ele>
        <time>2019-08-04T10:49:22Z</time>
      </trkpt>
      <trkpt lat="46.147813629359007" lon="8.154238946735859">
        <ele>2418.9000000000001</ele>
        <time>2019-08-04T10:49:36Z</time>
      </trkpt>
      <trkpt lat="46.147862495854497" lon="8.154176082462072">
        <ele>2417.4400000000001</ele>
        <time>2019-08-04T10:49:48Z</time>
      </trkpt>
      <trkpt lat="46.147874817252159" lon="8.154157558456063">
        <ele>2416.3000000000002</ele>
        <time>2019-08-04T10:49:56Z</time>
      </trkpt>
      <trkpt lat="46.147864926606417" lon="8.154081702232361">
        <ele>2413.9899999999998</ele>
        <time>2019-08-04T10:50:07Z</time>
      </trkpt>
      <trkpt lat="46.147841792553663" lon="8.154045240953565">
        <ele>2411.7199999999998</ele>
        <time>2019-08-04T10:50:16Z</time>
      </trkpt>
      <trkpt lat="46.147797536104918" lon="8.153979443013668">
        <ele>2409.2600000000002</ele>
        <time>2019-08-04T10:50:26Z</time>
      </trkpt>
      <trkpt lat="46.147730899974704" lon="8.153939712792635">
        <ele>2407.8099999999999</ele>
        <time>2019-08-04T10:50:37Z</time>
      </trkpt>
      <trkpt lat="46.147683542221785" lon="8.153895623981953">
        <ele>2405.8699999999999</ele>
        <time>2019-08-04T10:50:47Z</time>
      </trkpt>
      <trkpt lat="46.147632664069533" lon="8.153840554878116">
        <ele>2402.9899999999998</ele>
        <time>2019-08-04T10:50:58Z</time>
      </trkpt>
      <trkpt lat="46.147571140900254" lon="8.153772493824363">
        <ele>2400.4899999999998</ele>
        <time>2019-08-04T10:51:09Z</time>
      </trkpt>
      <trkpt lat="46.147538032382727" lon="8.153683226555586">
        <ele>2398.9400000000001</ele>
        <time>2019-08-04T10:51:19Z</time>
      </trkpt>
      <trkpt lat="46.147520178928971" lon="8.153631761670113">
        <ele>2397.96</ele>
        <time>2019-08-04T10:51:24Z</time>
      </trkpt>
      <trkpt lat="46.147465780377388" lon="8.153497902676463">
        <ele>2396.4499999999998</ele>
        <time>2019-08-04T10:51:34Z</time>
      </trkpt>
      <trkpt lat="46.147373579442501" lon="8.153327330946922">
        <ele>2395.3299999999999</ele>
        <time>2019-08-04T10:51:50Z</time>
      </trkpt>
      <trkpt lat="46.147294035181403" lon="8.153157513588667">
        <ele>2393.4899999999998</ele>
        <time>2019-08-04T10:52:05Z</time>
      </trkpt>
      <trkpt lat="46.147206109017134" lon="8.153062043711543">
        <ele>2391.9899999999998</ele>
        <time>2019-08-04T10:52:19Z</time>
      </trkpt>
      <trkpt lat="46.147141987457871" lon="8.153018709272146">
        <ele>2388.9299999999998</ele>
        <time>2019-08-04T10:52:31Z</time>
      </trkpt>
      <trkpt lat="46.147045260295272" lon="8.152951234951615">
        <ele>2386.6399999999999</ele>
        <time>2019-08-04T10:52:43Z</time>
      </trkpt>
      <trkpt lat="46.146971415728331" lon="8.152861716225743">
        <ele>2385.1399999999999</ele>
        <time>2019-08-04T10:52:54Z</time>
      </trkpt>
      <trkpt lat="46.146963452920318" lon="8.152842605486512">
        <ele>2385.4400000000001</ele>
        <time>2019-08-04T10:53:07Z</time>
      </trkpt>
      <trkpt lat="46.146960519254208" lon="8.152819387614727">
        <ele>2384.9299999999998</ele>
        <time>2019-08-04T10:53:09Z</time>
      </trkpt>
      <trkpt lat="46.146973930299282" lon="8.152674967423081">
        <ele>2382.54</ele>
        <time>2019-08-04T10:53:23Z</time>
      </trkpt>
      <trkpt lat="46.147021288052201" lon="8.152569774538279">
        <ele>2380.8600000000001</ele>
        <time>2019-08-04T10:53:34Z</time>
      </trkpt>
      <trkpt lat="46.147059258073568" lon="8.152470700442791">
        <ele>2378.1900000000001</ele>
        <time>2019-08-04T10:53:44Z</time>
      </trkpt>
      <trkpt lat="46.147061018273234" lon="8.152423426508904">
        <ele>2376.9899999999998</ele>
        <time>2019-08-04T10:53:48Z</time>
      </trkpt>
      <trkpt lat="46.147075099870563" lon="8.152364417910576">
        <ele>2375.8800000000001</ele>
        <time>2019-08-04T10:53:53Z</time>
      </trkpt>
      <trkpt lat="46.147065376862884" lon="8.152314545586705">
        <ele>2374.5500000000002</ele>
        <time>2019-08-04T10:53:57Z</time>
      </trkpt>
      <trkpt lat="46.146993627771735" lon="8.152267355471849">
        <ele>2371.3299999999999</ele>
        <time>2019-08-04T10:54:09Z</time>
      </trkpt>
      <trkpt lat="46.146938307210803" lon="8.152251932770014">
        <ele>2369.21</ele>
        <time>2019-08-04T10:54:20Z</time>
      </trkpt>
      <trkpt lat="46.146871587261558" lon="8.152229888364673">
        <ele>2366.3899999999999</ele>
        <time>2019-08-04T10:54:31Z</time>
      </trkpt>
      <trkpt lat="46.146808639168739" lon="8.152198288589716">
        <ele>2363.5799999999999</ele>
        <time>2019-08-04T10:54:42Z</time>
      </trkpt>
      <trkpt lat="46.146792965009809" lon="8.152194768190384">
        <ele>2363.3099999999999</ele>
        <time>2019-08-04T10:54:44Z</time>
      </trkpt>
      <trkpt lat="46.146709397435188" lon="8.152121845632792">
        <ele>2359.9699999999998</ele>
        <time>2019-08-04T10:54:57Z</time>
      </trkpt>
      <trkpt lat="46.146661536768079" lon="8.152086725458503">
        <ele>2358.2399999999998</ele>
        <time>2019-08-04T10:55:04Z</time>
      </trkpt>
      <trkpt lat="46.146670673042536" lon="8.152016485109925">
        <ele>2358.4299999999998</ele>
        <time>2019-08-04T10:55:09Z</time>
      </trkpt>
      <trkpt lat="46.146657513454556" lon="8.151817414909601">
        <ele>2356.8600000000001</ele>
        <time>2019-08-04T10:55:21Z</time>
      </trkpt>
      <trkpt lat="46.14663178101182" lon="8.15177190117538">
        <ele>2356.4499999999998</ele>
        <time>2019-08-04T10:55:25Z</time>
      </trkpt>
      <trkpt lat="46.14654041826725" lon="8.151594875380397">
        <ele>2355.7399999999998</ele>
        <time>2019-08-04T10:55:40Z</time>
      </trkpt>
      <trkpt lat="46.146533461287618" lon="8.15158867277205">
        <ele>2355.4699999999998</ele>
        <time>2019-08-04T10:55:41Z</time>
      </trkpt>
      <trkpt lat="46.146492473781109" lon="8.15154081210494">
        <ele>2354.8899999999999</ele>
        <time>2019-08-04T10:55:47Z</time>
      </trkpt>
      <trkpt lat="46.146421898156404" lon="8.151558497920632">
        <ele>2351.48</ele>
        <time>2019-08-04T10:55:58Z</time>
      </trkpt>
      <trkpt lat="46.146365739405155" lon="8.151602502912283">
        <ele>2348.1399999999999</ele>
        <time>2019-08-04T10:56:07Z</time>
      </trkpt>
      <trkpt lat="46.146358614787459" lon="8.151602670550346">
        <ele>2347.8000000000002</ele>
        <time>2019-08-04T10:56:08Z</time>
      </trkpt>
      <trkpt lat="46.146306060254574" lon="8.151590181514621">
        <ele>2346.0300000000002</ele>
        <time>2019-08-04T10:56:13Z</time>
      </trkpt>
      <trkpt lat="46.146226851269603" lon="8.151557324454188">
        <ele>2344.5100000000002</ele>
        <time>2019-08-04T10:56:24Z</time>
      </trkpt>
      <trkpt lat="46.146188713610172" lon="8.151407288387418">
        <ele>2341.7199999999998</ele>
        <time>2019-08-04T10:56:37Z</time>
      </trkpt>
      <trkpt lat="46.146175637841225" lon="8.151402259245515">
        <ele>2341.27</ele>
        <time>2019-08-04T10:56:40Z</time>
      </trkpt>
      <trkpt lat="46.14614462479949" lon="8.151398403570056">
        <ele>2339.7600000000002</ele>
        <time>2019-08-04T10:56:44Z</time>
      </trkpt>
      <trkpt lat="46.146102966740727" lon="8.151320954784751">
        <ele>2337.1599999999999</ele>
        <time>2019-08-04T10:56:52Z</time>
      </trkpt>
      <trkpt lat="46.146086119115353" lon="8.151181060820818">
        <ele>2335.7600000000002</ele>
        <time>2019-08-04T10:57:01Z</time>
      </trkpt>
      <trkpt lat="46.146100452169776" lon="8.151036556810141">
        <ele>2335.8400000000001</ele>
        <time>2019-08-04T10:57:12Z</time>
      </trkpt>
      <trkpt lat="46.146151665598154" lon="8.150923317298293">
        <ele>2336.4400000000001</ele>
        <time>2019-08-04T10:57:23Z</time>
      </trkpt>
      <trkpt lat="46.146156527101994" lon="8.150919713079929">
        <ele>2336.9299999999998</ele>
        <time>2019-08-04T10:57:35Z</time>
      </trkpt>
      <trkpt lat="46.146148648113012" lon="8.150916025042534">
        <ele>2336.8000000000002</ele>
        <time>2019-08-04T10:58:08Z</time>
      </trkpt>
      <trkpt lat="46.146149402484298" lon="8.150900350883603">
        <ele>2328.4699999999998</ele>
        <time>2019-08-04T10:58:10Z</time>
      </trkpt>
      <trkpt lat="46.146149570122361" lon="8.150889035314322">
        <ele>2334.1999999999998</ele>
        <time>2019-08-04T10:58:11Z</time>
      </trkpt>
      <trkpt lat="46.146149067208171" lon="8.150878390297294">
        <ele>2337.1999999999998</ele>
        <time>2019-08-04T10:58:12Z</time>
      </trkpt>
      <trkpt lat="46.146148480474949" lon="8.150868583470583">
        <ele>2337.21</ele>
        <time>2019-08-04T10:58:13Z</time>
      </trkpt>
      <trkpt lat="46.146142780780792" lon="8.150847377255559">
        <ele>2337.9699999999998</ele>
        <time>2019-08-04T10:58:15Z</time>
      </trkpt>
      <trkpt lat="46.146132471039891" lon="8.150823656469584">
        <ele>2337.77</ele>
        <time>2019-08-04T10:58:17Z</time>
      </trkpt>
      <trkpt lat="46.146115707233548" lon="8.150773448869586">
        <ele>2334.9000000000001</ele>
        <time>2019-08-04T10:58:21Z</time>
      </trkpt>
      <trkpt lat="46.146114869043231" lon="8.150751572102308">
        <ele>2334.5799999999999</ele>
        <time>2019-08-04T10:58:23Z</time>
      </trkpt>
      <trkpt lat="46.146098859608173" lon="8.150690635666251">
        <ele>2335.1799999999998</ele>
        <time>2019-08-04T10:58:29Z</time>
      </trkpt>
      <trkpt lat="46.14610942080617" lon="8.150546969845891">
        <ele>2335.1199999999999</ele>
        <time>2019-08-04T10:58:39Z</time>
      </trkpt>
      <trkpt lat="46.146130878478289" lon="8.150439849123359">
        <ele>2335.2399999999998</ele>
        <time>2019-08-04T10:58:51Z</time>
      </trkpt>
      <trkpt lat="46.146127609536052" lon="8.15044772811234">
        <ele>2334.3699999999999</ele>
        <time>2019-08-04T10:59:10Z</time>
      </trkpt>
      <trkpt lat="46.146124172955751" lon="8.150491481646895">
        <ele>2334.6799999999998</ele>
        <time>2019-08-04T10:59:14Z</time>
      </trkpt>
      <trkpt lat="46.146101709455252" lon="8.150550154969096">
        <ele>2334.71</ele>
        <time>2019-08-04T10:59:18Z</time>
      </trkpt>
      <trkpt lat="46.146081676706672" lon="8.150604637339711">
        <ele>2334.75</ele>
        <time>2019-08-04T10:59:22Z</time>
      </trkpt>
      <trkpt lat="46.145974639803171" lon="8.150723995640874">
        <ele>2334.5999999999999</ele>
        <time>2019-08-04T10:59:35Z</time>
      </trkpt>
      <trkpt lat="46.145935412496328" lon="8.15074629150331">
        <ele>2333.9699999999998</ele>
        <time>2019-08-04T10:59:39Z</time>
      </trkpt>
      <trkpt lat="46.145851509645581" lon="8.150834469124675">
        <ele>2332.7399999999998</ele>
        <time>2019-08-04T10:59:50Z</time>
      </trkpt>
      <trkpt lat="46.145833320915699" lon="8.150890124961734">
        <ele>2331.5799999999999</ele>
        <time>2019-08-04T10:59:59Z</time>
      </trkpt>
      <trkpt lat="46.145803229883313" lon="8.15091828815639">
        <ele>2329.8299999999999</ele>
        <time>2019-08-04T11:00:04Z</time>
      </trkpt>
      <trkpt lat="46.145751429721713" lon="8.151033958420157">
        <ele>2328.1700000000001</ele>
        <time>2019-08-04T11:00:16Z</time>
      </trkpt>
      <trkpt lat="46.145707676187158" lon="8.151084501296282">
        <ele>2325.8200000000002</ele>
        <time>2019-08-04T11:00:26Z</time>
      </trkpt>
      <trkpt lat="46.145691499114037" lon="8.151110149919987">
        <ele>2323.8299999999999</ele>
        <time>2019-08-04T11:00:39Z</time>
      </trkpt>
      <trkpt lat="46.145648583769798" lon="8.151159686967731">
        <ele>2321.3000000000002</ele>
        <time>2019-08-04T11:00:49Z</time>
      </trkpt>
      <trkpt lat="46.145613379776478" lon="8.151217438280582">
        <ele>2319.71</ele>
        <time>2019-08-04T11:00:56Z</time>
      </trkpt>
      <trkpt lat="46.145559316501021" lon="8.151309471577406">
        <ele>2317.8200000000002</ele>
        <time>2019-08-04T11:01:06Z</time>
      </trkpt>
      <trkpt lat="46.145549174398184" lon="8.15132481046021">
        <ele>2317.1100000000001</ele>
        <time>2019-08-04T11:01:08Z</time>
      </trkpt>
      <trkpt lat="46.145523274317384" lon="8.151350291445851">
        <ele>2316.1700000000001</ele>
        <time>2019-08-04T11:01:11Z</time>
      </trkpt>
      <trkpt lat="46.145415566861629" lon="8.151316260918975">
        <ele>2317.3200000000002</ele>
        <time>2019-08-04T11:01:24Z</time>
      </trkpt>
      <trkpt lat="46.145405508577824" lon="8.151296731084585">
        <ele>2317.3299999999999</ele>
        <time>2019-08-04T11:01:26Z</time>
      </trkpt>
      <trkpt lat="46.145381536334753" lon="8.15117284655571">
        <ele>2317.27</ele>
        <time>2019-08-04T11:01:38Z</time>
      </trkpt>
      <trkpt lat="46.145318001508713" lon="8.151052985340357">
        <ele>2314.5700000000002</ele>
        <time>2019-08-04T11:01:52Z</time>
      </trkpt>
      <trkpt lat="46.145302997902036" lon="8.150955755263567">
        <ele>2314.6500000000001</ele>
        <time>2019-08-04T11:02:03Z</time>
      </trkpt>
      <trkpt lat="46.145308027043939" lon="8.150944355875254">
        <ele>2314.6799999999998</ele>
        <time>2019-08-04T11:02:05Z</time>
      </trkpt>
      <trkpt lat="46.145318588241935" lon="8.150862799957395">
        <ele>2315.1500000000001</ele>
        <time>2019-08-04T11:02:17Z</time>
      </trkpt>
      <trkpt lat="46.145320180803537" lon="8.150863219052553">
        <ele>2315.0100000000002</ele>
        <time>2019-08-04T11:02:38Z</time>
      </trkpt>
      <trkpt lat="46.145323114469647" lon="8.150874534621835">
        <ele>2314.0700000000002</ele>
        <time>2019-08-04T11:02:50Z</time>
      </trkpt>
      <trkpt lat="46.145320013165474" lon="8.150878977030516">
        <ele>2314.4400000000001</ele>
        <time>2019-08-04T11:03:10Z</time>
      </trkpt>
      <trkpt lat="46.145320767536759" lon="8.150869673117995">
        <ele>2314.8299999999999</ele>
        <time>2019-08-04T11:03:24Z</time>
      </trkpt>
      <trkpt lat="46.145324036478996" lon="8.150871684774756">
        <ele>2314.5</ele>
        <time>2019-08-04T11:03:40Z</time>
      </trkpt>
      <trkpt lat="46.145334346219897" lon="8.150902278721333">
        <ele>2314.8899999999999</ele>
        <time>2019-08-04T11:03:49Z</time>
      </trkpt>
      <trkpt lat="46.145334178581834" lon="8.150925412774086">
        <ele>2314.3600000000001</ele>
        <time>2019-08-04T11:03:52Z</time>
      </trkpt>
      <trkpt lat="46.145304339006543" lon="8.151062289252877">
        <ele>2314.1700000000001</ele>
        <time>2019-08-04T11:04:04Z</time>
      </trkpt>
      <trkpt lat="46.145295035094023" lon="8.151128925383091">
        <ele>2314.29</ele>
        <time>2019-08-04T11:04:15Z</time>
      </trkpt>
      <trkpt lat="46.145301908254623" lon="8.151126997545362">
        <ele>2314</ele>
        <time>2019-08-04T11:04:35Z</time>
      </trkpt>
      <trkpt lat="46.145282378420234" lon="8.151152143254876">
        <ele>2314.27</ele>
        <time>2019-08-04T11:05:01Z</time>
      </trkpt>
      <trkpt lat="46.145288832485676" lon="8.151157507672906">
        <ele>2314.3600000000001</ele>
        <time>2019-08-04T11:05:25Z</time>
      </trkpt>
      <trkpt lat="46.14528464153409" lon="8.151161866262555">
        <ele>2314.0100000000002</ele>
        <time>2019-08-04T11:05:49Z</time>
      </trkpt>
      <trkpt lat="46.145281037315726" lon="8.151151556521654">
        <ele>2313.9699999999998</ele>
        <time>2019-08-04T11:06:09Z</time>
      </trkpt>
      <trkpt lat="46.14527877420187" lon="8.151153987273574">
        <ele>2313.7800000000002</ele>
        <time>2019-08-04T11:06:28Z</time>
      </trkpt>
      <trkpt lat="46.145280031487346" lon="8.151156166568399">
        <ele>2314.1999999999998</ele>
        <time>2019-08-04T11:06:52Z</time>
      </trkpt>
      <trkpt lat="46.145276091992855" lon="8.151108305901289">
        <ele>2313.7399999999998</ele>
        <time>2019-08-04T11:07:09Z</time>
      </trkpt>
      <trkpt lat="46.145230829715729" lon="8.15100034698844">
        <ele>2311.4299999999998</ele>
        <time>2019-08-04T11:07:21Z</time>
      </trkpt>
      <trkpt lat="46.14518933929503" lon="8.150928346440196">
        <ele>2309.4899999999998</ele>
        <time>2019-08-04T11:07:33Z</time>
      </trkpt>
      <trkpt lat="46.145163858309388" lon="8.150862967595458">
        <ele>2308.0300000000002</ele>
        <time>2019-08-04T11:07:44Z</time>
      </trkpt>
      <trkpt lat="46.145120020955801" lon="8.150829691439867">
        <ele>2307.3899999999999</ele>
        <time>2019-08-04T11:07:55Z</time>
      </trkpt>
      <trkpt lat="46.145067382603884" lon="8.150816196575761">
        <ele>2308.9000000000001</ele>
        <time>2019-08-04T11:08:07Z</time>
      </trkpt>
      <trkpt lat="46.145051792263985" lon="8.150797337293625">
        <ele>2308.1999999999998</ele>
        <time>2019-08-04T11:08:19Z</time>
      </trkpt>
      <trkpt lat="46.145047936588526" lon="8.150795409455895">
        <ele>2308.0700000000002</ele>
        <time>2019-08-04T11:08:24Z</time>
      </trkpt>
      <trkpt lat="46.144987000152469" lon="8.150761127471924">
        <ele>2306.4899999999998</ele>
        <time>2019-08-04T11:08:37Z</time>
      </trkpt>
      <trkpt lat="46.14494944922626" lon="8.150700107216835">
        <ele>2304.3299999999999</ele>
        <time>2019-08-04T11:08:50Z</time>
      </trkpt>
      <trkpt lat="46.144921872764826" lon="8.150677643716335">
        <ele>2303.1399999999999</ele>
        <time>2019-08-04T11:09:01Z</time>
      </trkpt>
      <trkpt lat="46.144885830581188" lon="8.150652833282948">
        <ele>2301.1999999999998</ele>
        <time>2019-08-04T11:09:13Z</time>
      </trkpt>
      <trkpt lat="46.144828666001558" lon="8.150644535198808">
        <ele>2300.0900000000001</ele>
        <time>2019-08-04T11:09:25Z</time>
      </trkpt>
      <trkpt lat="46.144784241914749" lon="8.150616623461247">
        <ele>2297.9499999999998</ele>
        <time>2019-08-04T11:09:37Z</time>
      </trkpt>
      <trkpt lat="46.144738141447306" lon="8.150600865483284">
        <ele>2297.8899999999999</ele>
        <time>2019-08-04T11:09:49Z</time>
      </trkpt>
      <trkpt lat="46.144672008231282" lon="8.150577060878277">
        <ele>2296.21</ele>
        <time>2019-08-04T11:10:03Z</time>
      </trkpt>
      <trkpt lat="46.144646946340799" lon="8.150549484416843">
        <ele>2295.4000000000001</ele>
        <time>2019-08-04T11:10:12Z</time>
      </trkpt>
      <trkpt lat="46.144612329080701" lon="8.150520650669932">
        <ele>2294.8099999999999</ele>
        <time>2019-08-04T11:10:22Z</time>
      </trkpt>
      <trkpt lat="46.144557343795896" lon="8.150496510788798">
        <ele>2294.2399999999998</ele>
        <time>2019-08-04T11:10:33Z</time>
      </trkpt>
      <trkpt lat="46.144531946629286" lon="8.15045552328229">
        <ele>2292.6700000000001</ele>
        <time>2019-08-04T11:10:42Z</time>
      </trkpt>
      <trkpt lat="46.144501268863678" lon="8.150437166914344">
        <ele>2291.46</ele>
        <time>2019-08-04T11:10:56Z</time>
      </trkpt>
      <trkpt lat="46.144474865868688" lon="8.150414284318686">
        <ele>2290.7399999999998</ele>
        <time>2019-08-04T11:11:07Z</time>
      </trkpt>
      <trkpt lat="46.144455000758171" lon="8.150399113073945">
        <ele>2289.98</ele>
        <time>2019-08-04T11:11:20Z</time>
      </trkpt>
      <trkpt lat="46.144448965787888" lon="8.150379164144397">
        <ele>2289.1199999999999</ele>
        <time>2019-08-04T11:11:33Z</time>
      </trkpt>
      <trkpt lat="46.144453743472695" lon="8.150358125567436">
        <ele>2288.3000000000002</ele>
        <time>2019-08-04T11:11:44Z</time>
      </trkpt>
      <trkpt lat="46.144457012414932" lon="8.150339853018522">
        <ele>2287.0999999999999</ele>
        <time>2019-08-04T11:11:54Z</time>
      </trkpt>
      <trkpt lat="46.144485929980874" lon="8.15031579695642">
        <ele>2285.8600000000001</ele>
        <time>2019-08-04T11:12:05Z</time>
      </trkpt>
      <trkpt lat="46.14451308734715" lon="8.15031822770834">
        <ele>2284.7600000000002</ele>
        <time>2019-08-04T11:12:17Z</time>
      </trkpt>
      <trkpt lat="46.144523648545146" lon="8.150299284607172">
        <ele>2283.79</ele>
        <time>2019-08-04T11:12:28Z</time>
      </trkpt>
      <trkpt lat="46.144531108438969" lon="8.150281514972448">
        <ele>2282.27</ele>
        <time>2019-08-04T11:12:38Z</time>
      </trkpt>
      <trkpt lat="46.144516691565514" lon="8.150267098098993">
        <ele>2280.9899999999998</ele>
        <time>2019-08-04T11:12:51Z</time>
      </trkpt>
      <trkpt lat="46.144489198923111" lon="8.150233570486307">
        <ele>2279.6900000000001</ele>
        <time>2019-08-04T11:13:00Z</time>
      </trkpt>
      <trkpt lat="46.144474362954497" lon="8.150223176926374">
        <ele>2276.5799999999999</ele>
        <time>2019-08-04T11:13:14Z</time>
      </trkpt>
      <trkpt lat="46.144474865868688" lon="8.150221919640899">
        <ele>2280.9400000000001</ele>
        <time>2019-08-04T11:13:15Z</time>
      </trkpt>
      <trkpt lat="46.144475368782878" lon="8.150220913812518">
        <ele>2280.4699999999998</ele>
        <time>2019-08-04T11:13:16Z</time>
      </trkpt>
      <trkpt lat="46.144460616633296" lon="8.150231726467609">
        <ele>2279.2800000000002</ele>
        <time>2019-08-04T11:13:36Z</time>
      </trkpt>
      <trkpt lat="46.14446128718555" lon="8.150223847478628">
        <ele>2278.79</ele>
        <time>2019-08-04T11:13:57Z</time>
      </trkpt>
      <trkpt lat="46.144445696845651" lon="8.150203311815858">
        <ele>2278.3600000000001</ele>
        <time>2019-08-04T11:14:09Z</time>
      </trkpt>
      <trkpt lat="46.144440416246653" lon="8.150173807516694">
        <ele>2277.48</ele>
        <time>2019-08-04T11:14:21Z</time>
      </trkpt>
      <trkpt lat="46.144424993544817" lon="8.150140950456262">
        <ele>2276.8699999999999</ele>
        <time>2019-08-04T11:14:36Z</time>
      </trkpt>
      <trkpt lat="46.144421976059675" lon="8.150139693170786">
        <ele>2276.1300000000001</ele>
        <time>2019-08-04T11:14:52Z</time>
      </trkpt>
      <trkpt lat="46.144416527822614" lon="8.150141034275293">
        <ele>2275.48</ele>
        <time>2019-08-04T11:15:08Z</time>
      </trkpt>
      <trkpt lat="46.144404793158174" lon="8.150084372609854">
        <ele>2273.7399999999998</ele>
        <time>2019-08-04T11:15:21Z</time>
      </trkpt>
      <trkpt lat="46.144402865320444" lon="8.150058723986149">
        <ele>2273.1300000000001</ele>
        <time>2019-08-04T11:15:33Z</time>
      </trkpt>
      <trkpt lat="46.144391801208258" lon="8.150015221908689">
        <ele>2271.3000000000002</ele>
        <time>2019-08-04T11:15:43Z</time>
      </trkpt>
      <trkpt lat="46.144382078200579" lon="8.149986891075969">
        <ele>2269.8800000000001</ele>
        <time>2019-08-04T11:15:57Z</time>
      </trkpt>
      <trkpt lat="46.144389370456338" lon="8.149968786165118">
        <ele>2269.02</ele>
        <time>2019-08-04T11:16:14Z</time>
      </trkpt>
      <trkpt lat="46.144379815086722" lon="8.149936012923718">
        <ele>2267.4699999999998</ele>
        <time>2019-08-04T11:16:28Z</time>
      </trkpt>
      <trkpt lat="46.144376546144485" lon="8.149926541373134">
        <ele>2267.1500000000001</ele>
        <time>2019-08-04T11:16:40Z</time>
      </trkpt>
      <trkpt lat="46.144388616085052" lon="8.149892091751099">
        <ele>2265.8099999999999</ele>
        <time>2019-08-04T11:16:51Z</time>
      </trkpt>
      <trkpt lat="46.14438945427537" lon="8.149881111457944">
        <ele>2265.5</ele>
        <time>2019-08-04T11:17:05Z</time>
      </trkpt>
      <trkpt lat="46.144384006038308" lon="8.149856217205524">
        <ele>2264.2199999999998</ele>
        <time>2019-08-04T11:17:17Z</time>
      </trkpt>
      <trkpt lat="46.144386939704418" lon="8.149836603552103">
        <ele>2263.0300000000002</ele>
        <time>2019-08-04T11:17:26Z</time>
      </trkpt>
      <trkpt lat="46.144378976896405" lon="8.149818833917379">
        <ele>2261.48</ele>
        <time>2019-08-04T11:17:39Z</time>
      </trkpt>
      <trkpt lat="46.144358608871698" lon="8.149800393730402">
        <ele>2260.8400000000001</ele>
        <time>2019-08-04T11:17:50Z</time>
      </trkpt>
      <trkpt lat="46.144349472597241" lon="8.149759406223893">
        <ele>2259.54</ele>
        <time>2019-08-04T11:17:58Z</time>
      </trkpt>
      <trkpt lat="46.144359279423952" lon="8.14974021166563">
        <ele>2258.1199999999999</ele>
        <time>2019-08-04T11:18:09Z</time>
      </trkpt>
      <trkpt lat="46.144374366849661" lon="8.149726549163461">
        <ele>2257.4899999999998</ele>
        <time>2019-08-04T11:18:20Z</time>
      </trkpt>
      <trkpt lat="46.144374366849661" lon="8.149709785357118">
        <ele>2256.5900000000001</ele>
        <time>2019-08-04T11:18:30Z</time>
      </trkpt>
      <trkpt lat="46.144391382113099" lon="8.149678269401193">
        <ele>2255.23</ele>
        <time>2019-08-04T11:18:40Z</time>
      </trkpt>
      <trkpt lat="46.144382413476706" lon="8.149649016559124">
        <ele>2254.0300000000002</ele>
        <time>2019-08-04T11:18:49Z</time>
      </trkpt>
      <trkpt lat="46.144392304122448" lon="8.149616746231914">
        <ele>2253.9200000000001</ele>
        <time>2019-08-04T11:18:58Z</time>
      </trkpt>
      <trkpt lat="46.144402362406254" lon="8.14958238042891">
        <ele>2253.1500000000001</ele>
        <time>2019-08-04T11:19:07Z</time>
      </trkpt>
      <trkpt lat="46.144401608034968" lon="8.149573998525739">
        <ele>2253.02</ele>
        <time>2019-08-04T11:19:23Z</time>
      </trkpt>
      <trkpt lat="46.144415521994233" lon="8.14955547451973">
        <ele>2252.6100000000001</ele>
        <time>2019-08-04T11:19:42Z</time>
      </trkpt>
      <trkpt lat="46.144434381276369" lon="8.149512810632587">
        <ele>2251.6799999999998</ele>
        <time>2019-08-04T11:19:52Z</time>
      </trkpt>
      <trkpt lat="46.144450809806585" lon="8.149493029341102">
        <ele>2251.3000000000002</ele>
        <time>2019-08-04T11:20:01Z</time>
      </trkpt>
      <trkpt lat="46.14448425360024" lon="8.149452293291688">
        <ele>2250.7199999999998</ele>
        <time>2019-08-04T11:20:10Z</time>
      </trkpt>
      <trkpt lat="46.144497748464346" lon="8.149409713223577">
        <ele>2250.1799999999998</ele>
        <time>2019-08-04T11:20:18Z</time>
      </trkpt>
      <trkpt lat="46.144516272470355" lon="8.149339808151126">
        <ele>2250.2600000000002</ele>
        <time>2019-08-04T11:20:29Z</time>
      </trkpt>
      <trkpt lat="46.14454778842628" lon="8.149349112063646">
        <ele>2249.4200000000001</ele>
        <time>2019-08-04T11:20:38Z</time>
      </trkpt>
      <trkpt lat="46.144562624394894" lon="8.149334359914064">
        <ele>2249.1500000000001</ele>
        <time>2019-08-04T11:20:59Z</time>
      </trkpt>
      <trkpt lat="46.144603360444307" lon="8.149279877543449">
        <ele>2248.3200000000002</ele>
        <time>2019-08-04T11:21:09Z</time>
      </trkpt>
      <trkpt lat="46.144649209454656" lon="8.149189772084355">
        <ele>2246.3400000000001</ele>
        <time>2019-08-04T11:21:21Z</time>
      </trkpt>
      <trkpt lat="46.144702350720763" lon="8.149089105427265">
        <ele>2244.5599999999999</ele>
        <time>2019-08-04T11:21:33Z</time>
      </trkpt>
      <trkpt lat="46.144738560542464" lon="8.149002604186535">
        <ele>2242.29</ele>
        <time>2019-08-04T11:21:43Z</time>
      </trkpt>
      <trkpt lat="46.144763370975852" lon="8.148882491514087">
        <ele>2240.6700000000001</ele>
        <time>2019-08-04T11:21:55Z</time>
      </trkpt>
      <trkpt lat="46.144785163924098" lon="8.1487643904984">
        <ele>2239.7800000000002</ele>
        <time>2019-08-04T11:22:08Z</time>
      </trkpt>
      <trkpt lat="46.144784828647971" lon="8.148715440183878">
        <ele>2239.6799999999998</ele>
        <time>2019-08-04T11:22:17Z</time>
      </trkpt>
      <trkpt lat="46.144777033478022" lon="8.148677805438638">
        <ele>2239.9299999999998</ele>
        <time>2019-08-04T11:22:28Z</time>
      </trkpt>
      <trkpt lat="46.144744092598557" lon="8.148624496534467">
        <ele>2240.6599999999999</ele>
        <time>2019-08-04T11:22:39Z</time>
      </trkpt>
      <trkpt lat="46.144747948274016" lon="8.148597339168191">
        <ele>2240.3299999999999</ele>
        <time>2019-08-04T11:22:48Z</time>
      </trkpt>
      <trkpt lat="46.144761107861996" lon="8.148526763543487">
        <ele>2240.02</ele>
        <time>2019-08-04T11:22:58Z</time>
      </trkpt>
      <trkpt lat="46.144755994901061" lon="8.148472113534808">
        <ele>2240.3499999999999</ele>
        <time>2019-08-04T11:23:06Z</time>
      </trkpt>
      <trkpt lat="46.144747948274016" lon="8.148467252030969">
        <ele>2240.1999999999998</ele>
        <time>2019-08-04T11:23:19Z</time>
      </trkpt>
      <trkpt lat="46.144750462844968" lon="8.148459875956178">
        <ele>2239.4200000000001</ele>
        <time>2019-08-04T11:23:31Z</time>
      </trkpt>
      <trkpt lat="46.144748367369175" lon="8.148460797965527">
        <ele>2239.1300000000001</ele>
        <time>2019-08-04T11:23:59Z</time>
      </trkpt>
      <trkpt lat="46.144759012386203" lon="8.148466916754842">
        <ele>2239.0599999999999</ele>
        <time>2019-08-04T11:24:27Z</time>
      </trkpt>
      <trkpt lat="46.1447574198246" lon="8.148467503488064">
        <ele>2238.5799999999999</ele>
        <time>2019-08-04T11:24:51Z</time>
      </trkpt>
      <trkpt lat="46.144758258014917" lon="8.148473957553506">
        <ele>2238.7600000000002</ele>
        <time>2019-08-04T11:25:13Z</time>
      </trkpt>
      <trkpt lat="46.144763957709074" lon="8.148473203182221">
        <ele>2239.4099999999999</ele>
        <time>2019-08-04T11:25:56Z</time>
      </trkpt>
      <trkpt lat="46.144773680716753" lon="8.148458953946829">
        <ele>2239.6599999999999</ele>
        <time>2019-08-04T11:26:17Z</time>
      </trkpt>
      <trkpt lat="46.144765466451645" lon="8.148496253415942">
        <ele>2239.5</ele>
        <time>2019-08-04T11:26:33Z</time>
      </trkpt>
      <trkpt lat="46.144755408167839" lon="8.148506311699748">
        <ele>2239.21</ele>
        <time>2019-08-04T11:26:40Z</time>
      </trkpt>
      <trkpt lat="46.144711906090379" lon="8.148468844592571">
        <ele>2239.1700000000001</ele>
        <time>2019-08-04T11:26:52Z</time>
      </trkpt>
      <trkpt lat="46.144683994352818" lon="8.148434646427631">
        <ele>2239.6100000000001</ele>
        <time>2019-08-04T11:27:02Z</time>
      </trkpt>
      <trkpt lat="46.144661279395223" lon="8.148395754396915">
        <ele>2239.6900000000001</ele>
        <time>2019-08-04T11:27:11Z</time>
      </trkpt>
      <trkpt lat="46.144644012674689" lon="8.148370776325464">
        <ele>2239.6799999999998</ele>
        <time>2019-08-04T11:27:20Z</time>
      </trkpt>
      <trkpt lat="46.14462154917419" lon="8.148323502391577">
        <ele>2239.3000000000002</ele>
        <time>2019-08-04T11:27:31Z</time>
      </trkpt>
      <trkpt lat="46.144609646871686" lon="8.148272205144167">
        <ele>2239</ele>
        <time>2019-08-04T11:27:43Z</time>
      </trkpt>
      <trkpt lat="46.144579220563173" lon="8.148217974230647">
        <ele>2238.8800000000001</ele>
        <time>2019-08-04T11:27:53Z</time>
      </trkpt>
      <trkpt lat="46.144570419564843" lon="8.148130718618631">
        <ele>2239.1500000000001</ele>
        <time>2019-08-04T11:28:04Z</time>
      </trkpt>
      <trkpt lat="46.144532365724444" lon="8.148068692535162">
        <ele>2238.9400000000001</ele>
        <time>2019-08-04T11:28:17Z</time>
      </trkpt>
      <trkpt lat="46.144503112882376" lon="8.148023514077067">
        <ele>2237.4299999999998</ele>
        <time>2019-08-04T11:28:28Z</time>
      </trkpt>
      <trkpt lat="46.144492300227284" lon="8.147965762764216">
        <ele>2236.79</ele>
        <time>2019-08-04T11:28:41Z</time>
      </trkpt>
      <trkpt lat="46.144491042941809" lon="8.147953189909458">
        <ele>2237.0100000000002</ele>
        <time>2019-08-04T11:28:43Z</time>
      </trkpt>
      <trkpt lat="46.144495569169521" lon="8.147896192967892">
        <ele>2236.1999999999998</ele>
        <time>2019-08-04T11:28:53Z</time>
      </trkpt>
      <trkpt lat="46.144480817019939" lon="8.147859480232">
        <ele>2236.73</ele>
        <time>2019-08-04T11:29:05Z</time>
      </trkpt>
      <trkpt lat="46.144460532814264" lon="8.147852439433336">
        <ele>2236.1900000000001</ele>
        <time>2019-08-04T11:29:16Z</time>
      </trkpt>
      <trkpt lat="46.144431363791227" lon="8.14783651381731">
        <ele>2236.25</ele>
        <time>2019-08-04T11:29:30Z</time>
      </trkpt>
      <trkpt lat="46.144413510337472" lon="8.147814637050033">
        <ele>2235.9000000000001</ele>
        <time>2019-08-04T11:29:41Z</time>
      </trkpt>
      <trkpt lat="46.1443982552737" lon="8.147786557674408">
        <ele>2234.8400000000001</ele>
        <time>2019-08-04T11:29:54Z</time>
      </trkpt>
      <trkpt lat="46.144366152584553" lon="8.147745989263058">
        <ele>2233.5799999999999</ele>
        <time>2019-08-04T11:30:02Z</time>
      </trkpt>
      <trkpt lat="46.144283255562186" lon="8.147682789713144">
        <ele>2232.8299999999999</ele>
        <time>2019-08-04T11:30:15Z</time>
      </trkpt>
      <trkpt lat="46.144218966364861" lon="8.147619673982263">
        <ele>2230.6799999999998</ele>
        <time>2019-08-04T11:30:28Z</time>
      </trkpt>
      <trkpt lat="46.144224079325795" lon="8.147494699805975">
        <ele>2232.1700000000001</ele>
        <time>2019-08-04T11:30:39Z</time>
      </trkpt>
      <trkpt lat="46.144219301640987" lon="8.147430662065744">
        <ele>2232.5999999999999</ele>
        <time>2019-08-04T11:30:44Z</time>
      </trkpt>
      <trkpt lat="46.144253667443991" lon="8.147241398692131">
        <ele>2231.5100000000002</ele>
        <time>2019-08-04T11:30:58Z</time>
      </trkpt>
      <trkpt lat="46.144249644130468" lon="8.147067306563258">
        <ele>2231.0999999999999</ele>
        <time>2019-08-04T11:31:10Z</time>
      </trkpt>
      <trkpt lat="46.14430345594883" lon="8.146848119795322">
        <ele>2230.79</ele>
        <time>2019-08-04T11:31:26Z</time>
      </trkpt>
      <trkpt lat="46.144334385171533" lon="8.146727336570621">
        <ele>2230.6700000000001</ele>
        <time>2019-08-04T11:31:35Z</time>
      </trkpt>
      <trkpt lat="46.144347628578544" lon="8.146705878898501">
        <ele>2230.7800000000002</ele>
        <time>2019-08-04T11:31:37Z</time>
      </trkpt>
      <trkpt lat="46.144382748752832" lon="8.146683666855097">
        <ele>2230.3499999999999</ele>
        <time>2019-08-04T11:31:49Z</time>
      </trkpt>
      <trkpt lat="46.144395489245653" lon="8.146618120372295">
        <ele>2230.3499999999999</ele>
        <time>2019-08-04T11:32:03Z</time>
      </trkpt>
      <trkpt lat="46.144374283030629" lon="8.146660784259439">
        <ele>2229.9899999999998</ele>
        <time>2019-08-04T11:32:22Z</time>
      </trkpt>
      <trkpt lat="46.144347377121449" lon="8.146709902212024">
        <ele>2230.5799999999999</ele>
        <time>2019-08-04T11:32:42Z</time>
      </trkpt>
      <trkpt lat="46.144311167299747" lon="8.14681182615459">
        <ele>2230.96</ele>
        <time>2019-08-04T11:32:54Z</time>
      </trkpt>
      <trkpt lat="46.144278813153505" lon="8.146785171702504">
        <ele>2230.77</ele>
        <time>2019-08-04T11:33:04Z</time>
      </trkpt>
      <trkpt lat="46.144289458170533" lon="8.146826243028045">
        <ele>2230.5500000000002</ele>
        <time>2019-08-04T11:33:22Z</time>
      </trkpt>
      <trkpt lat="46.144286440685391" lon="8.146827248856425">
        <ele>2230.5900000000001</ele>
        <time>2019-08-04T11:33:45Z</time>
      </trkpt>
      <trkpt lat="46.144296750426292" lon="8.146847868338227">
        <ele>2230.5599999999999</ele>
        <time>2019-08-04T11:33:56Z</time>
      </trkpt>
      <trkpt lat="46.144313598051667" lon="8.146846946328878">
        <ele>2229.9499999999998</ele>
        <time>2019-08-04T11:34:05Z</time>
      </trkpt>
      <trkpt lat="46.144315777346492" lon="8.146842755377293">
        <ele>2229.2199999999998</ele>
        <time>2019-08-04T11:34:48Z</time>
      </trkpt>
      <trkpt lat="46.144336815923452" lon="8.146845018491149">
        <ele>2229.1100000000001</ele>
        <time>2019-08-04T11:35:37Z</time>
      </trkpt>
      <trkpt lat="46.144343269988894" lon="8.146850802004337">
        <ele>2229.0900000000001</ele>
        <time>2019-08-04T11:36:28Z</time>
      </trkpt>
      <trkpt lat="46.144347041845322" lon="8.146840911358595">
        <ele>2228.96</ele>
        <time>2019-08-04T11:37:22Z</time>
      </trkpt>
      <trkpt lat="46.144347880035639" lon="8.146851640194655">
        <ele>2229.5300000000002</ele>
        <time>2019-08-04T11:38:16Z</time>
      </trkpt>
      <trkpt lat="46.144349304959178" lon="8.146847952157259">
        <ele>2229.27</ele>
        <time>2019-08-04T11:39:09Z</time>
      </trkpt>
      <trkpt lat="46.144347125664353" lon="8.146837893873453">
        <ele>2228.8400000000001</ele>
        <time>2019-08-04T11:39:58Z</time>
      </trkpt>
      <trkpt lat="46.144343940541148" lon="8.146836971864104">
        <ele>2228.48</ele>
        <time>2019-08-04T11:40:43Z</time>
      </trkpt>
      <trkpt lat="46.144342934712768" lon="8.146838312968612">
        <ele>2228.52</ele>
        <time>2019-08-04T11:41:35Z</time>
      </trkpt>
      <trkpt lat="46.144341006875038" lon="8.14684166572988">
        <ele>2228.4299999999998</ele>
        <time>2019-08-04T11:42:12Z</time>
      </trkpt>
      <trkpt lat="46.144342180341482" lon="8.146837474778295">
        <ele>2228.4099999999999</ele>
        <time>2019-08-04T11:42:44Z</time>
      </trkpt>
      <trkpt lat="46.144342683255672" lon="8.146840827539563">
        <ele>2228.7199999999998</ele>
        <time>2019-08-04T11:42:49Z</time>
      </trkpt>
      <trkpt lat="46.144336648285389" lon="8.146824399009347">
        <ele>2229.7399999999998</ele>
        <time>2019-08-04T11:42:58Z</time>
      </trkpt>
      <trkpt lat="46.144329942762852" lon="8.146828506141901">
        <ele>2229.5700000000002</ele>
        <time>2019-08-04T11:43:12Z</time>
      </trkpt>
      <trkpt lat="46.144356094300747" lon="8.146799840033054">
        <ele>2230.1199999999999</ele>
        <time>2019-08-04T11:43:28Z</time>
      </trkpt>
      <trkpt lat="46.144457431510091" lon="8.14668039791286">
        <ele>2230.8699999999999</ele>
        <time>2019-08-04T11:43:44Z</time>
      </trkpt>
      <trkpt lat="46.144527001306415" lon="8.14664326608181">
        <ele>2232.77</ele>
        <time>2019-08-04T11:43:56Z</time>
      </trkpt>
      <trkpt lat="46.144550889730453" lon="8.146655168384314">
        <ele>2232.7600000000002</ele>
        <time>2019-08-04T11:44:00Z</time>
      </trkpt>
      <trkpt lat="46.144619202241302" lon="8.146545952185988">
        <ele>2232.79</ele>
        <time>2019-08-04T11:44:15Z</time>
      </trkpt>
      <trkpt lat="46.144594056531787" lon="8.146414272487164">
        <ele>2232.6999999999998</ele>
        <time>2019-08-04T11:44:28Z</time>
      </trkpt>
      <trkpt lat="46.144631523638964" lon="8.146349564194679">
        <ele>2230.6399999999999</ele>
        <time>2019-08-04T11:44:36Z</time>
      </trkpt>
      <trkpt lat="46.144714588299394" lon="8.146188128739595">
        <ele>2229.4200000000001</ele>
        <time>2019-08-04T11:44:50Z</time>
      </trkpt>
      <trkpt lat="46.144767394289374" lon="8.146035745739937">
        <ele>2230.1199999999999</ele>
        <time>2019-08-04T11:45:04Z</time>
      </trkpt>
      <trkpt lat="46.1448023468256" lon="8.145865509286523">
        <ele>2231.1599999999999</ele>
        <time>2019-08-04T11:45:18Z</time>
      </trkpt>
      <trkpt lat="46.144823050126433" lon="8.145686136558652">
        <ele>2230.8800000000001</ele>
        <time>2019-08-04T11:45:31Z</time>
      </trkpt>
      <trkpt lat="46.144830007106066" lon="8.145650010555983">
        <ele>2230.8299999999999</ele>
        <time>2019-08-04T11:45:34Z</time>
      </trkpt>
      <trkpt lat="46.144856242462993" lon="8.145488575100899">
        <ele>2230.5599999999999</ele>
        <time>2019-08-04T11:45:47Z</time>
      </trkpt>
      <trkpt lat="46.144878873601556" lon="8.14533225260675">
        <ele>2230.9200000000001</ele>
        <time>2019-08-04T11:46:00Z</time>
      </trkpt>
      <trkpt lat="46.144884405657649" lon="8.145283469930291">
        <ele>2230.77</ele>
        <time>2019-08-04T11:46:04Z</time>
      </trkpt>
      <trkpt lat="46.144959591329098" lon="8.14508993178606">
        <ele>2230.3099999999999</ele>
        <time>2019-08-04T11:46:19Z</time>
      </trkpt>
      <trkpt lat="46.145006278529763" lon="8.144880468025804">
        <ele>2230.4000000000001</ele>
        <time>2019-08-04T11:46:34Z</time>
      </trkpt>
      <trkpt lat="46.145060677081347" lon="8.144746860489249">
        <ele>2230.1700000000001</ele>
        <time>2019-08-04T11:46:45Z</time>
      </trkpt>
      <trkpt lat="46.145079368725419" lon="8.14447277225554">
        <ele>2230.1700000000001</ele>
        <time>2019-08-04T11:47:03Z</time>
      </trkpt>
      <trkpt lat="46.14512144587934" lon="8.144259955734015">
        <ele>2229.7600000000002</ele>
        <time>2019-08-04T11:47:19Z</time>
      </trkpt>
      <trkpt lat="46.145145837217569" lon="8.14406524412334">
        <ele>2229.9499999999998</ele>
        <time>2019-08-04T11:47:33Z</time>
      </trkpt>
      <trkpt lat="46.145176598802209" lon="8.143847230821848">
        <ele>2229.4899999999998</ele>
        <time>2019-08-04T11:47:49Z</time>
      </trkpt>
      <trkpt lat="46.145251868292689" lon="8.143685963004828">
        <ele>2228.25</ele>
        <time>2019-08-04T11:48:04Z</time>
      </trkpt>
      <trkpt lat="46.1452875752002" lon="8.143538692966104">
        <ele>2227.6100000000001</ele>
        <time>2019-08-04T11:48:16Z</time>
      </trkpt>
      <trkpt lat="46.145304506644607" lon="8.143452191725373">
        <ele>2228.0100000000002</ele>
        <time>2019-08-04T11:48:24Z</time>
      </trkpt>
      <trkpt lat="46.145350858569145" lon="8.143213475123048">
        <ele>2226.46</ele>
        <time>2019-08-04T11:48:41Z</time>
      </trkpt>
      <trkpt lat="46.145378854125738" lon="8.143065115436912">
        <ele>2225.9699999999998</ele>
        <time>2019-08-04T11:48:55Z</time>
      </trkpt>
      <trkpt lat="46.145400563254952" lon="8.142985571175814">
        <ele>2224.77</ele>
        <time>2019-08-04T11:49:06Z</time>
      </trkpt>
      <trkpt lat="46.145391678437591" lon="8.14288523979485">
        <ele>2222.6199999999999</ele>
        <time>2019-08-04T11:49:21Z</time>
      </trkpt>
      <trkpt lat="46.145403580740094" lon="8.142812317237258">
        <ele>2221.0799999999999</ele>
        <time>2019-08-04T11:49:33Z</time>
      </trkpt>
      <trkpt lat="46.14539947360754" lon="8.142724642530084">
        <ele>2218.8899999999999</ele>
        <time>2019-08-04T11:49:44Z</time>
      </trkpt>
      <trkpt lat="46.145369801670313" lon="8.142613917589188">
        <ele>2216.46</ele>
        <time>2019-08-04T11:49:56Z</time>
      </trkpt>
      <trkpt lat="46.145334430038929" lon="8.14250654540956">
        <ele>2214.8000000000002</ele>
        <time>2019-08-04T11:50:09Z</time>
      </trkpt>
      <trkpt lat="46.145355133339763" lon="8.1424405798316">
        <ele>2213.4200000000001</ele>
        <time>2019-08-04T11:50:19Z</time>
      </trkpt>
      <trkpt lat="46.14536426961422" lon="8.142401939257979">
        <ele>2212.9200000000001</ele>
        <time>2019-08-04T11:50:22Z</time>
      </trkpt>
      <trkpt lat="46.145403832197189" lon="8.142198007553816">
        <ele>2211.8099999999999</ele>
        <time>2019-08-04T11:50:36Z</time>
      </trkpt>
      <trkpt lat="46.145396120846272" lon="8.142184596508741">
        <ele>2212.1199999999999</ele>
        <time>2019-08-04T11:50:48Z</time>
      </trkpt>
      <trkpt lat="46.145424703136086" lon="8.142150482162833">
        <ele>2211.8200000000002</ele>
        <time>2019-08-04T11:50:52Z</time>
      </trkpt>
      <trkpt lat="46.145433252677321" lon="8.142089210450649">
        <ele>2211.1599999999999</ele>
        <time>2019-08-04T11:50:56Z</time>
      </trkpt>
      <trkpt lat="46.145409448072314" lon="8.141939593479037">
        <ele>2207.8800000000001</ele>
        <time>2019-08-04T11:51:08Z</time>
      </trkpt>
      <trkpt lat="46.145423110574484" lon="8.141867090016604">
        <ele>2207.2399999999998</ele>
        <time>2019-08-04T11:51:19Z</time>
      </trkpt>
      <trkpt lat="46.145418332889676" lon="8.141804896295071">
        <ele>2205.6799999999998</ele>
        <time>2019-08-04T11:51:26Z</time>
      </trkpt>
      <trkpt lat="46.145446412265301" lon="8.141660476103425">
        <ele>2203.0500000000002</ele>
        <time>2019-08-04T11:51:40Z</time>
      </trkpt>
      <trkpt lat="46.145458817481995" lon="8.141636671498418">
        <ele>2202.6599999999999</ele>
        <time>2019-08-04T11:51:42Z</time>
      </trkpt>
      <trkpt lat="46.14548890851438" lon="8.141524270176888">
        <ele>2201.77</ele>
        <time>2019-08-04T11:51:51Z</time>
      </trkpt>
      <trkpt lat="46.145471725612879" lon="8.141294689849019">
        <ele>2199.73</ele>
        <time>2019-08-04T11:52:06Z</time>
      </trkpt>
      <trkpt lat="46.145476754754782" lon="8.14122729934752">
        <ele>2199.3400000000001</ele>
        <time>2019-08-04T11:52:12Z</time>
      </trkpt>
      <trkpt lat="46.145498715341091" lon="8.141111042350531">
        <ele>2198.1199999999999</ele>
        <time>2019-08-04T11:52:24Z</time>
      </trkpt>
      <trkpt lat="46.145509611815214" lon="8.141080783680081">
        <ele>2197.7800000000002</ele>
        <time>2019-08-04T11:52:34Z</time>
      </trkpt>
      <trkpt lat="46.145513383671641" lon="8.140961928293109">
        <ele>2197.4099999999999</ele>
        <time>2019-08-04T11:52:47Z</time>
      </trkpt>
      <trkpt lat="46.145533416420221" lon="8.140949355438352">
        <ele>2197.4899999999998</ele>
        <time>2019-08-04T11:53:01Z</time>
      </trkpt>
      <trkpt lat="46.145548420026898" lon="8.14093753695488">
        <ele>2196.0100000000002</ele>
        <time>2019-08-04T11:53:12Z</time>
      </trkpt>
      <trkpt lat="46.145567027851939" lon="8.140911217778921">
        <ele>2195.5100000000002</ele>
        <time>2019-08-04T11:53:25Z</time>
      </trkpt>
      <trkpt lat="46.145554035902023" lon="8.140879198908806">
        <ele>2194.6399999999999</ele>
        <time>2019-08-04T11:53:36Z</time>
      </trkpt>
      <trkpt lat="46.145538277924061" lon="8.14084374345839">
        <ele>2193.8899999999999</ele>
        <time>2019-08-04T11:53:48Z</time>
      </trkpt>
      <trkpt lat="46.145526794716716" lon="8.14077777788043">
        <ele>2192.71</ele>
        <time>2019-08-04T11:54:01Z</time>
      </trkpt>
      <trkpt lat="46.145500894635916" lon="8.140732180327177">
        <ele>2192.21</ele>
        <time>2019-08-04T11:54:12Z</time>
      </trkpt>
      <trkpt lat="46.145515395328403" lon="8.140586754307151">
        <ele>2190.2600000000002</ele>
        <time>2019-08-04T11:54:25Z</time>
      </trkpt>
      <trkpt lat="46.145559316501021" lon="8.140423810109496">
        <ele>2188.0100000000002</ele>
        <time>2019-08-04T11:54:39Z</time>
      </trkpt>
      <trkpt lat="46.145578846335411" lon="8.140383828431368">
        <ele>2187.5500000000002</ele>
        <time>2019-08-04T11:54:43Z</time>
      </trkpt>
      <trkpt lat="46.145698959007859" lon="8.140371004119515">
        <ele>2186.2800000000002</ele>
        <time>2019-08-04T11:54:57Z</time>
      </trkpt>
      <trkpt lat="46.145712621510029" lon="8.140374105423689">
        <ele>2186.0900000000001</ele>
        <time>2019-08-04T11:54:59Z</time>
      </trkpt>
      <trkpt lat="46.145733157172799" lon="8.140377206727862">
        <ele>2185.4000000000001</ele>
        <time>2019-08-04T11:55:01Z</time>
      </trkpt>
      <trkpt lat="46.1458142939955" lon="8.140345858410001">
        <ele>2184.54</ele>
        <time>2019-08-04T11:55:10Z</time>
      </trkpt>
      <trkpt lat="46.145866848528385" lon="8.140137232840061">
        <ele>2183.0300000000002</ele>
        <time>2019-08-04T11:55:25Z</time>
      </trkpt>
      <trkpt lat="46.145888641476631" lon="8.140082750469446">
        <ele>2182.5100000000002</ele>
        <time>2019-08-04T11:55:29Z</time>
      </trkpt>
      <trkpt lat="46.145893586799502" lon="8.139996835961938">
        <ele>2182.1799999999998</ele>
        <time>2019-08-04T11:55:35Z</time>
      </trkpt>
      <trkpt lat="46.145875565707684" lon="8.139933804050088">
        <ele>2181.5500000000002</ele>
        <time>2019-08-04T11:55:40Z</time>
      </trkpt>
      <trkpt lat="46.145843798294663" lon="8.139886446297169">
        <ele>2181.0900000000001</ele>
        <time>2019-08-04T11:55:45Z</time>
      </trkpt>
      <trkpt lat="46.145783867686987" lon="8.13978879712522">
        <ele>2180.4200000000001</ele>
        <time>2019-08-04T11:55:56Z</time>
      </trkpt>
      <trkpt lat="46.145679010078311" lon="8.139716126024723">
        <ele>2178.9000000000001</ele>
        <time>2019-08-04T11:56:09Z</time>
      </trkpt>
      <trkpt lat="46.14555336534977" lon="8.13973163254559">
        <ele>2177.2600000000002</ele>
        <time>2019-08-04T11:56:23Z</time>
      </trkpt>
      <trkpt lat="46.145483208820224" lon="8.139782007783651">
        <ele>2175.9099999999999</ele>
        <time>2019-08-04T11:56:35Z</time>
      </trkpt>
      <trkpt lat="46.145434426143765" lon="8.139824252575636">
        <ele>2175.5799999999999</ele>
        <time>2019-08-04T11:56:47Z</time>
      </trkpt>
      <trkpt lat="46.145383212715387" lon="8.139890553429723">
        <ele>2175.4200000000001</ele>
        <time>2019-08-04T11:56:59Z</time>
      </trkpt>
      <trkpt lat="46.145333256572485" lon="8.139959368854761">
        <ele>2175.4899999999998</ele>
        <time>2019-08-04T11:57:11Z</time>
      </trkpt>
      <trkpt lat="46.145329736173153" lon="8.139962302520871">
        <ele>2175.5</ele>
        <time>2019-08-04T11:57:12Z</time>
      </trkpt>
      <trkpt lat="46.145230997353792" lon="8.139941180124879">
        <ele>2175.3699999999999</ele>
        <time>2019-08-04T11:57:24Z</time>
      </trkpt>
      <trkpt lat="46.145160840824246" lon="8.139887116849423">
        <ele>2175.5</ele>
        <time>2019-08-04T11:57:36Z</time>
      </trkpt>
      <trkpt lat="46.145134102553129" lon="8.139874208718538">
        <ele>2175.2600000000002</ele>
        <time>2019-08-04T11:57:51Z</time>
      </trkpt>
      <trkpt lat="46.145137622952461" lon="8.139866916462779">
        <ele>2174.4499999999998</ele>
        <time>2019-08-04T11:58:03Z</time>
      </trkpt>
      <trkpt lat="46.145148603245616" lon="8.139846213161945">
        <ele>2173.6599999999999</ele>
        <time>2019-08-04T11:58:49Z</time>
      </trkpt>
      <trkpt lat="46.145152542740107" lon="8.139845877885819">
        <ele>2173.6300000000001</ele>
        <time>2019-08-04T11:59:16Z</time>
      </trkpt>
      <trkpt lat="46.145153883844614" lon="8.139844285324216">
        <ele>2173.54</ele>
        <time>2019-08-04T11:59:43Z</time>
      </trkpt>
      <trkpt lat="46.145151620730758" lon="8.139848476275802">
        <ele>2173.3899999999999</ele>
        <time>2019-08-04T12:00:16Z</time>
      </trkpt>
      <trkpt lat="46.145153548568487" lon="8.139858953654766">
        <ele>2173.3099999999999</ele>
        <time>2019-08-04T12:00:58Z</time>
      </trkpt>
      <trkpt lat="46.145155392587185" lon="8.139857780188322">
        <ele>2172.8200000000002</ele>
        <time>2019-08-04T12:01:50Z</time>
      </trkpt>
      <trkpt lat="46.145157152786851" lon="8.139851242303848">
        <ele>2172.52</ele>
        <time>2019-08-04T12:02:43Z</time>
      </trkpt>
      <trkpt lat="46.145160086452961" lon="8.139849314466119">
        <ele>2172.52</ele>
        <time>2019-08-04T12:03:38Z</time>
      </trkpt>
      <trkpt lat="46.145163523033261" lon="8.139848308637738">
        <ele>2172.6799999999998</ele>
        <time>2019-08-04T12:04:23Z</time>
      </trkpt>
      <trkpt lat="46.145159499719739" lon="8.139856522902846">
        <ele>2172.46</ele>
        <time>2019-08-04T12:05:22Z</time>
      </trkpt>
      <trkpt lat="46.145159332081676" lon="8.139855097979307">
        <ele>2171.9299999999998</ele>
        <time>2019-08-04T12:06:13Z</time>
      </trkpt>
      <trkpt lat="46.14515757188201" lon="8.139854930341244">
        <ele>2171.8400000000001</ele>
        <time>2019-08-04T12:07:10Z</time>
      </trkpt>
      <trkpt lat="46.145155895501375" lon="8.139855265617371">
        <ele>2171.5500000000002</ele>
        <time>2019-08-04T12:08:04Z</time>
      </trkpt>
      <trkpt lat="46.145151704549789" lon="8.139854930341244">
        <ele>2171.8899999999999</ele>
        <time>2019-08-04T12:08:55Z</time>
      </trkpt>
      <trkpt lat="46.145150028169155" lon="8.139861971139908">
        <ele>2171.3800000000001</ele>
        <time>2019-08-04T12:09:39Z</time>
      </trkpt>
      <trkpt lat="46.145145921036601" lon="8.139852583408356">
        <ele>2171.0900000000001</ele>
        <time>2019-08-04T12:10:28Z</time>
      </trkpt>
      <trkpt lat="46.145141394808888" lon="8.139855684712529">
        <ele>2171.2399999999998</ele>
        <time>2019-08-04T12:11:21Z</time>
      </trkpt>
      <trkpt lat="46.145142819732428" lon="8.139859456568956">
        <ele>2171.4699999999998</ele>
        <time>2019-08-04T12:11:48Z</time>
      </trkpt>
      <trkpt lat="46.145133096724749" lon="8.139855265617371">
        <ele>2171.3099999999999</ele>
        <time>2019-08-04T12:12:33Z</time>
      </trkpt>
      <trkpt lat="46.145131839439273" lon="8.139862976968288">
        <ele>2171.0300000000002</ele>
        <time>2019-08-04T12:13:25Z</time>
      </trkpt>
      <trkpt lat="46.145128235220909" lon="8.13985618762672">
        <ele>2170.9899999999998</ele>
        <time>2019-08-04T12:14:20Z</time>
      </trkpt>
      <trkpt lat="46.145124128088355" lon="8.139864653348923">
        <ele>2171.0799999999999</ele>
        <time>2019-08-04T12:15:10Z</time>
      </trkpt>
      <trkpt lat="46.145120859146118" lon="8.139862474054098">
        <ele>2170.9899999999998</ele>
        <time>2019-08-04T12:16:01Z</time>
      </trkpt>
      <trkpt lat="46.14512337371707" lon="8.13985962420702">
        <ele>2170.6599999999999</ele>
        <time>2019-08-04T12:16:55Z</time>
      </trkpt>
      <trkpt lat="46.145131671801209" lon="8.139856355264783">
        <ele>2170.6199999999999</ele>
        <time>2019-08-04T12:17:48Z</time>
      </trkpt>
      <trkpt lat="46.14514634013176" lon="8.139881081879139">
        <ele>2170.5300000000002</ele>
        <time>2019-08-04T12:18:00Z</time>
      </trkpt>
      <trkpt lat="46.14514047279954" lon="8.139887284487486">
        <ele>2170.27</ele>
        <time>2019-08-04T12:18:29Z</time>
      </trkpt>
      <trkpt lat="46.14514977671206" lon="8.139870269224048">
        <ele>2170.1100000000001</ele>
        <time>2019-08-04T12:19:05Z</time>
      </trkpt>
      <trkpt lat="46.145165367051959" lon="8.139857109636068">
        <ele>2170.5999999999999</ele>
        <time>2019-08-04T12:19:34Z</time>
      </trkpt>
      <trkpt lat="46.145165953785181" lon="8.139861552044749">
        <ele>2170.4899999999998</ele>
        <time>2019-08-04T12:20:00Z</time>
      </trkpt>
      <trkpt lat="46.145167127251625" lon="8.139868006110191">
        <ele>2170.0500000000002</ele>
        <time>2019-08-04T12:20:24Z</time>
      </trkpt>
      <trkpt lat="46.145155895501375" lon="8.139884015545249">
        <ele>2169.98</ele>
        <time>2019-08-04T12:21:00Z</time>
      </trkpt>
      <trkpt lat="46.145155057311058" lon="8.139882758259773">
        <ele>2170.0900000000001</ele>
        <time>2019-08-04T12:21:25Z</time>
      </trkpt>
      <trkpt lat="46.145145334303379" lon="8.139874376356602">
        <ele>2171.1900000000001</ele>
        <time>2019-08-04T12:21:42Z</time>
      </trkpt>
      <trkpt lat="46.145132426172495" lon="8.139892313629389">
        <ele>2171.48</ele>
        <time>2019-08-04T12:21:55Z</time>
      </trkpt>
      <trkpt lat="46.145131504163146" lon="8.139884350821376">
        <ele>2171.3800000000001</ele>
        <time>2019-08-04T12:22:12Z</time>
      </trkpt>
      <trkpt lat="46.145122870802879" lon="8.139871526509523">
        <ele>2171.1100000000001</ele>
        <time>2019-08-04T12:22:30Z</time>
      </trkpt>
      <trkpt lat="46.145133096724749" lon="8.139867251738906">
        <ele>2171.1100000000001</ele>
        <time>2019-08-04T12:22:40Z</time>
      </trkpt>
      <trkpt lat="46.145135778933764" lon="8.139873119071126">
        <ele>2170.6700000000001</ele>
        <time>2019-08-04T12:22:52Z</time>
      </trkpt>
      <trkpt lat="46.145146591588855" lon="8.139866581186652">
        <ele>2170.9699999999998</ele>
        <time>2019-08-04T12:23:13Z</time>
      </trkpt>
      <trkpt lat="46.145141310989857" lon="8.139873119071126">
        <ele>2171.04</ele>
        <time>2019-08-04T12:23:33Z</time>
      </trkpt>
      <trkpt lat="46.145138125866652" lon="8.139878567308188">
        <ele>2171.02</ele>
        <time>2019-08-04T12:23:54Z</time>
      </trkpt>
      <trkpt lat="46.145148854702711" lon="8.139871107414365">
        <ele>2171.2800000000002</ele>
        <time>2019-08-04T12:24:18Z</time>
      </trkpt>
      <trkpt lat="46.145150195807219" lon="8.139867670834065">
        <ele>2171.29</ele>
        <time>2019-08-04T12:24:31Z</time>
      </trkpt>
      <trkpt lat="46.145148519426584" lon="8.139871945604682">
        <ele>2171.1999999999998</ele>
        <time>2019-08-04T12:24:49Z</time>
      </trkpt>
      <trkpt lat="46.14514340646565" lon="8.139875885099173">
        <ele>2171.0900000000001</ele>
        <time>2019-08-04T12:25:06Z</time>
      </trkpt>
      <trkpt lat="46.145161343738437" lon="8.13989968970418">
        <ele>2171.3000000000002</ele>
        <time>2019-08-04T12:25:28Z</time>
      </trkpt>
      <trkpt lat="46.145174251869321" lon="8.139904467388988">
        <ele>2171.8299999999999</ele>
        <time>2019-08-04T12:25:41Z</time>
      </trkpt>
      <trkpt lat="46.145182633772492" lon="8.139897510409355">
        <ele>2171.1399999999999</ele>
        <time>2019-08-04T12:25:48Z</time>
      </trkpt>
      <trkpt lat="46.145211635157466" lon="8.139882506802678">
        <ele>2171.3699999999999</ele>
        <time>2019-08-04T12:26:03Z</time>
      </trkpt>
      <trkpt lat="46.145224459469318" lon="8.139879070222378">
        <ele>2171.1500000000001</ele>
        <time>2019-08-04T12:26:16Z</time>
      </trkpt>
      <trkpt lat="46.145239546895027" lon="8.139877477660775">
        <ele>2171.52</ele>
        <time>2019-08-04T12:26:28Z</time>
      </trkpt>
      <trkpt lat="46.145238876342773" lon="8.139872867614031">
        <ele>2171.1599999999999</ele>
        <time>2019-08-04T12:26:46Z</time>
      </trkpt>
      <trkpt lat="46.145279193297029" lon="8.139937659725547">
        <ele>2170.27</ele>
        <time>2019-08-04T12:27:03Z</time>
      </trkpt>
      <trkpt lat="46.145305009558797" lon="8.139941263943911">
        <ele>2169.6399999999999</ele>
        <time>2019-08-04T12:27:07Z</time>
      </trkpt>
      <trkpt lat="46.145343901589513" lon="8.139927936717868">
        <ele>2172.0599999999999</ele>
        <time>2019-08-04T12:27:12Z</time>
      </trkpt>
      <trkpt lat="46.145371813327074" lon="8.139915280044079">
        <ele>2170.75</ele>
        <time>2019-08-04T12:27:15Z</time>
      </trkpt>
      <trkpt lat="46.145415147766471" lon="8.13986549153924">
        <ele>2170.98</ele>
        <time>2019-08-04T12:27:26Z</time>
      </trkpt>
      <trkpt lat="46.145463762804866" lon="8.139812601730228">
        <ele>2170.7399999999998</ele>
        <time>2019-08-04T12:27:37Z</time>
      </trkpt>
      <trkpt lat="46.145546240732074" lon="8.139759544283152">
        <ele>2171.2399999999998</ele>
        <time>2019-08-04T12:27:49Z</time>
      </trkpt>
      <trkpt lat="46.145617319270968" lon="8.139691650867462">
        <ele>2172.3699999999999</ele>
        <time>2019-08-04T12:28:00Z</time>
      </trkpt>
      <trkpt lat="46.14573810249567" lon="8.139610178768635">
        <ele>2173.4200000000001</ele>
        <time>2019-08-04T12:28:14Z</time>
      </trkpt>
      <trkpt lat="46.14576400257647" lon="8.139620237052441">
        <ele>2173.54</ele>
        <time>2019-08-04T12:28:17Z</time>
      </trkpt>
      <trkpt lat="46.145861819386482" lon="8.139652758836746">
        <ele>2174.25</ele>
        <time>2019-08-04T12:28:30Z</time>
      </trkpt>
      <trkpt lat="46.145899370312691" lon="8.139683771878481">
        <ele>2175.3299999999999</ele>
        <time>2019-08-04T12:28:36Z</time>
      </trkpt>
      <trkpt lat="46.145954858511686" lon="8.139724172651768">
        <ele>2175.9499999999998</ele>
        <time>2019-08-04T12:28:43Z</time>
      </trkpt>
      <trkpt lat="46.146085197106004" lon="8.139713192358613">
        <ele>2176</ele>
        <time>2019-08-04T12:28:58Z</time>
      </trkpt>
      <trkpt lat="46.146189887076616" lon="8.139677653089166">
        <ele>2175.5599999999999</ele>
        <time>2019-08-04T12:29:13Z</time>
      </trkpt>
      <trkpt lat="46.146245375275612" lon="8.139708917587996">
        <ele>2177.5599999999999</ele>
        <time>2019-08-04T12:29:26Z</time>
      </trkpt>
      <trkpt lat="46.146252667531371" lon="8.13979315571487">
        <ele>2179.6799999999998</ele>
        <time>2019-08-04T12:29:39Z</time>
      </trkpt>
      <trkpt lat="46.146319806575775" lon="8.139862809330225">
        <ele>2182.1599999999999</ele>
        <time>2019-08-04T12:29:55Z</time>
      </trkpt>
      <trkpt lat="46.146361883729696" lon="8.139818133786321">
        <ele>2183.5300000000002</ele>
        <time>2019-08-04T12:30:06Z</time>
      </trkpt>
      <trkpt lat="46.146449474617839" lon="8.139768429100514">
        <ele>2184.6100000000001</ele>
        <time>2019-08-04T12:30:18Z</time>
      </trkpt>
      <trkpt lat="46.146488031372428" lon="8.139698272570968">
        <ele>2185.4699999999998</ele>
        <time>2019-08-04T12:30:28Z</time>
      </trkpt>
      <trkpt lat="46.14649155177176" lon="8.139670444652438">
        <ele>2185.3699999999999</ele>
        <time>2019-08-04T12:30:30Z</time>
      </trkpt>
      <trkpt lat="46.146529857069254" lon="8.139573130756617">
        <ele>2184.5300000000002</ele>
        <time>2019-08-04T12:30:39Z</time>
      </trkpt>
      <trkpt lat="46.146599510684609" lon="8.139494508504868">
        <ele>2183.71</ele>
        <time>2019-08-04T12:30:51Z</time>
      </trkpt>
      <trkpt lat="46.146653909236193" lon="8.139443881809712">
        <ele>2182.23</ele>
        <time>2019-08-04T12:31:02Z</time>
      </trkpt>
      <trkpt lat="46.146728843450546" lon="8.139396104961634">
        <ele>2182.3299999999999</ele>
        <time>2019-08-04T12:31:12Z</time>
      </trkpt>
      <trkpt lat="46.146816769614816" lon="8.139289319515228">
        <ele>2182.5700000000002</ele>
        <time>2019-08-04T12:31:26Z</time>
      </trkpt>
      <trkpt lat="46.146819703280926" lon="8.13927716575563">
        <ele>2182.4699999999998</ele>
        <time>2019-08-04T12:31:27Z</time>
      </trkpt>
      <trkpt lat="46.146868988871574" lon="8.139217654243112">
        <ele>2182.9299999999998</ele>
        <time>2019-08-04T12:31:40Z</time>
      </trkpt>
      <trkpt lat="46.146888853982091" lon="8.13921120017767">
        <ele>2183.2399999999998</ele>
        <time>2019-08-04T12:31:44Z</time>
      </trkpt>
      <trkpt lat="46.146921711042523" lon="8.139207512140274">
        <ele>2183.6700000000001</ele>
        <time>2019-08-04T12:31:47Z</time>
      </trkpt>
      <trkpt lat="46.147016678005457" lon="8.139098295941949">
        <ele>2184.4899999999998</ele>
        <time>2019-08-04T12:32:02Z</time>
      </trkpt>
      <trkpt lat="46.14704760722816" lon="8.139052782207727">
        <ele>2184.52</ele>
        <time>2019-08-04T12:32:13Z</time>
      </trkpt>
      <trkpt lat="46.147087002173066" lon="8.139017494395375">
        <ele>2184.5100000000002</ele>
        <time>2019-08-04T12:32:24Z</time>
      </trkpt>
      <trkpt lat="46.147136371582747" lon="8.139006849378347">
        <ele>2186.04</ele>
        <time>2019-08-04T12:32:35Z</time>
      </trkpt>
      <trkpt lat="46.147197391837835" lon="8.139033671468496">
        <ele>2186.48</ele>
        <time>2019-08-04T12:32:46Z</time>
      </trkpt>
      <trkpt lat="46.147262016311288" lon="8.139011710882187">
        <ele>2186.3000000000002</ele>
        <time>2019-08-04T12:32:58Z</time>
      </trkpt>
      <trkpt lat="46.147301327437162" lon="8.139000982046127">
        <ele>2185.77</ele>
        <time>2019-08-04T12:33:05Z</time>
      </trkpt>
      <trkpt lat="46.147340219467878" lon="8.139023277908564">
        <ele>2185.52</ele>
        <time>2019-08-04T12:33:09Z</time>
      </trkpt>
      <trkpt lat="46.147415908053517" lon="8.139028642326593">
        <ele>2185.9400000000001</ele>
        <time>2019-08-04T12:33:20Z</time>
      </trkpt>
      <trkpt lat="46.147482711821795" lon="8.139043897390366">
        <ele>2186.21</ele>
        <time>2019-08-04T12:33:29Z</time>
      </trkpt>
      <trkpt lat="46.147528393194079" lon="8.1390490103513">
        <ele>2186.27</ele>
        <time>2019-08-04T12:33:35Z</time>
      </trkpt>
      <trkpt lat="46.14764959551394" lon="8.138984302058816">
        <ele>2186.3299999999999</ele>
        <time>2019-08-04T12:33:50Z</time>
      </trkpt>
      <trkpt lat="46.147678093984723" lon="8.138951361179352">
        <ele>2186.1199999999999</ele>
        <time>2019-08-04T12:33:55Z</time>
      </trkpt>
      <trkpt lat="46.147747999057174" lon="8.138883719220758">
        <ele>2185.7199999999998</ele>
        <time>2019-08-04T12:34:08Z</time>
      </trkpt>
      <trkpt lat="46.14779032766819" lon="8.13885991461575">
        <ele>2184.5100000000002</ele>
        <time>2019-08-04T12:34:19Z</time>
      </trkpt>
      <trkpt lat="46.147812036797404" lon="8.138852622359991">
        <ele>2183.9499999999998</ele>
        <time>2019-08-04T12:34:32Z</time>
      </trkpt>
      <trkpt lat="46.147828213870525" lon="8.138839630410075">
        <ele>2183.8000000000002</ele>
        <time>2019-08-04T12:34:47Z</time>
      </trkpt>
      <trkpt lat="46.147847743704915" lon="8.138827811926603">
        <ele>2183.1199999999999</ele>
        <time>2019-08-04T12:35:03Z</time>
      </trkpt>
      <trkpt lat="46.147875152528286" lon="8.138828650116921">
        <ele>2182.3800000000001</ele>
        <time>2019-08-04T12:35:17Z</time>
      </trkpt>
      <trkpt lat="46.147890826687217" lon="8.138824878260493">
        <ele>2181.0999999999999</ele>
        <time>2019-08-04T12:35:30Z</time>
      </trkpt>
      <trkpt lat="46.147930724546313" lon="8.138816831633449">
        <ele>2178.1500000000001</ele>
        <time>2019-08-04T12:35:41Z</time>
      </trkpt>
      <trkpt lat="46.147956540808082" lon="8.13887894153595">
        <ele>2176.77</ele>
        <time>2019-08-04T12:35:51Z</time>
      </trkpt>
      <trkpt lat="46.148026529699564" lon="8.13894784078002">
        <ele>2174.73</ele>
        <time>2019-08-04T12:36:04Z</time>
      </trkpt>
      <trkpt lat="46.148095680400729" lon="8.138934765011072">
        <ele>2171.8400000000001</ele>
        <time>2019-08-04T12:36:16Z</time>
      </trkpt>
      <trkpt lat="46.148114120587707" lon="8.138946164399386">
        <ele>2171.1999999999998</ele>
        <time>2019-08-04T12:36:19Z</time>
      </trkpt>
      <trkpt lat="46.148185869678855" lon="8.138910876587033">
        <ele>2169.9099999999999</ele>
        <time>2019-08-04T12:36:26Z</time>
      </trkpt>
      <trkpt lat="46.148160640150309" lon="8.138999221846461">
        <ele>2169.27</ele>
        <time>2019-08-04T12:36:38Z</time>
      </trkpt>
      <trkpt lat="46.148187462240458" lon="8.138995198532939">
        <ele>2169.3499999999999</ele>
        <time>2019-08-04T12:36:48Z</time>
      </trkpt>
      <trkpt lat="46.148351076990366" lon="8.139039790257812">
        <ele>2169.48</ele>
        <time>2019-08-04T12:37:03Z</time>
      </trkpt>
      <trkpt lat="46.148413522168994" lon="8.139216648414731">
        <ele>2167.6100000000001</ele>
        <time>2019-08-04T12:37:16Z</time>
      </trkpt>
      <trkpt lat="46.148448307067156" lon="8.139352519065142">
        <ele>2166.75</ele>
        <time>2019-08-04T12:37:31Z</time>
      </trkpt>
      <trkpt lat="46.148450151085854" lon="8.13937297090888">
        <ele>2166.1500000000001</ele>
        <time>2019-08-04T12:37:42Z</time>
      </trkpt>
      <trkpt lat="46.148510752245784" lon="8.13944723457098">
        <ele>2166.5</ele>
        <time>2019-08-04T12:37:53Z</time>
      </trkpt>
      <trkpt lat="46.148539585992694" lon="8.139474811032414">
        <ele>2168.1599999999999</ele>
        <time>2019-08-04T12:38:07Z</time>
      </trkpt>
      <trkpt lat="46.148573448881507" lon="8.139496520161629">
        <ele>2169.8099999999999</ele>
        <time>2019-08-04T12:38:19Z</time>
      </trkpt>
      <trkpt lat="46.148599935695529" lon="8.139508925378323">
        <ele>2169.2800000000002</ele>
        <time>2019-08-04T12:38:30Z</time>
      </trkpt>
      <trkpt lat="46.148640001192689" lon="8.139558210968971">
        <ele>2167.1999999999998</ele>
        <time>2019-08-04T12:38:36Z</time>
      </trkpt>
      <trkpt lat="46.148710157722235" lon="8.139633145183325">
        <ele>2165.9099999999999</ele>
        <time>2019-08-04T12:38:48Z</time>
      </trkpt>
      <trkpt lat="46.148731531575322" lon="8.139620237052441">
        <ele>2165.6399999999999</ele>
        <time>2019-08-04T12:38:55Z</time>
      </trkpt>
      <trkpt lat="46.148750223219395" lon="8.139625769108534">
        <ele>2165.5799999999999</ele>
        <time>2019-08-04T12:38:57Z</time>
      </trkpt>
      <trkpt lat="46.148760784417391" lon="8.139717215672135">
        <ele>2165.6799999999998</ele>
        <time>2019-08-04T12:39:05Z</time>
      </trkpt>
      <trkpt lat="46.148818451911211" lon="8.139790305867791">
        <ele>2166.48</ele>
        <time>2019-08-04T12:39:16Z</time>
      </trkpt>
      <trkpt lat="46.148864217102528" lon="8.139843530952931">
        <ele>2165.9499999999998</ele>
        <time>2019-08-04T12:39:27Z</time>
      </trkpt>
      <trkpt lat="46.148906797170639" lon="8.139885859563947">
        <ele>2163.75</ele>
        <time>2019-08-04T12:39:39Z</time>
      </trkpt>
      <trkpt lat="46.148928590118885" lon="8.139972779899836">
        <ele>2161.5300000000002</ele>
        <time>2019-08-04T12:39:51Z</time>
      </trkpt>
      <trkpt lat="46.14895180799067" lon="8.140047043561935">
        <ele>2158.77</ele>
        <time>2019-08-04T12:40:03Z</time>
      </trkpt>
      <trkpt lat="46.149000590667129" lon="8.140028268098831">
        <ele>2157.0599999999999</ele>
        <time>2019-08-04T12:40:13Z</time>
      </trkpt>
      <trkpt lat="46.14904023706913" lon="8.140039332211018">
        <ele>2155.2399999999998</ele>
        <time>2019-08-04T12:40:25Z</time>
      </trkpt>
      <trkpt lat="46.149064963683486" lon="8.14007462002337">
        <ele>2154.3499999999999</ele>
        <time>2019-08-04T12:40:36Z</time>
      </trkpt>
      <trkpt lat="46.1491125728935" lon="8.140124743804336">
        <ele>2152.1700000000001</ele>
        <time>2019-08-04T12:40:49Z</time>
      </trkpt>
      <trkpt lat="46.149122379720211" lon="8.140136478468776">
        <ele>2151.9400000000001</ele>
        <time>2019-08-04T12:40:51Z</time>
      </trkpt>
      <trkpt lat="46.149162277579308" lon="8.140197414904833">
        <ele>2149.6100000000001</ele>
        <time>2019-08-04T12:41:02Z</time>
      </trkpt>
      <trkpt lat="46.149192787706852" lon="8.140296656638384">
        <ele>2147</ele>
        <time>2019-08-04T12:41:13Z</time>
      </trkpt>
      <trkpt lat="46.149179125204682" lon="8.140432359650731">
        <ele>2144.7800000000002</ele>
        <time>2019-08-04T12:41:24Z</time>
      </trkpt>
      <trkpt lat="46.14917753264308" lon="8.140457253903151">
        <ele>2144.4400000000001</ele>
        <time>2019-08-04T12:41:26Z</time>
      </trkpt>
      <trkpt lat="46.149194212630391" lon="8.140539396554232">
        <ele>2143.8899999999999</ele>
        <time>2019-08-04T12:41:34Z</time>
      </trkpt>
      <trkpt lat="46.149199241772294" lon="8.140579964965582">
        <ele>2143.8400000000001</ele>
        <time>2019-08-04T12:41:37Z</time>
      </trkpt>
      <trkpt lat="46.149196559563279" lon="8.140637716278434">
        <ele>2143.8499999999999</ele>
        <time>2019-08-04T12:41:41Z</time>
      </trkpt>
      <trkpt lat="46.149213993921876" lon="8.140767468139529">
        <ele>2144.4299999999998</ele>
        <time>2019-08-04T12:41:54Z</time>
      </trkpt>
      <trkpt lat="46.149208461865783" lon="8.14081197604537">
        <ele>2144.02</ele>
        <time>2019-08-04T12:42:05Z</time>
      </trkpt>
      <trkpt lat="46.149210641160607" lon="8.140808874741197">
        <ele>2144.2600000000002</ele>
        <time>2019-08-04T12:42:18Z</time>
      </trkpt>
      <trkpt lat="46.149208545684814" lon="8.140808120369911">
        <ele>2144.0999999999999</ele>
        <time>2019-08-04T12:42:37Z</time>
      </trkpt>
      <trkpt lat="46.149207623675466" lon="8.14080954529345">
        <ele>2143.7199999999998</ele>
        <time>2019-08-04T12:42:50Z</time>
      </trkpt>
      <trkpt lat="46.149184154346585" lon="8.140844833105803">
        <ele>2143.2199999999998</ele>
        <time>2019-08-04T12:43:00Z</time>
      </trkpt>
      <trkpt lat="46.149178370833397" lon="8.140904428437352">
        <ele>2143.0900000000001</ele>
        <time>2019-08-04T12:43:09Z</time>
      </trkpt>
      <trkpt lat="46.149200079962611" lon="8.141003753989935">
        <ele>2142.8099999999999</ele>
        <time>2019-08-04T12:43:23Z</time>
      </trkpt>
      <trkpt lat="46.149199241772294" lon="8.141092183068395">
        <ele>2141.9400000000001</ele>
        <time>2019-08-04T12:43:35Z</time>
      </trkpt>
      <trkpt lat="46.14916336722672" lon="8.141173152253032">
        <ele>2140.2800000000002</ele>
        <time>2019-08-04T12:43:46Z</time>
      </trkpt>
      <trkpt lat="46.149136628955603" lon="8.141277004033327">
        <ele>2138.3400000000001</ele>
        <time>2019-08-04T12:43:58Z</time>
      </trkpt>
      <trkpt lat="46.149136712774634" lon="8.141388483345509">
        <ele>2137.0799999999999</ele>
        <time>2019-08-04T12:44:10Z</time>
      </trkpt>
      <trkpt lat="46.149151967838407" lon="8.141528461128473">
        <ele>2133.6999999999998</ele>
        <time>2019-08-04T12:44:23Z</time>
      </trkpt>
      <trkpt lat="46.149152470752597" lon="8.141635246574879">
        <ele>2131.5300000000002</ele>
        <time>2019-08-04T12:44:34Z</time>
      </trkpt>
      <trkpt lat="46.14913746714592" lon="8.141743373125792">
        <ele>2129.48</ele>
        <time>2019-08-04T12:44:47Z</time>
      </trkpt>
      <trkpt lat="46.149126905947924" lon="8.141836496070027">
        <ele>2126.98</ele>
        <time>2019-08-04T12:45:00Z</time>
      </trkpt>
      <trkpt lat="46.149107879027724" lon="8.141924170777202">
        <ele>2124.9400000000001</ele>
        <time>2019-08-04T12:45:11Z</time>
      </trkpt>
      <trkpt lat="46.149108549579978" lon="8.142005475237966">
        <ele>2122.5</ele>
        <time>2019-08-04T12:45:23Z</time>
      </trkpt>
      <trkpt lat="46.149130426347256" lon="8.14206825569272">
        <ele>2120.2800000000002</ele>
        <time>2019-08-04T12:45:34Z</time>
      </trkpt>
      <trkpt lat="46.149147357791662" lon="8.14213564619422">
        <ele>2117.6700000000001</ele>
        <time>2019-08-04T12:45:44Z</time>
      </trkpt>
      <trkpt lat="46.149142496287823" lon="8.142233211547136">
        <ele>2114.7800000000002</ele>
        <time>2019-08-04T12:45:56Z</time>
      </trkpt>
      <trkpt lat="46.149140065535903" lon="8.142288951203227">
        <ele>2113.3200000000002</ele>
        <time>2019-08-04T12:46:07Z</time>
      </trkpt>
      <trkpt lat="46.149204103276134" lon="8.142314767464995">
        <ele>2111.1999999999998</ele>
        <time>2019-08-04T12:46:19Z</time>
      </trkpt>
      <trkpt lat="46.149147106334567" lon="8.142386265099049">
        <ele>2110.1399999999999</ele>
        <time>2019-08-04T12:46:30Z</time>
      </trkpt>
      <trkpt lat="46.149079632014036" lon="8.142509227618575">
        <ele>2107.2800000000002</ele>
        <time>2019-08-04T12:46:45Z</time>
      </trkpt>
      <trkpt lat="46.149061108008027" lon="8.142563123255968">
        <ele>2106.02</ele>
        <time>2019-08-04T12:46:50Z</time>
      </trkpt>
      <trkpt lat="46.148985419422388" lon="8.142698407173157">
        <ele>2104.6900000000001</ele>
        <time>2019-08-04T12:47:05Z</time>
      </trkpt>
      <trkpt lat="46.148941665887833" lon="8.142808964475989">
        <ele>2102.2199999999998</ele>
        <time>2019-08-04T12:47:18Z</time>
      </trkpt>
      <trkpt lat="46.148922136053443" lon="8.142864871770144">
        <ele>2101.4200000000001</ele>
        <time>2019-08-04T12:47:24Z</time>
      </trkpt>
      <trkpt lat="46.148838317021728" lon="8.142964532598853">
        <ele>2099.1799999999998</ele>
        <time>2019-08-04T12:47:38Z</time>
      </trkpt>
      <trkpt lat="46.148800179362297" lon="8.143027480691671">
        <ele>2097.3099999999999</ele>
        <time>2019-08-04T12:47:49Z</time>
      </trkpt>
      <trkpt lat="46.148746702820063" lon="8.143070228397846">
        <ele>2094.1799999999998</ele>
        <time>2019-08-04T12:48:01Z</time>
      </trkpt>
      <trkpt lat="46.148730358108878" lon="8.143113479018211">
        <ele>2092.2600000000002</ele>
        <time>2019-08-04T12:48:12Z</time>
      </trkpt>
      <trkpt lat="46.148712085559964" lon="8.143184892833233">
        <ele>2089.7399999999998</ele>
        <time>2019-08-04T12:48:25Z</time>
      </trkpt>
      <trkpt lat="46.148705296218395" lon="8.14325412735343">
        <ele>2087.1500000000001</ele>
        <time>2019-08-04T12:48:37Z</time>
      </trkpt>
      <trkpt lat="46.148711750283837" lon="8.143325122073293">
        <ele>2084.5999999999999</ele>
        <time>2019-08-04T12:48:49Z</time>
      </trkpt>
      <trkpt lat="46.148717701435089" lon="8.143353620544076">
        <ele>2083.0700000000002</ele>
        <time>2019-08-04T12:48:59Z</time>
      </trkpt>
      <trkpt lat="46.148718623444438" lon="8.143414137884975">
        <ele>2080.5700000000002</ele>
        <time>2019-08-04T12:49:11Z</time>
      </trkpt>
      <trkpt lat="46.148742763325572" lon="8.143464010208845">
        <ele>2078.6399999999999</ele>
        <time>2019-08-04T12:49:22Z</time>
      </trkpt>
      <trkpt lat="46.148757766932249" lon="8.143513379618526">
        <ele>2077.04</ele>
        <time>2019-08-04T12:49:31Z</time>
      </trkpt>
      <trkpt lat="46.148801688104868" lon="8.143537938594818">
        <ele>2075.1399999999999</ele>
        <time>2019-08-04T12:49:43Z</time>
      </trkpt>
      <trkpt lat="46.148844016715884" lon="8.143592337146401">
        <ele>2072.5799999999999</ele>
        <time>2019-08-04T12:49:53Z</time>
      </trkpt>
      <trkpt lat="46.148878550156951" lon="8.143647154793143">
        <ele>2070.1100000000001</ele>
        <time>2019-08-04T12:50:05Z</time>
      </trkpt>
      <trkpt lat="46.148872096091509" lon="8.14372661523521">
        <ele>2067.6199999999999</ele>
        <time>2019-08-04T12:50:17Z</time>
      </trkpt>
      <trkpt lat="46.148893721401691" lon="8.143814960494638">
        <ele>2065.21</ele>
        <time>2019-08-04T12:50:27Z</time>
      </trkpt>
      <trkpt lat="46.148950718343258" lon="8.143872879445553">
        <ele>2062.71</ele>
        <time>2019-08-04T12:50:39Z</time>
      </trkpt>
      <trkpt lat="46.14899086765945" lon="8.14389375038445">
        <ele>2061.75</ele>
        <time>2019-08-04T12:50:48Z</time>
      </trkpt>
      <trkpt lat="46.149023976176977" lon="8.143909340724349">
        <ele>2060.02</ele>
        <time>2019-08-04T12:50:58Z</time>
      </trkpt>
      <trkpt lat="46.149062784388661" lon="8.143910011276603">
        <ele>2058.77</ele>
        <time>2019-08-04T12:51:07Z</time>
      </trkpt>
      <trkpt lat="46.14911500364542" lon="8.143931552767754">
        <ele>2057.6900000000001</ele>
        <time>2019-08-04T12:51:24Z</time>
      </trkpt>
      <trkpt lat="46.149131432175636" lon="8.143935240805149">
        <ele>2057.1100000000001</ele>
        <time>2019-08-04T12:51:26Z</time>
      </trkpt>
      <trkpt lat="46.149220699444413" lon="8.143922500312328">
        <ele>2055.3499999999999</ele>
        <time>2019-08-04T12:51:38Z</time>
      </trkpt>
      <trkpt lat="46.149253472685814" lon="8.14394898712635">
        <ele>2054.54</ele>
        <time>2019-08-04T12:52:04Z</time>
      </trkpt>
      <trkpt lat="46.149285240098834" lon="8.143944963812828">
        <ele>2053.8699999999999</ele>
        <time>2019-08-04T12:52:16Z</time>
      </trkpt>
      <trkpt lat="46.149294963106513" lon="8.143954016268253">
        <ele>2053.1599999999999</ele>
        <time>2019-08-04T12:52:35Z</time>
      </trkpt>
      <trkpt lat="46.149340309202671" lon="8.143986873328686">
        <ele>2054.6500000000001</ele>
        <time>2019-08-04T12:52:43Z</time>
      </trkpt>
      <trkpt lat="46.149360341951251" lon="8.144012438133359">
        <ele>2053.3299999999999</ele>
        <time>2019-08-04T12:52:46Z</time>
      </trkpt>
      <trkpt lat="46.149441814050078" lon="8.144098101183772">
        <ele>2052.75</ele>
        <time>2019-08-04T12:53:00Z</time>
      </trkpt>
      <trkpt lat="46.149467630311847" lon="8.144141854718328">
        <ele>2052.8299999999999</ele>
        <time>2019-08-04T12:53:05Z</time>
      </trkpt>
      <trkpt lat="46.149550192058086" lon="8.144171191379428">
        <ele>2052.71</ele>
        <time>2019-08-04T12:53:19Z</time>
      </trkpt>
      <trkpt lat="46.149607188999653" lon="8.144210586324334">
        <ele>2052.1700000000001</ele>
        <time>2019-08-04T12:53:30Z</time>
      </trkpt>
      <trkpt lat="46.149669885635376" lon="8.144338158890605">
        <ele>2052.3299999999999</ele>
        <time>2019-08-04T12:53:43Z</time>
      </trkpt>
      <trkpt lat="46.149679608643055" lon="8.144434383139014">
        <ele>2053.54</ele>
        <time>2019-08-04T12:53:56Z</time>
      </trkpt>
      <trkpt lat="46.149729313328862" lon="8.144532116129994">
        <ele>2055.0500000000002</ele>
        <time>2019-08-04T12:54:09Z</time>
      </trkpt>
      <trkpt lat="46.149772396311164" lon="8.144648792222142">
        <ele>2057.3499999999999</ele>
        <time>2019-08-04T12:54:23Z</time>
      </trkpt>
      <trkpt lat="46.149811120703816" lon="8.144746273756027">
        <ele>2059.9000000000001</ele>
        <time>2019-08-04T12:54:38Z</time>
      </trkpt>
      <trkpt lat="46.149851186200976" lon="8.144816011190414">
        <ele>2061.29</ele>
        <time>2019-08-04T12:54:46Z</time>
      </trkpt>
      <trkpt lat="46.149909356608987" lon="8.144904691725969">
        <ele>2062.5900000000001</ele>
        <time>2019-08-04T12:54:56Z</time>
      </trkpt>
      <trkpt lat="46.150030139833689" lon="8.145033018663526">
        <ele>2063.8800000000001</ele>
        <time>2019-08-04T12:55:13Z</time>
      </trkpt>
      <trkpt lat="46.150107504799962" lon="8.145153215155006">
        <ele>2063.3400000000001</ele>
        <time>2019-08-04T12:55:27Z</time>
      </trkpt>
      <trkpt lat="46.150131979957223" lon="8.145207446068525">
        <ele>2063.3400000000001</ele>
        <time>2019-08-04T12:55:32Z</time>
      </trkpt>
      <trkpt lat="46.150212027132511" lon="8.145329654216766">
        <ele>2061.6500000000001</ele>
        <time>2019-08-04T12:55:44Z</time>
      </trkpt>
      <trkpt lat="46.150274807587266" lon="8.145439876243472">
        <ele>2062.9200000000001</ele>
        <time>2019-08-04T12:55:56Z</time>
      </trkpt>
      <trkpt lat="46.150268437340856" lon="8.145509026944637">
        <ele>2063.6100000000001</ele>
        <time>2019-08-04T12:56:06Z</time>
      </trkpt>
      <trkpt lat="46.15026525221765" lon="8.145645903423429">
        <ele>2064.1199999999999</ele>
        <time>2019-08-04T12:56:19Z</time>
      </trkpt>
      <trkpt lat="46.150273969396949" lon="8.145768027752638">
        <ele>2065.4200000000001</ele>
        <time>2019-08-04T12:56:32Z</time>
      </trkpt>
      <trkpt lat="46.150302551686764" lon="8.145845644176006">
        <ele>2066.25</ele>
        <time>2019-08-04T12:56:41Z</time>
      </trkpt>
      <trkpt lat="46.150319147855043" lon="8.145862994715571">
        <ele>2065.98</ele>
        <time>2019-08-04T12:56:43Z</time>
      </trkpt>
      <trkpt lat="46.150378072634339" lon="8.146059634163976">
        <ele>2065.54</ele>
        <time>2019-08-04T12:56:58Z</time>
      </trkpt>
      <trkpt lat="46.15037078037858" lon="8.146196259185672">
        <ele>2065.2600000000002</ele>
        <time>2019-08-04T12:57:09Z</time>
      </trkpt>
      <trkpt lat="46.150350328534842" lon="8.146366076543927">
        <ele>2066.29</ele>
        <time>2019-08-04T12:57:26Z</time>
      </trkpt>
      <trkpt lat="46.150350663810968" lon="8.146529272198677">
        <ele>2067.96</ele>
        <time>2019-08-04T12:57:43Z</time>
      </trkpt>
      <trkpt lat="46.150358961895108" lon="8.146624155342579">
        <ele>2068.7399999999998</ele>
        <time>2019-08-04T12:57:56Z</time>
      </trkpt>
      <trkpt lat="46.150410175323486" lon="8.146747201681137">
        <ele>2069.4400000000001</ele>
        <time>2019-08-04T12:58:11Z</time>
      </trkpt>
      <trkpt lat="46.150492401793599" lon="8.146813167259097">
        <ele>2070.4499999999998</ele>
        <time>2019-08-04T12:58:24Z</time>
      </trkpt>
      <trkpt lat="46.150571024045348" lon="8.146828254684806">
        <ele>2071.25</ele>
        <time>2019-08-04T12:58:37Z</time>
      </trkpt>
      <trkpt lat="46.150610167533159" lon="8.146887933835387">
        <ele>2069.96</ele>
        <time>2019-08-04T12:58:48Z</time>
      </trkpt>
      <trkpt lat="46.150676468387246" lon="8.146960521116853">
        <ele>2068.4499999999998</ele>
        <time>2019-08-04T12:59:00Z</time>
      </trkpt>
      <trkpt lat="46.150682670995593" lon="8.146969489753246">
        <ele>2068.2399999999998</ele>
        <time>2019-08-04T12:59:01Z</time>
      </trkpt>
      <trkpt lat="46.150771267712116" lon="8.147059008479118">
        <ele>2064.9499999999998</ele>
        <time>2019-08-04T12:59:12Z</time>
      </trkpt>
      <trkpt lat="46.150899929925799" lon="8.147068731486797">
        <ele>2063.3899999999999</ele>
        <time>2019-08-04T12:59:28Z</time>
      </trkpt>
      <trkpt lat="46.150977378711104" lon="8.147069988772273">
        <ele>2061.2800000000002</ele>
        <time>2019-08-04T12:59:41Z</time>
      </trkpt>
      <trkpt lat="46.151031609624624" lon="8.147101337090135">
        <ele>2059.3200000000002</ele>
        <time>2019-08-04T12:59:49Z</time>
      </trkpt>
      <trkpt lat="46.151165803894401" lon="8.147158082574606">
        <ele>2057.6100000000001</ele>
        <time>2019-08-04T13:00:02Z</time>
      </trkpt>
      <trkpt lat="46.151215340942144" lon="8.147177109494805">
        <ele>2057.2800000000002</ele>
        <time>2019-08-04T13:00:07Z</time>
      </trkpt>
      <trkpt lat="46.151281055063009" lon="8.147292695939541">
        <ele>2056.6900000000001</ele>
        <time>2019-08-04T13:00:20Z</time>
      </trkpt>
      <trkpt lat="46.151350373402238" lon="8.147338796406984">
        <ele>2056.6300000000001</ele>
        <time>2019-08-04T13:00:33Z</time>
      </trkpt>
      <trkpt lat="46.151355234906077" lon="8.147345669567585">
        <ele>2056.77</ele>
        <time>2019-08-04T13:00:34Z</time>
      </trkpt>
      <trkpt lat="46.151383649557829" lon="8.147505093365908">
        <ele>2058.23</ele>
        <time>2019-08-04T13:00:49Z</time>
      </trkpt>
      <trkpt lat="46.151368729770184" lon="8.147546667605639">
        <ele>2058.6300000000001</ele>
        <time>2019-08-04T13:01:01Z</time>
      </trkpt>
      <trkpt lat="46.151374010369182" lon="8.147557815536857">
        <ele>2058.8800000000001</ele>
        <time>2019-08-04T13:01:18Z</time>
      </trkpt>
      <trkpt lat="46.151379207149148" lon="8.147559072822332">
        <ele>2058.9499999999998</ele>
        <time>2019-08-04T13:01:39Z</time>
      </trkpt>
      <trkpt lat="46.151376273483038" lon="8.147564772516489">
        <ele>2058.5300000000002</ele>
        <time>2019-08-04T13:01:58Z</time>
      </trkpt>
      <trkpt lat="46.15137686021626" lon="8.147565275430679">
        <ele>2058.46</ele>
        <time>2019-08-04T13:02:17Z</time>
      </trkpt>
      <trkpt lat="46.151376441121101" lon="8.147567873820663">
        <ele>2058.5100000000002</ele>
        <time>2019-08-04T13:02:33Z</time>
      </trkpt>
      <trkpt lat="46.151374178007245" lon="8.147568292915821">
        <ele>2058.54</ele>
        <time>2019-08-04T13:02:43Z</time>
      </trkpt>
      <trkpt lat="46.151375686749816" lon="8.147569801658392">
        <ele>2058.3000000000002</ele>
        <time>2019-08-04T13:02:51Z</time>
      </trkpt>
      <trkpt lat="46.151368143036962" lon="8.147561838850379">
        <ele>2058.6599999999999</ele>
        <time>2019-08-04T13:03:14Z</time>
      </trkpt>
      <trkpt lat="46.151366550475359" lon="8.147570975124836">
        <ele>2058.4000000000001</ele>
        <time>2019-08-04T13:03:36Z</time>
      </trkpt>
      <trkpt lat="46.151370070874691" lon="8.147564521059394">
        <ele>2058.7199999999998</ele>
        <time>2019-08-04T13:03:59Z</time>
      </trkpt>
      <trkpt lat="46.151370406150818" lon="8.147564437240362">
        <ele>2058.7600000000002</ele>
        <time>2019-08-04T13:04:18Z</time>
      </trkpt>
      <trkpt lat="46.151369484141469" lon="8.147562593221664">
        <ele>2058.0700000000002</ele>
        <time>2019-08-04T13:04:46Z</time>
      </trkpt>
      <trkpt lat="46.151364538818598" lon="8.147567538544536">
        <ele>2058.0100000000002</ele>
        <time>2019-08-04T13:05:09Z</time>
      </trkpt>
      <trkpt lat="46.151364874094725" lon="8.147566113620997">
        <ele>2057.8000000000002</ele>
        <time>2019-08-04T13:05:28Z</time>
      </trkpt>
      <trkpt lat="46.151367723941803" lon="8.147565275430679">
        <ele>2057.7399999999998</ele>
        <time>2019-08-04T13:05:55Z</time>
      </trkpt>
      <trkpt lat="46.15136755630374" lon="8.147569801658392">
        <ele>2058.1599999999999</ele>
        <time>2019-08-04T13:06:20Z</time>
      </trkpt>
      <trkpt lat="46.151372585445642" lon="8.147556725889444">
        <ele>2057.9200000000001</ele>
        <time>2019-08-04T13:06:48Z</time>
      </trkpt>
      <trkpt lat="46.151367472484708" lon="8.147562425583601">
        <ele>2057.9699999999998</ele>
        <time>2019-08-04T13:07:12Z</time>
      </trkpt>
      <trkpt lat="46.151326401159167" lon="8.147689076140523">
        <ele>2059.7600000000002</ele>
        <time>2019-08-04T13:07:28Z</time>
      </trkpt>
      <trkpt lat="46.151286754757166" lon="8.147775745019317">
        <ele>2061.8800000000001</ele>
        <time>2019-08-04T13:07:42Z</time>
      </trkpt>
      <trkpt lat="46.151270493865013" lon="8.14784238114953">
        <ele>2063.3600000000001</ele>
        <time>2019-08-04T13:07:56Z</time>
      </trkpt>
      <trkpt lat="46.151300501078367" lon="8.147891080006957">
        <ele>2065.5700000000002</ele>
        <time>2019-08-04T13:08:10Z</time>
      </trkpt>
      <trkpt lat="46.151278037577868" lon="8.147940030321479">
        <ele>2067.5999999999999</ele>
        <time>2019-08-04T13:08:23Z</time>
      </trkpt>
      <trkpt lat="46.151253143325448" lon="8.148019993677735">
        <ele>2070.1100000000001</ele>
        <time>2019-08-04T13:08:39Z</time>
      </trkpt>
      <trkpt lat="46.151216011494398" lon="8.148081097751856">
        <ele>2072.1900000000001</ele>
        <time>2019-08-04T13:08:52Z</time>
      </trkpt>
      <trkpt lat="46.151190530508757" lon="8.148124013096094">
        <ele>2072.8299999999999</ele>
        <time>2019-08-04T13:09:02Z</time>
      </trkpt>
      <trkpt lat="46.151192374527454" lon="8.148175813257694">
        <ele>2074.8899999999999</ele>
        <time>2019-08-04T13:09:14Z</time>
      </trkpt>
      <trkpt lat="46.151184579357505" lon="8.14823180437088">
        <ele>2076.71</ele>
        <time>2019-08-04T13:09:25Z</time>
      </trkpt>
      <trkpt lat="46.151144513860345" lon="8.14826943911612">
        <ele>2078.8000000000002</ele>
        <time>2019-08-04T13:09:39Z</time>
      </trkpt>
      <trkpt lat="46.151124648749828" lon="8.14833196811378">
        <ele>2080.3200000000002</ele>
        <time>2019-08-04T13:09:51Z</time>
      </trkpt>
      <trkpt lat="46.15109832957387" lon="8.148362981155515">
        <ele>2081.54</ele>
        <time>2019-08-04T13:10:01Z</time>
      </trkpt>
      <trkpt lat="46.151090199127793" lon="8.148428192362189">
        <ele>2084.1199999999999</ele>
        <time>2019-08-04T13:10:14Z</time>
      </trkpt>
      <trkpt lat="46.151037476956844" lon="8.148455517366529">
        <ele>2085.5</ele>
        <time>2019-08-04T13:10:26Z</time>
      </trkpt>
      <trkpt lat="46.151014761999249" lon="8.148506144061685">
        <ele>2086.04</ele>
        <time>2019-08-04T13:10:37Z</time>
      </trkpt>
      <trkpt lat="46.150988694280386" lon="8.148500276729465">
        <ele>2085.5599999999999</ele>
        <time>2019-08-04T13:10:51Z</time>
      </trkpt>
      <trkpt lat="46.150941755622625" lon="8.148531289771199">
        <ele>2086.9000000000001</ele>
        <time>2019-08-04T13:11:03Z</time>
      </trkpt>
      <trkpt lat="46.150873275473714" lon="8.148578060790896">
        <ele>2087.4499999999998</ele>
        <time>2019-08-04T13:11:15Z</time>
      </trkpt>
      <trkpt lat="46.1508325394243" lon="8.148652743548155">
        <ele>2089.7800000000002</ele>
        <time>2019-08-04T13:11:27Z</time>
      </trkpt>
      <trkpt lat="46.150755006819963" lon="8.148711081594229">
        <ele>2092.1199999999999</ele>
        <time>2019-08-04T13:11:43Z</time>
      </trkpt>
      <trkpt lat="46.150744697079062" lon="8.148776879534125">
        <ele>2094.0599999999999</ele>
        <time>2019-08-04T13:11:53Z</time>
      </trkpt>
      <trkpt lat="46.150725251063704" lon="8.148838402703404">
        <ele>2095.3699999999999</ele>
        <time>2019-08-04T13:12:06Z</time>
      </trkpt>
      <trkpt lat="46.150751234963536" lon="8.148877546191216">
        <ele>2097.6700000000001</ele>
        <time>2019-08-04T13:12:19Z</time>
      </trkpt>
      <trkpt lat="46.150806890800595" lon="8.148853993043304">
        <ele>2099.71</ele>
        <time>2019-08-04T13:12:32Z</time>
      </trkpt>
      <trkpt lat="46.1508550029248" lon="8.148859273642302">
        <ele>2102.23</ele>
        <time>2019-08-04T13:12:44Z</time>
      </trkpt>
      <trkpt lat="46.150870090350509" lon="8.148920042440295">
        <ele>2103.5900000000001</ele>
        <time>2019-08-04T13:12:57Z</time>
      </trkpt>
      <trkpt lat="46.150890123099089" lon="8.148937057703733">
        <ele>2104.0599999999999</ele>
        <time>2019-08-04T13:13:01Z</time>
      </trkpt>
      <trkpt lat="46.15096396766603" lon="8.149020541459322">
        <ele>2104.9499999999998</ele>
        <time>2019-08-04T13:13:14Z</time>
      </trkpt>
      <trkpt lat="46.151023143902421" lon="8.149124728515744">
        <ele>2106.5799999999999</ele>
        <time>2019-08-04T13:13:27Z</time>
      </trkpt>
      <trkpt lat="46.151070585474372" lon="8.149170912802219">
        <ele>2108.8499999999999</ele>
        <time>2019-08-04T13:13:41Z</time>
      </trkpt>
      <trkpt lat="46.15110469982028" lon="8.149211732670665">
        <ele>2110.8400000000001</ele>
        <time>2019-08-04T13:13:55Z</time>
      </trkpt>
      <trkpt lat="46.151179298758507" lon="8.149202512577176">
        <ele>2112.4499999999998</ele>
        <time>2019-08-04T13:14:08Z</time>
      </trkpt>
      <trkpt lat="46.151228500530124" lon="8.149138642475009">
        <ele>2113.9400000000001</ele>
        <time>2019-08-04T13:14:20Z</time>
      </trkpt>
      <trkpt lat="46.151289688423276" lon="8.149226065725088">
        <ele>2115.7199999999998</ele>
        <time>2019-08-04T13:14:34Z</time>
      </trkpt>
      <trkpt lat="46.151305697858334" lon="8.149237800389528">
        <ele>2116.5100000000002</ele>
        <time>2019-08-04T13:14:37Z</time>
      </trkpt>
      <trkpt lat="46.151329502463341" lon="8.149261604994535">
        <ele>2116.3800000000001</ele>
        <time>2019-08-04T13:14:40Z</time>
      </trkpt>
      <trkpt lat="46.151431007310748" lon="8.149396553635597">
        <ele>2116.6500000000001</ele>
        <time>2019-08-04T13:14:56Z</time>
      </trkpt>
      <trkpt lat="46.151516754180193" lon="8.149501662701368">
        <ele>2117.9400000000001</ele>
        <time>2019-08-04T13:15:10Z</time>
      </trkpt>
      <trkpt lat="46.151559753343463" lon="8.149556899443269">
        <ele>2118.1999999999998</ele>
        <time>2019-08-04T13:15:24Z</time>
      </trkpt>
      <trkpt lat="46.151650529354811" lon="8.149634851142764">
        <ele>2119.1599999999999</ele>
        <time>2019-08-04T13:15:39Z</time>
      </trkpt>
      <trkpt lat="46.151713728904724" lon="8.149671060964465">
        <ele>2120.3099999999999</ele>
        <time>2019-08-04T13:15:53Z</time>
      </trkpt>
      <trkpt lat="46.151791429147124" lon="8.149744234979153">
        <ele>2121.9499999999998</ele>
        <time>2019-08-04T13:16:05Z</time>
      </trkpt>
      <trkpt lat="46.151805343106389" lon="8.149750772863627">
        <ele>2122.1399999999999</ele>
        <time>2019-08-04T13:16:07Z</time>
      </trkpt>
      <trkpt lat="46.151832919567823" lon="8.149768458679318">
        <ele>2122.52</ele>
        <time>2019-08-04T13:16:10Z</time>
      </trkpt>
      <trkpt lat="46.151945656165481" lon="8.149814559146762">
        <ele>2123.77</ele>
        <time>2019-08-04T13:16:24Z</time>
      </trkpt>
      <trkpt lat="46.15204188041389" lon="8.149860994890332">
        <ele>2123.7199999999998</ele>
        <time>2019-08-04T13:16:38Z</time>
      </trkpt>
      <trkpt lat="46.152145816013217" lon="8.149877591058612">
        <ele>2124.73</ele>
        <time>2019-08-04T13:16:54Z</time>
      </trkpt>
      <trkpt lat="46.152170123532414" lon="8.149865185841918">
        <ele>2126.4200000000001</ele>
        <time>2019-08-04T13:16:57Z</time>
      </trkpt>
      <trkpt lat="46.152248829603195" lon="8.149764016270638">
        <ele>2126.7800000000002</ele>
        <time>2019-08-04T13:17:11Z</time>
      </trkpt>
      <trkpt lat="46.152280597016215" lon="8.149683298543096">
        <ele>2126.73</ele>
        <time>2019-08-04T13:17:19Z</time>
      </trkpt>
      <trkpt lat="46.152397189289331" lon="8.149641053751111">
        <ele>2126.8600000000001</ele>
        <time>2019-08-04T13:17:33Z</time>
      </trkpt>
      <trkpt lat="46.152504645287991" lon="8.149653458967805">
        <ele>2127.5500000000002</ele>
        <time>2019-08-04T13:17:47Z</time>
      </trkpt>
      <trkpt lat="46.152617214247584" lon="8.149640131741762">
        <ele>2128.4699999999998</ele>
        <time>2019-08-04T13:18:01Z</time>
      </trkpt>
      <trkpt lat="46.152713019400835" lon="8.149685645475984">
        <ele>2130.6500000000001</ele>
        <time>2019-08-04T13:18:19Z</time>
      </trkpt>
      <trkpt lat="46.152773788198829" lon="8.149730321019888">
        <ele>2132.52</ele>
        <time>2019-08-04T13:18:32Z</time>
      </trkpt>
      <trkpt lat="46.152841849252582" lon="8.149729650467634">
        <ele>2133.7399999999998</ele>
        <time>2019-08-04T13:18:43Z</time>
      </trkpt>
      <trkpt lat="46.152906976640224" lon="8.149733757600188">
        <ele>2134.0900000000001</ele>
        <time>2019-08-04T13:18:53Z</time>
      </trkpt>
      <trkpt lat="46.152959112077951" lon="8.149853786453605">
        <ele>2136.1999999999998</ele>
        <time>2019-08-04T13:19:10Z</time>
      </trkpt>
      <trkpt lat="46.152926674112678" lon="8.149897372350097">
        <ele>2138.1599999999999</ele>
        <time>2019-08-04T13:19:21Z</time>
      </trkpt>
      <trkpt lat="46.152905635535717" lon="8.149972641840577">
        <ele>2140.4299999999998</ele>
        <time>2019-08-04T13:19:34Z</time>
      </trkpt>
      <trkpt lat="46.152906725183129" lon="8.150092167779803">
        <ele>2143.25</ele>
        <time>2019-08-04T13:19:47Z</time>
      </trkpt>
      <trkpt lat="46.152900941669941" lon="8.150225859135389">
        <ele>2145.3499999999999</ele>
        <time>2019-08-04T13:20:03Z</time>
      </trkpt>
      <trkpt lat="46.152920136228204" lon="8.150372710078955">
        <ele>2146.71</ele>
        <time>2019-08-04T13:20:16Z</time>
      </trkpt>
      <trkpt lat="46.152939582243562" lon="8.150582257658243">
        <ele>2147.3000000000002</ele>
        <time>2019-08-04T13:20:31Z</time>
      </trkpt>
      <trkpt lat="46.152931787073612" lon="8.150770766660571">
        <ele>2147.23</ele>
        <time>2019-08-04T13:20:44Z</time>
      </trkpt>
      <trkpt lat="46.152877137064934" lon="8.150958269834518">
        <ele>2148.1700000000001</ele>
        <time>2019-08-04T13:21:00Z</time>
      </trkpt>
      <trkpt lat="46.152846626937389" lon="8.151135630905628">
        <ele>2150.2199999999998</ele>
        <time>2019-08-04T13:21:16Z</time>
      </trkpt>
      <trkpt lat="46.152849560603499" lon="8.151311734691262">
        <ele>2151.04</ele>
        <time>2019-08-04T13:21:29Z</time>
      </trkpt>
      <trkpt lat="46.152851488441229" lon="8.151382897049189">
        <ele>2149.5700000000002</ele>
        <time>2019-08-04T13:21:34Z</time>
      </trkpt>
      <trkpt lat="46.152893817052245" lon="8.151529496535659">
        <ele>2149.5900000000001</ele>
        <time>2019-08-04T13:21:46Z</time>
      </trkpt>
      <trkpt lat="46.152933547273278" lon="8.151690764352679">
        <ele>2150.3299999999999</ele>
        <time>2019-08-04T13:21:59Z</time>
      </trkpt>
      <trkpt lat="46.15296489559114" lon="8.151778941974044">
        <ele>2150.75</ele>
        <time>2019-08-04T13:22:08Z</time>
      </trkpt>
      <trkpt lat="46.15296246483922" lon="8.151831496506929">
        <ele>2150.1999999999998</ele>
        <time>2019-08-04T13:22:12Z</time>
      </trkpt>
      <trkpt lat="46.152940420433879" lon="8.152018496766686">
        <ele>2149.5599999999999</ele>
        <time>2019-08-04T13:22:27Z</time>
      </trkpt>
      <trkpt lat="46.152898259460926" lon="8.152181943878532">
        <ele>2148.6799999999998</ele>
        <time>2019-08-04T13:22:40Z</time>
      </trkpt>
      <trkpt lat="46.15290186367929" lon="8.15235192887485">
        <ele>2149.0100000000002</ele>
        <time>2019-08-04T13:22:53Z</time>
      </trkpt>
      <trkpt lat="46.152917202562094" lon="8.152482938021421">
        <ele>2150.3000000000002</ele>
        <time>2019-08-04T13:23:05Z</time>
      </trkpt>
      <trkpt lat="46.152891805395484" lon="8.15263532102108">
        <ele>2150.1300000000001</ele>
        <time>2019-08-04T13:23:19Z</time>
      </trkpt>
      <trkpt lat="46.152884680777788" lon="8.152668178081513">
        <ele>2153.79</ele>
        <time>2019-08-04T13:23:23Z</time>
      </trkpt>
      <trkpt lat="46.152886273339391" lon="8.152678571641445">
        <ele>2153.6599999999999</ele>
        <time>2019-08-04T13:23:24Z</time>
      </trkpt>
      <trkpt lat="46.152895158156753" lon="8.152781585231423">
        <ele>2153.2800000000002</ele>
        <time>2019-08-04T13:23:34Z</time>
      </trkpt>
      <trkpt lat="46.152915945276618" lon="8.152871020138264">
        <ele>2153.4400000000001</ele>
        <time>2019-08-04T13:23:46Z</time>
      </trkpt>
      <trkpt lat="46.152913933619857" lon="8.152924999594688">
        <ele>2154.1500000000001</ele>
        <time>2019-08-04T13:23:58Z</time>
      </trkpt>
      <trkpt lat="46.152924997732043" lon="8.152950312942267">
        <ele>2153.77</ele>
        <time>2019-08-04T13:24:01Z</time>
      </trkpt>
      <trkpt lat="46.152948886156082" lon="8.152958191931248">
        <ele>2153.7399999999998</ele>
        <time>2019-08-04T13:24:04Z</time>
      </trkpt>
      <trkpt lat="46.152968667447567" lon="8.153034131973982">
        <ele>2153.7800000000002</ele>
        <time>2019-08-04T13:24:15Z</time>
      </trkpt>
      <trkpt lat="46.152967577800155" lon="8.153085513040423">
        <ele>2154.1900000000001</ele>
        <time>2019-08-04T13:24:25Z</time>
      </trkpt>
      <trkpt lat="46.152982665225863" lon="8.153145778924227">
        <ele>2155.5300000000002</ele>
        <time>2019-08-04T13:24:37Z</time>
      </trkpt>
      <trkpt lat="46.153005380183458" lon="8.153239823877811">
        <ele>2154.4000000000001</ele>
        <time>2019-08-04T13:24:50Z</time>
      </trkpt>
      <trkpt lat="46.15303136408329" lon="8.153324564918876">
        <ele>2155.4699999999998</ele>
        <time>2019-08-04T13:25:03Z</time>
      </trkpt>
      <trkpt lat="46.1530601978302" lon="8.153408132493496">
        <ele>2154</ele>
        <time>2019-08-04T13:25:14Z</time>
      </trkpt>
      <trkpt lat="46.153093473985791" lon="8.153471918776631">
        <ele>2154.5</ele>
        <time>2019-08-04T13:25:24Z</time>
      </trkpt>
      <trkpt lat="46.153127923607826" lon="8.153522294014692">
        <ele>2154.1399999999999</ele>
        <time>2019-08-04T13:25:35Z</time>
      </trkpt>
      <trkpt lat="46.153131611645222" lon="8.153618015348911">
        <ele>2151.5999999999999</ele>
        <time>2019-08-04T13:25:48Z</time>
      </trkpt>
      <trkpt lat="46.153128258883953" lon="8.153663445264101">
        <ele>2148.5500000000002</ele>
        <time>2019-08-04T13:25:58Z</time>
      </trkpt>
      <trkpt lat="46.153125492855906" lon="8.153669061139226">
        <ele>2148.29</ele>
        <time>2019-08-04T13:25:59Z</time>
      </trkpt>
      <trkpt lat="46.153136054053903" lon="8.153738547116518">
        <ele>2146.8899999999999</ele>
        <time>2019-08-04T13:26:11Z</time>
      </trkpt>
      <trkpt lat="46.153140412643552" lon="8.153777690604329">
        <ele>2143.8099999999999</ele>
        <time>2019-08-04T13:26:17Z</time>
      </trkpt>
      <trkpt lat="46.153132533654571" lon="8.153840722516179">
        <ele>2141.75</ele>
        <time>2019-08-04T13:26:28Z</time>
      </trkpt>
      <trkpt lat="46.153206629678607" lon="8.153939126059413">
        <ele>2138.5999999999999</ele>
        <time>2019-08-04T13:26:43Z</time>
      </trkpt>
      <trkpt lat="46.153218448162079" lon="8.154000649228692">
        <ele>2135.9200000000001</ele>
        <time>2019-08-04T13:26:53Z</time>
      </trkpt>
      <trkpt lat="46.153178131207824" lon="8.154035015031695">
        <ele>2132.8800000000001</ele>
        <time>2019-08-04T13:27:01Z</time>
      </trkpt>
      <trkpt lat="46.153129432350397" lon="8.154090670868754">
        <ele>2131.23</ele>
        <time>2019-08-04T13:27:13Z</time>
      </trkpt>
      <trkpt lat="46.153205456212163" lon="8.154146242886782">
        <ele>2129.8699999999999</ele>
        <time>2019-08-04T13:27:26Z</time>
      </trkpt>
      <trkpt lat="46.153250131756067" lon="8.154227463528514">
        <ele>2127.8099999999999</ele>
        <time>2019-08-04T13:27:40Z</time>
      </trkpt>
      <trkpt lat="46.153281815350056" lon="8.154296530410647">
        <ele>2128.0300000000002</ele>
        <time>2019-08-04T13:27:50Z</time>
      </trkpt>
      <trkpt lat="46.153337890282273" lon="8.154390743002296">
        <ele>2125.7600000000002</ele>
        <time>2019-08-04T13:28:05Z</time>
      </trkpt>
      <trkpt lat="46.153345517814159" lon="8.154469532892108">
        <ele>2123.52</ele>
        <time>2019-08-04T13:28:17Z</time>
      </trkpt>
      <trkpt lat="46.153360018506646" lon="8.154563410207629">
        <ele>2121.3699999999999</ele>
        <time>2019-08-04T13:28:30Z</time>
      </trkpt>
      <trkpt lat="46.153384828940034" lon="8.154631219804287">
        <ele>2119.5999999999999</ele>
        <time>2019-08-04T13:28:41Z</time>
      </trkpt>
      <trkpt lat="46.153417015448213" lon="8.15474521368742">
        <ele>2116.4699999999998</ele>
        <time>2019-08-04T13:28:55Z</time>
      </trkpt>
      <trkpt lat="46.153440903872252" lon="8.154855435714126">
        <ele>2114.4099999999999</ele>
        <time>2019-08-04T13:29:08Z</time>
      </trkpt>
      <trkpt lat="46.15343889221549" lon="8.154902290552855">
        <ele>2113.6300000000001</ele>
        <time>2019-08-04T13:29:21Z</time>
      </trkpt>
      <trkpt lat="46.15342372097075" lon="8.154942942783237">
        <ele>2111.5999999999999</ele>
        <time>2019-08-04T13:29:32Z</time>
      </trkpt>
      <trkpt lat="46.153417015448213" lon="8.155006729066372">
        <ele>2108.7399999999998</ele>
        <time>2019-08-04T13:29:43Z</time>
      </trkpt>
      <trkpt lat="46.153429336845875" lon="8.155084680765867">
        <ele>2107.3600000000001</ele>
        <time>2019-08-04T13:29:54Z</time>
      </trkpt>
      <trkpt lat="46.153451129794121" lon="8.155120136216283">
        <ele>2106.6799999999998</ele>
        <time>2019-08-04T13:30:06Z</time>
      </trkpt>
      <trkpt lat="46.153440568596125" lon="8.155153077095747">
        <ele>2105.79</ele>
        <time>2019-08-04T13:30:20Z</time>
      </trkpt>
      <trkpt lat="46.153438556939363" lon="8.155165985226631">
        <ele>2105.46</ele>
        <time>2019-08-04T13:30:38Z</time>
      </trkpt>
      <trkpt lat="46.153431432321668" lon="8.155221473425627">
        <ele>2103.8499999999999</ele>
        <time>2019-08-04T13:30:51Z</time>
      </trkpt>
      <trkpt lat="46.153432438150048" lon="8.155308645218611">
        <ele>2101.1799999999998</ele>
        <time>2019-08-04T13:31:05Z</time>
      </trkpt>
      <trkpt lat="46.153428498655558" lon="8.155401097610593">
        <ele>2098.0700000000002</ele>
        <time>2019-08-04T13:31:17Z</time>
      </trkpt>
      <trkpt lat="46.153441574424505" lon="8.155499501153827">
        <ele>2095.96</ele>
        <time>2019-08-04T13:31:29Z</time>
      </trkpt>
      <trkpt lat="46.153491362929344" lon="8.15563059411943">
        <ele>2093.71</ele>
        <time>2019-08-04T13:31:43Z</time>
      </trkpt>
      <trkpt lat="46.153536038473248" lon="8.155756909400225">
        <ele>2091.3800000000001</ele>
        <time>2019-08-04T13:31:56Z</time>
      </trkpt>
      <trkpt lat="46.153634274378419" lon="8.155830586329103">
        <ele>2090.3200000000002</ele>
        <time>2019-08-04T13:32:08Z</time>
      </trkpt>
      <trkpt lat="46.15378824993968" lon="8.155892696231604">
        <ele>2090.5300000000002</ele>
        <time>2019-08-04T13:32:25Z</time>
      </trkpt>
      <trkpt lat="46.153895705938339" lon="8.155930498614907">
        <ele>2090.0900000000001</ele>
        <time>2019-08-04T13:32:38Z</time>
      </trkpt>
      <trkpt lat="46.153934430330992" lon="8.155962936580181">
        <ele>2089.27</ele>
        <time>2019-08-04T13:32:43Z</time>
      </trkpt>
      <trkpt lat="46.153979441151023" lon="8.15606452524662">
        <ele>2087.5100000000002</ele>
        <time>2019-08-04T13:32:55Z</time>
      </trkpt>
      <trkpt lat="46.154004335403442" lon="8.156134681776166">
        <ele>2086.1399999999999</ele>
        <time>2019-08-04T13:33:02Z</time>
      </trkpt>
      <trkpt lat="46.154019590467215" lon="8.156183212995529">
        <ele>2085.46</ele>
        <time>2019-08-04T13:33:06Z</time>
      </trkpt>
      <trkpt lat="46.15410047583282" lon="8.156355628743768">
        <ele>2083.2399999999998</ele>
        <time>2019-08-04T13:33:22Z</time>
      </trkpt>
      <trkpt lat="46.154140792787075" lon="8.156399382278323">
        <ele>2083</ele>
        <time>2019-08-04T13:33:27Z</time>
      </trkpt>
      <trkpt lat="46.154195694252849" lon="8.156547322869301">
        <ele>2085.23</ele>
        <time>2019-08-04T13:33:42Z</time>
      </trkpt>
      <trkpt lat="46.154197035357356" lon="8.15656827762723">
        <ele>2085.3699999999999</ele>
        <time>2019-08-04T13:33:44Z</time>
      </trkpt>
      <trkpt lat="46.154222683981061" lon="8.156653773039579">
        <ele>2085.1100000000001</ele>
        <time>2019-08-04T13:33:51Z</time>
      </trkpt>
      <trkpt lat="46.154300970956683" lon="8.15681311301887">
        <ele>2085.52</ele>
        <time>2019-08-04T13:34:06Z</time>
      </trkpt>
      <trkpt lat="46.154333995655179" lon="8.156846472993493">
        <ele>2085.75</ele>
        <time>2019-08-04T13:34:18Z</time>
      </trkpt>
      <trkpt lat="46.154349585995078" lon="8.156845131888986">
        <ele>2085.3699999999999</ele>
        <time>2019-08-04T13:34:21Z</time>
      </trkpt>
      <trkpt lat="46.154368864372373" lon="8.156839851289988">
        <ele>2085.3099999999999</ele>
        <time>2019-08-04T13:34:23Z</time>
      </trkpt>
      <trkpt lat="46.154503896832466" lon="8.156822752207518">
        <ele>2085.6300000000001</ele>
        <time>2019-08-04T13:34:38Z</time>
      </trkpt>
      <trkpt lat="46.154597857967019" lon="8.156838342547417">
        <ele>2083.6199999999999</ele>
        <time>2019-08-04T13:34:51Z</time>
      </trkpt>
      <trkpt lat="46.154687628149986" lon="8.15690346993506">
        <ele>2080.9000000000001</ele>
        <time>2019-08-04T13:35:04Z</time>
      </trkpt>
      <trkpt lat="46.154709002003074" lon="8.156922832131386">
        <ele>2080.4099999999999</ele>
        <time>2019-08-04T13:35:07Z</time>
      </trkpt>
      <trkpt lat="46.154795503243804" lon="8.157014194875956">
        <ele>2078.8499999999999</ele>
        <time>2019-08-04T13:35:22Z</time>
      </trkpt>
      <trkpt lat="46.154831796884537" lon="8.157077059149742">
        <ele>2076.71</ele>
        <time>2019-08-04T13:35:32Z</time>
      </trkpt>
      <trkpt lat="46.154914358630776" lon="8.157123494893313">
        <ele>2073.8000000000002</ele>
        <time>2019-08-04T13:35:45Z</time>
      </trkpt>
      <trkpt lat="46.154957106336951" lon="8.157133804634213">
        <ele>2072</ele>
        <time>2019-08-04T13:35:52Z</time>
      </trkpt>
      <trkpt lat="46.155026508495212" lon="8.157212762162089">
        <ele>2069.6999999999998</ele>
        <time>2019-08-04T13:36:05Z</time>
      </trkpt>
      <trkpt lat="46.15510068833828" lon="8.157258527353406">
        <ele>2066.6700000000001</ele>
        <time>2019-08-04T13:36:18Z</time>
      </trkpt>
      <trkpt lat="46.155160702764988" lon="8.157255090773106">
        <ele>2064.0799999999999</ele>
        <time>2019-08-04T13:36:31Z</time>
      </trkpt>
      <trkpt lat="46.155214179307222" lon="8.157271351665258">
        <ele>2061.4400000000001</ele>
        <time>2019-08-04T13:36:43Z</time>
      </trkpt>
      <trkpt lat="46.155235134065151" lon="8.157311668619514">
        <ele>2059.6599999999999</ele>
        <time>2019-08-04T13:36:53Z</time>
      </trkpt>
      <trkpt lat="46.155279641970992" lon="8.157358858734369">
        <ele>2057.0100000000002</ele>
        <time>2019-08-04T13:37:06Z</time>
      </trkpt>
      <trkpt lat="46.155324904248118" lon="8.15736087039113">
        <ele>2054.0100000000002</ele>
        <time>2019-08-04T13:37:19Z</time>
      </trkpt>
      <trkpt lat="46.155377374961972" lon="8.157365899533033">
        <ele>2050.9899999999998</ele>
        <time>2019-08-04T13:37:33Z</time>
      </trkpt>
      <trkpt lat="46.155395898967981" lon="8.157427422702313">
        <ele>2048.0599999999999</ele>
        <time>2019-08-04T13:37:46Z</time>
      </trkpt>
      <trkpt lat="46.155423810705543" lon="8.157462207600474">
        <ele>2045.6099999999999</ele>
        <time>2019-08-04T13:37:57Z</time>
      </trkpt>
      <trkpt lat="46.155452728271484" lon="8.157507888972759">
        <ele>2043.0599999999999</ele>
        <time>2019-08-04T13:38:10Z</time>
      </trkpt>
      <trkpt lat="46.155499164015055" lon="8.157509816810489">
        <ele>2040.3299999999999</ele>
        <time>2019-08-04T13:38:23Z</time>
      </trkpt>
      <trkpt lat="46.155539061874151" lon="8.157493555918336">
        <ele>2037.9200000000001</ele>
        <time>2019-08-04T13:38:33Z</time>
      </trkpt>
      <trkpt lat="46.15558885037899" lon="8.157557677477598">
        <ele>2034.78</ele>
        <time>2019-08-04T13:38:47Z</time>
      </trkpt>
      <trkpt lat="46.155650038272142" lon="8.157516941428185">
        <ele>2032.0599999999999</ele>
        <time>2019-08-04T13:39:00Z</time>
      </trkpt>
      <trkpt lat="46.155707035213709" lon="8.157534459605813">
        <ele>2029.25</ele>
        <time>2019-08-04T13:39:11Z</time>
      </trkpt>
      <trkpt lat="46.155781215056777" lon="8.157568573951721">
        <ele>2026.04</ele>
        <time>2019-08-04T13:39:24Z</time>
      </trkpt>
      <trkpt lat="46.155830919742584" lon="8.157600089907646">
        <ele>2023.6900000000001</ele>
        <time>2019-08-04T13:39:35Z</time>
      </trkpt>
      <trkpt lat="46.155828572809696" lon="8.157676113769412">
        <ele>2022.1900000000001</ele>
        <time>2019-08-04T13:39:45Z</time>
      </trkpt>
      <trkpt lat="46.155865285545588" lon="8.157778037711978">
        <ele>2019.6099999999999</ele>
        <time>2019-08-04T13:39:58Z</time>
      </trkpt>
      <trkpt lat="46.155911386013031" lon="8.157805278897286">
        <ele>2017.4200000000001</ele>
        <time>2019-08-04T13:40:08Z</time>
      </trkpt>
      <trkpt lat="46.155967628583312" lon="8.157884739339352">
        <ele>2014.22</ele>
        <time>2019-08-04T13:40:21Z</time>
      </trkpt>
      <trkpt lat="46.156012052670121" lon="8.157961182296276">
        <ele>2011.05</ele>
        <time>2019-08-04T13:40:34Z</time>
      </trkpt>
      <trkpt lat="46.156063517555594" lon="8.157986244186759">
        <ele>2008.52</ele>
        <time>2019-08-04T13:40:42Z</time>
      </trkpt>
      <trkpt lat="46.156085981056094" lon="8.158063525334001">
        <ele>2006.8599999999999</ele>
        <time>2019-08-04T13:40:49Z</time>
      </trkpt>
      <trkpt lat="46.156135434284806" lon="8.158186655491591">
        <ele>2004.0699999999999</ele>
        <time>2019-08-04T13:41:02Z</time>
      </trkpt>
      <trkpt lat="46.156144822016358" lon="8.158187912777066">
        <ele>2003.79</ele>
        <time>2019-08-04T13:41:03Z</time>
      </trkpt>
      <trkpt lat="46.156215565279126" lon="8.158277263864875">
        <ele>2000.46</ele>
        <time>2019-08-04T13:41:16Z</time>
      </trkpt>
      <trkpt lat="46.156274573877454" lon="8.158374913036823">
        <ele>1998.3499999999999</ele>
        <time>2019-08-04T13:41:28Z</time>
      </trkpt>
      <trkpt lat="46.156295528635383" lon="8.158470215275884">
        <ele>1997.6199999999999</ele>
        <time>2019-08-04T13:41:38Z</time>
      </trkpt>
      <trkpt lat="46.156359231099486" lon="8.158568786457181">
        <ele>1995.79</ele>
        <time>2019-08-04T13:41:50Z</time>
      </trkpt>
      <trkpt lat="46.15645369514823" lon="8.158609103411436">
        <ele>1995.1600000000001</ele>
        <time>2019-08-04T13:42:03Z</time>
      </trkpt>
      <trkpt lat="46.156498538330197" lon="8.158674817532301">
        <ele>1995.0799999999999</ele>
        <time>2019-08-04T13:42:13Z</time>
      </trkpt>
      <trkpt lat="46.15650256164372" lon="8.158688312396407">
        <ele>1995.05</ele>
        <time>2019-08-04T13:42:27Z</time>
      </trkpt>
      <trkpt lat="46.156498286873102" lon="8.158703399822116">
        <ele>1994.04</ele>
        <time>2019-08-04T13:42:41Z</time>
      </trkpt>
      <trkpt lat="46.156497867777944" lon="8.158682277426124">
        <ele>1994.4300000000001</ele>
        <time>2019-08-04T13:43:07Z</time>
      </trkpt>
      <trkpt lat="46.156496945768595" lon="8.158690575510263">
        <ele>1993.26</ele>
        <time>2019-08-04T13:43:20Z</time>
      </trkpt>
      <trkpt lat="46.156503232195973" lon="8.158691246062517">
        <ele>1993.8900000000001</ele>
        <time>2019-08-04T13:43:36Z</time>
      </trkpt>
      <trkpt lat="46.156521588563919" lon="8.158681271597743">
        <ele>1994.24</ele>
        <time>2019-08-04T13:43:38Z</time>
      </trkpt>
      <trkpt lat="46.156589230522513" lon="8.158728210255504">
        <ele>1994.5</ele>
        <time>2019-08-04T13:43:47Z</time>
      </trkpt>
      <trkpt lat="46.156601384282112" lon="8.158748326823115">
        <ele>1993.05</ele>
        <time>2019-08-04T13:43:57Z</time>
      </trkpt>
      <trkpt lat="46.156599372625351" lon="8.15873977728188">
        <ele>1993.8699999999999</ele>
        <time>2019-08-04T13:44:16Z</time>
      </trkpt>
      <trkpt lat="46.156600713729858" lon="8.158745393157005">
        <ele>1993.2</ele>
        <time>2019-08-04T13:44:51Z</time>
      </trkpt>
      <trkpt lat="46.156599456444383" lon="8.158749584108591">
        <ele>1992.8699999999999</ele>
        <time>2019-08-04T13:45:56Z</time>
      </trkpt>
      <trkpt lat="46.156591577455401" lon="8.158746147528291">
        <ele>1992.95</ele>
        <time>2019-08-04T13:47:00Z</time>
      </trkpt>
      <trkpt lat="46.156602641567588" lon="8.158760145306587">
        <ele>1992.97</ele>
        <time>2019-08-04T13:47:51Z</time>
      </trkpt>
      <trkpt lat="46.156602222472429" lon="8.158759893849492">
        <ele>1992.95</ele>
        <time>2019-08-04T13:48:57Z</time>
      </trkpt>
      <trkpt lat="46.156594511121511" lon="8.158747823908925">
        <ele>1992.5999999999999</ele>
        <time>2019-08-04T13:49:55Z</time>
      </trkpt>
      <trkpt lat="46.156600378453732" lon="8.158738519996405">
        <ele>1992.5799999999999</ele>
        <time>2019-08-04T13:50:58Z</time>
      </trkpt>
      <trkpt lat="46.156615884974599" lon="8.158750087022781">
        <ele>1991.8699999999999</ele>
        <time>2019-08-04T13:51:49Z</time>
      </trkpt>
      <trkpt lat="46.156616387888789" lon="8.158737849444151">
        <ele>1991.73</ele>
        <time>2019-08-04T13:52:45Z</time>
      </trkpt>
      <trkpt lat="46.156611861661077" lon="8.158752853050828">
        <ele>1992.5799999999999</ele>
        <time>2019-08-04T13:53:47Z</time>
      </trkpt>
      <trkpt lat="46.156611358746886" lon="8.158754697069526">
        <ele>1992.1700000000001</ele>
        <time>2019-08-04T13:54:41Z</time>
      </trkpt>
      <trkpt lat="46.156602054834366" lon="8.158747823908925">
        <ele>1992.1800000000001</ele>
        <time>2019-08-04T13:55:49Z</time>
      </trkpt>
      <trkpt lat="46.156611694023013" lon="8.158754445612431">
        <ele>1992.3199999999999</ele>
        <time>2019-08-04T13:56:49Z</time>
      </trkpt>
      <trkpt lat="46.156608341261744" lon="8.158756289631128">
        <ele>1992.9100000000001</ele>
        <time>2019-08-04T13:57:53Z</time>
      </trkpt>
      <trkpt lat="46.1566002946347" lon="8.15876173786819">
        <ele>1992.75</ele>
        <time>2019-08-04T13:58:53Z</time>
      </trkpt>
      <trkpt lat="46.156600043177605" lon="8.158771125599742">
        <ele>1992.28</ele>
        <time>2019-08-04T13:59:44Z</time>
      </trkpt>
      <trkpt lat="46.156607754528522" lon="8.158761067315936">
        <ele>1992</ele>
        <time>2019-08-04T14:00:42Z</time>
      </trkpt>
      <trkpt lat="46.15659979172051" lon="8.158763330429792">
        <ele>1991.98</ele>
        <time>2019-08-04T14:01:23Z</time>
      </trkpt>
      <trkpt lat="46.156604904681444" lon="8.158751176670194">
        <ele>1992.46</ele>
        <time>2019-08-04T14:02:11Z</time>
      </trkpt>
      <trkpt lat="46.156605575233698" lon="8.158755535259843">
        <ele>1992.45</ele>
        <time>2019-08-04T14:03:04Z</time>
      </trkpt>
      <trkpt lat="46.156606581062078" lon="8.158759893849492">
        <ele>1992.6099999999999</ele>
        <time>2019-08-04T14:03:54Z</time>
      </trkpt>
      <trkpt lat="46.156606413424015" lon="8.158753607422113">
        <ele>1992.99</ele>
        <time>2019-08-04T14:04:41Z</time>
      </trkpt>
      <trkpt lat="46.156607922166586" lon="8.158764755353332">
        <ele>1992.8099999999999</ele>
        <time>2019-08-04T14:05:36Z</time>
      </trkpt>
      <trkpt lat="46.156605239957571" lon="8.158765845000744">
        <ele>1993.1500000000001</ele>
        <time>2019-08-04T14:06:28Z</time>
      </trkpt>
      <trkpt lat="46.156608257442713" lon="8.158765928819776">
        <ele>1992.8</ele>
        <time>2019-08-04T14:07:20Z</time>
      </trkpt>
      <trkpt lat="46.156611191108823" lon="8.15875880420208">
        <ele>1993.1400000000001</ele>
        <time>2019-08-04T14:08:13Z</time>
      </trkpt>
      <trkpt lat="46.15660909563303" lon="8.158760648220778">
        <ele>1992.9000000000001</ele>
        <time>2019-08-04T14:09:10Z</time>
      </trkpt>
      <trkpt lat="46.156611945480108" lon="8.158766767010093">
        <ele>1993.3299999999999</ele>
        <time>2019-08-04T14:10:05Z</time>
      </trkpt>
      <trkpt lat="46.156610017642379" lon="8.158760480582714">
        <ele>1993.23</ele>
        <time>2019-08-04T14:10:51Z</time>
      </trkpt>
      <trkpt lat="46.156613370403647" lon="8.158755535259843">
        <ele>1993.2</ele>
        <time>2019-08-04T14:11:53Z</time>
      </trkpt>
      <trkpt lat="46.15661496296525" lon="8.158763078972697">
        <ele>1993.6800000000001</ele>
        <time>2019-08-04T14:12:53Z</time>
      </trkpt>
      <trkpt lat="46.156618064269423" lon="8.158768694847822">
        <ele>1993.8299999999999</ele>
        <time>2019-08-04T14:13:45Z</time>
      </trkpt>
      <trkpt lat="46.156616304069757" lon="8.158761654049158">
        <ele>1993.79</ele>
        <time>2019-08-04T14:14:42Z</time>
      </trkpt>
      <trkpt lat="46.15662133321166" lon="8.158773221075535">
        <ele>1993.6800000000001</ele>
        <time>2019-08-04T14:15:13Z</time>
      </trkpt>
      <trkpt lat="46.156605156138539" lon="8.158780178055167">
        <ele>1994.3800000000001</ele>
        <time>2019-08-04T14:15:32Z</time>
      </trkpt>
      <trkpt lat="46.156602473929524" lon="8.158770371228457">
        <ele>1994.45</ele>
        <time>2019-08-04T14:15:45Z</time>
      </trkpt>
      <trkpt lat="46.156615549698472" lon="8.158768191933632">
        <ele>1994.4400000000001</ele>
        <time>2019-08-04T14:16:00Z</time>
      </trkpt>
      <trkpt lat="46.156613957136869" lon="8.158773304894567">
        <ele>1994.3199999999999</ele>
        <time>2019-08-04T14:16:21Z</time>
      </trkpt>
      <trkpt lat="46.156599456444383" lon="8.158776573836803">
        <ele>1995.1500000000001</ele>
        <time>2019-08-04T14:16:40Z</time>
      </trkpt>
      <trkpt lat="46.15655486471951" lon="8.158829463645816">
        <ele>1994.3699999999999</ele>
        <time>2019-08-04T14:16:52Z</time>
      </trkpt>
      <trkpt lat="46.156553523615003" lon="8.158827116712928">
        <ele>1994.25</ele>
        <time>2019-08-04T14:17:11Z</time>
      </trkpt>
      <trkpt lat="46.156551511958241" lon="8.158831391483545">
        <ele>1993.8699999999999</ele>
        <time>2019-08-04T14:17:31Z</time>
      </trkpt>
      <trkpt lat="46.156548243016005" lon="8.158826865255833">
        <ele>1994.1600000000001</ele>
        <time>2019-08-04T14:17:48Z</time>
      </trkpt>
      <trkpt lat="46.156504573300481" lon="8.158887466415763">
        <ele>1992.9100000000001</ele>
        <time>2019-08-04T14:17:59Z</time>
      </trkpt>
      <trkpt lat="46.156449671834707" lon="8.158883275464177">
        <ele>1991.5599999999999</ele>
        <time>2019-08-04T14:18:06Z</time>
      </trkpt>
      <trkpt lat="46.156363924965262" lon="8.158969022333622">
        <ele>1991.3499999999999</ele>
        <time>2019-08-04T14:18:19Z</time>
      </trkpt>
      <trkpt lat="46.156362080946565" lon="8.158969357609749">
        <ele>1991.3900000000001</ele>
        <time>2019-08-04T14:18:21Z</time>
      </trkpt>
      <trkpt lat="46.156309694051743" lon="8.159123668447137">
        <ele>1991.1800000000001</ele>
        <time>2019-08-04T14:18:35Z</time>
      </trkpt>
      <trkpt lat="46.156260408461094" lon="8.159219138324261">
        <ele>1991.02</ele>
        <time>2019-08-04T14:18:47Z</time>
      </trkpt>
      <trkpt lat="46.156242555007339" lon="8.159249229356647">
        <ele>1990.9100000000001</ele>
        <time>2019-08-04T14:18:50Z</time>
      </trkpt>
      <trkpt lat="46.156200813129544" lon="8.159370347857475">
        <ele>1992.1099999999999</ele>
        <time>2019-08-04T14:19:04Z</time>
      </trkpt>
      <trkpt lat="46.156160328537226" lon="8.159450478851795">
        <ele>1994.3399999999999</ele>
        <time>2019-08-04T14:19:17Z</time>
      </trkpt>
      <trkpt lat="46.156136021018028" lon="8.159530442208052">
        <ele>1996.72</ele>
        <time>2019-08-04T14:19:32Z</time>
      </trkpt>
      <trkpt lat="46.1560960393399" lon="8.159619122743607">
        <ele>1998.23</ele>
        <time>2019-08-04T14:19:44Z</time>
      </trkpt>
      <trkpt lat="46.156049100682139" lon="8.159721549600363">
        <ele>1999.3699999999999</ele>
        <time>2019-08-04T14:19:55Z</time>
      </trkpt>
      <trkpt lat="46.156000569462776" lon="8.159794891253114">
        <ele>1997.28</ele>
        <time>2019-08-04T14:20:06Z</time>
      </trkpt>
      <trkpt lat="46.155973244458437" lon="8.159926906228066">
        <ele>1996.3399999999999</ele>
        <time>2019-08-04T14:20:18Z</time>
      </trkpt>
      <trkpt lat="46.155960336327553" lon="8.159953560680151">
        <ele>1996.1500000000001</ele>
        <time>2019-08-04T14:20:20Z</time>
      </trkpt>
      <trkpt lat="46.15592747926712" lon="8.159999577328563">
        <ele>1996.1600000000001</ele>
        <time>2019-08-04T14:20:26Z</time>
      </trkpt>
      <trkpt lat="46.155874840915203" lon="8.160081887617707">
        <ele>1995.1199999999999</ele>
        <time>2019-08-04T14:20:37Z</time>
      </trkpt>
      <trkpt lat="46.155837960541248" lon="8.16014994867146">
        <ele>1993.3199999999999</ele>
        <time>2019-08-04T14:20:48Z</time>
      </trkpt>
      <trkpt lat="46.155821699649096" lon="8.16017534583807">
        <ele>1992.6900000000001</ele>
        <time>2019-08-04T14:20:51Z</time>
      </trkpt>
      <trkpt lat="46.155785489827394" lon="8.160285819321871">
        <ele>1992.3299999999999</ele>
        <time>2019-08-04T14:21:02Z</time>
      </trkpt>
      <trkpt lat="46.155793871730566" lon="8.160363351926208">
        <ele>1990.9000000000001</ele>
        <time>2019-08-04T14:21:14Z</time>
      </trkpt>
      <trkpt lat="46.155773000791669" lon="8.160444153472781">
        <ele>1988.95</ele>
        <time>2019-08-04T14:21:25Z</time>
      </trkpt>
      <trkpt lat="46.155773084610701" lon="8.160534845665097">
        <ele>1986.3800000000001</ele>
        <time>2019-08-04T14:21:37Z</time>
      </trkpt>
      <trkpt lat="46.155765373259783" lon="8.160578683018684">
        <ele>1985.8599999999999</ele>
        <time>2019-08-04T14:21:41Z</time>
      </trkpt>
      <trkpt lat="46.155693959444761" lon="8.160656467080116">
        <ele>1985.1300000000001</ele>
        <time>2019-08-04T14:21:54Z</time>
      </trkpt>
      <trkpt lat="46.155626233667135" lon="8.160680774599314">
        <ele>1984.0999999999999</ele>
        <time>2019-08-04T14:22:04Z</time>
      </trkpt>
      <trkpt lat="46.15555414929986" lon="8.160737603902817">
        <ele>1983.5699999999999</ele>
        <time>2019-08-04T14:22:17Z</time>
      </trkpt>
      <trkpt lat="46.155500840395689" lon="8.160809269174933">
        <ele>1982.3800000000001</ele>
        <time>2019-08-04T14:22:29Z</time>
      </trkpt>
      <trkpt lat="46.155451722443104" lon="8.160871462896466">
        <ele>1980.78</ele>
        <time>2019-08-04T14:22:40Z</time>
      </trkpt>
      <trkpt lat="46.155436132103205" lon="8.160973722115159">
        <ele>1978.75</ele>
        <time>2019-08-04T14:22:51Z</time>
      </trkpt>
      <trkpt lat="46.155424313619733" lon="8.161022253334522">
        <ele>1977.6400000000001</ele>
        <time>2019-08-04T14:22:55Z</time>
      </trkpt>
      <trkpt lat="46.155384499579668" lon="8.161172205582261">
        <ele>1975.6500000000001</ele>
        <time>2019-08-04T14:23:09Z</time>
      </trkpt>
      <trkpt lat="46.15538994781673" lon="8.161211768165231">
        <ele>1975.21</ele>
        <time>2019-08-04T14:23:12Z</time>
      </trkpt>
      <trkpt lat="46.155371675267816" lon="8.161291228607297">
        <ele>1974.3399999999999</ele>
        <time>2019-08-04T14:23:18Z</time>
      </trkpt>
      <trkpt lat="46.155300009995699" lon="8.161407988518477">
        <ele>1972.8900000000001</ele>
        <time>2019-08-04T14:23:31Z</time>
      </trkpt>
      <trkpt lat="46.155289700254798" lon="8.161552408710122">
        <ele>1971.77</ele>
        <time>2019-08-04T14:23:44Z</time>
      </trkpt>
      <trkpt lat="46.155238570645452" lon="8.161681657657027">
        <ele>1970.8800000000001</ele>
        <time>2019-08-04T14:23:55Z</time>
      </trkpt>
      <trkpt lat="46.155231110751629" lon="8.161808392032981">
        <ele>1970.1600000000001</ele>
        <time>2019-08-04T14:24:07Z</time>
      </trkpt>
      <trkpt lat="46.155222477391362" lon="8.161904281005263">
        <ele>1968.47</ele>
        <time>2019-08-04T14:24:19Z</time>
      </trkpt>
      <trkpt lat="46.155228344723582" lon="8.161986842751503">
        <ele>1967.4300000000001</ele>
        <time>2019-08-04T14:24:26Z</time>
      </trkpt>
      <trkpt lat="46.155232284218073" lon="8.162017101421952">
        <ele>1967.3900000000001</ele>
        <time>2019-08-04T14:24:28Z</time>
      </trkpt>
      <trkpt lat="46.155228009447455" lon="8.162219608202577">
        <ele>1967.21</ele>
        <time>2019-08-04T14:24:43Z</time>
      </trkpt>
      <trkpt lat="46.155217280611396" lon="8.162383558228612">
        <ele>1966.3900000000001</ele>
        <time>2019-08-04T14:24:56Z</time>
      </trkpt>
      <trkpt lat="46.155220801010728" lon="8.162557231262326">
        <ele>1966.3599999999999</ele>
        <time>2019-08-04T14:25:10Z</time>
      </trkpt>
      <trkpt lat="46.15522088482976" lon="8.162674997001886">
        <ele>1966.6900000000001</ele>
        <time>2019-08-04T14:25:20Z</time>
      </trkpt>
      <trkpt lat="46.155206300318241" lon="8.162862248718739">
        <ele>1966.3399999999999</ele>
        <time>2019-08-04T14:25:37Z</time>
      </trkpt>
      <trkpt lat="46.155202612280846" lon="8.163051679730415">
        <ele>1965.72</ele>
        <time>2019-08-04T14:25:51Z</time>
      </trkpt>
      <trkpt lat="46.155202193185687" lon="8.16317405551672">
        <ele>1965.9100000000001</ele>
        <time>2019-08-04T14:26:03Z</time>
      </trkpt>
      <trkpt lat="46.155133713036776" lon="8.163341861218214">
        <ele>1965.4100000000001</ele>
        <time>2019-08-04T14:26:19Z</time>
      </trkpt>
      <trkpt lat="46.155110830441117" lon="8.163487454876304">
        <ele>1964.4400000000001</ele>
        <time>2019-08-04T14:26:33Z</time>
      </trkpt>
      <trkpt lat="46.155135640874505" lon="8.163610501214862">
        <ele>1964.51</ele>
        <time>2019-08-04T14:26:46Z</time>
      </trkpt>
      <trkpt lat="46.15514175966382" lon="8.163678646087647">
        <ele>1964.21</ele>
        <time>2019-08-04T14:26:51Z</time>
      </trkpt>
      <trkpt lat="46.155188111588359" lon="8.163841925561428">
        <ele>1964.5699999999999</ele>
        <time>2019-08-04T14:27:06Z</time>
      </trkpt>
      <trkpt lat="46.155229099094868" lon="8.163955667987466">
        <ele>1964.9200000000001</ele>
        <time>2019-08-04T14:27:18Z</time>
      </trkpt>
      <trkpt lat="46.155301937833428" lon="8.164072763174772">
        <ele>1965.25</ele>
        <time>2019-08-04T14:27:32Z</time>
      </trkpt>
      <trkpt lat="46.155389025807381" lon="8.164142081514001">
        <ele>1965.6800000000001</ele>
        <time>2019-08-04T14:27:46Z</time>
      </trkpt>
      <trkpt lat="46.155482400208712" lon="8.164132777601481">
        <ele>1965.54</ele>
        <time>2019-08-04T14:27:58Z</time>
      </trkpt>
      <trkpt lat="46.155580468475819" lon="8.164198156446219">
        <ele>1964.95</ele>
        <time>2019-08-04T14:28:11Z</time>
      </trkpt>
      <trkpt lat="46.155646853148937" lon="8.164282981306315">
        <ele>1964.52</ele>
        <time>2019-08-04T14:28:23Z</time>
      </trkpt>
      <trkpt lat="46.15571977570653" lon="8.164363196119666">
        <ele>1963.1099999999999</ele>
        <time>2019-08-04T14:28:38Z</time>
      </trkpt>
      <trkpt lat="46.155773252248764" lon="8.164436034858227">
        <ele>1962.1600000000001</ele>
        <time>2019-08-04T14:28:50Z</time>
      </trkpt>
      <trkpt lat="46.155790686607361" lon="8.164497558027506">
        <ele>1961.3399999999999</ele>
        <time>2019-08-04T14:29:01Z</time>
      </trkpt>
      <trkpt lat="46.155855730175972" lon="8.164601242169738">
        <ele>1959.0599999999999</ele>
        <time>2019-08-04T14:29:15Z</time>
      </trkpt>
      <trkpt lat="46.155890012159944" lon="8.164664190262556">
        <ele>1957.0599999999999</ele>
        <time>2019-08-04T14:29:28Z</time>
      </trkpt>
      <trkpt lat="46.155887916684151" lon="8.164752619341016">
        <ele>1954.5799999999999</ele>
        <time>2019-08-04T14:29:41Z</time>
      </trkpt>
      <trkpt lat="46.15591767244041" lon="8.164797713980079">
        <ele>1952.4000000000001</ele>
        <time>2019-08-04T14:29:53Z</time>
      </trkpt>
      <trkpt lat="46.15596947260201" lon="8.164823362603784">
        <ele>1950.1700000000001</ele>
        <time>2019-08-04T14:30:07Z</time>
      </trkpt>
      <trkpt lat="46.156004928052425" lon="8.164880275726318">
        <ele>1947.6500000000001</ele>
        <time>2019-08-04T14:30:19Z</time>
      </trkpt>
      <trkpt lat="46.155982967466116" lon="8.164955545216799">
        <ele>1945.9000000000001</ele>
        <time>2019-08-04T14:30:29Z</time>
      </trkpt>
      <trkpt lat="46.156021021306515" lon="8.164988569915295">
        <ele>1942.78</ele>
        <time>2019-08-04T14:30:44Z</time>
      </trkpt>
      <trkpt lat="46.15603594109416" lon="8.165066856890917">
        <ele>1940.0899999999999</ele>
        <time>2019-08-04T14:30:57Z</time>
      </trkpt>
      <trkpt lat="46.156042143702507" lon="8.165162662044168">
        <ele>1937.5799999999999</ele>
        <time>2019-08-04T14:31:10Z</time>
      </trkpt>
      <trkpt lat="46.156123615801334" lon="8.165177581831813">
        <ele>1935.1500000000001</ele>
        <time>2019-08-04T14:31:23Z</time>
      </trkpt>
      <trkpt lat="46.156155467033386" lon="8.165215970948339">
        <ele>1933.4000000000001</ele>
        <time>2019-08-04T14:31:32Z</time>
      </trkpt>
      <trkpt lat="46.156210703775287" lon="8.165290737524629">
        <ele>1930.7</ele>
        <time>2019-08-04T14:31:45Z</time>
      </trkpt>
      <trkpt lat="46.156274741515517" lon="8.165321834385395">
        <ele>1928.74</ele>
        <time>2019-08-04T14:31:56Z</time>
      </trkpt>
      <trkpt lat="46.156342048197985" lon="8.165345555171371">
        <ele>1927.26</ele>
        <time>2019-08-04T14:32:08Z</time>
      </trkpt>
      <trkpt lat="46.156393345445395" lon="8.165385285392404">
        <ele>1925.2</ele>
        <time>2019-08-04T14:32:18Z</time>
      </trkpt>
      <trkpt lat="46.156484289094806" lon="8.165451418608427">
        <ele>1923.3900000000001</ele>
        <time>2019-08-04T14:32:31Z</time>
      </trkpt>
      <trkpt lat="46.156556708738208" lon="8.165520569309592">
        <ele>1921.53</ele>
        <time>2019-08-04T14:32:46Z</time>
      </trkpt>
      <trkpt lat="46.156630469486117" lon="8.165532220155001">
        <ele>1919.5999999999999</ele>
        <time>2019-08-04T14:32:58Z</time>
      </trkpt>
      <trkpt lat="46.156711019575596" lon="8.165584774687886">
        <ele>1917.1600000000001</ele>
        <time>2019-08-04T14:33:11Z</time>
      </trkpt>
      <trkpt lat="46.156788049265742" lon="8.165640598163009">
        <ele>1915.3699999999999</ele>
        <time>2019-08-04T14:33:23Z</time>
      </trkpt>
      <trkpt lat="46.156865246593952" lon="8.16570078022778">
        <ele>1913.21</ele>
        <time>2019-08-04T14:33:34Z</time>
      </trkpt>
      <trkpt lat="46.156957698985934" lon="8.165828604251146">
        <ele>1912.4100000000001</ele>
        <time>2019-08-04T14:33:47Z</time>
      </trkpt>
      <trkpt lat="46.157034309580922" lon="8.165879566222429">
        <ele>1912.3699999999999</ele>
        <time>2019-08-04T14:33:59Z</time>
      </trkpt>
      <trkpt lat="46.157100526615977" lon="8.165951315313578">
        <ele>1911.1700000000001</ele>
        <time>2019-08-04T14:34:12Z</time>
      </trkpt>
      <trkpt lat="46.157156517729163" lon="8.165987022221088">
        <ele>1909.79</ele>
        <time>2019-08-04T14:34:25Z</time>
      </trkpt>
      <trkpt lat="46.157228434458375" lon="8.16604376770556">
        <ele>1907.52</ele>
        <time>2019-08-04T14:34:39Z</time>
      </trkpt>
      <trkpt lat="46.157270763069391" lon="8.166074026376009">
        <ele>1906.02</ele>
        <time>2019-08-04T14:34:48Z</time>
      </trkpt>
      <trkpt lat="46.157310577109456" lon="8.16619816236198">
        <ele>1904.8699999999999</ele>
        <time>2019-08-04T14:35:01Z</time>
      </trkpt>
      <trkpt lat="46.15733471699059" lon="8.166311904788017">
        <ele>1903.48</ele>
        <time>2019-08-04T14:35:13Z</time>
      </trkpt>
      <trkpt lat="46.157352989539504" lon="8.166392287239432">
        <ele>1902.6900000000001</ele>
        <time>2019-08-04T14:35:21Z</time>
      </trkpt>
      <trkpt lat="46.157398587092757" lon="8.166539976373315">
        <ele>1901.28</ele>
        <time>2019-08-04T14:35:36Z</time>
      </trkpt>
      <trkpt lat="46.15740311332047" lon="8.166670566424727">
        <ele>1898.8699999999999</ele>
        <time>2019-08-04T14:35:49Z</time>
      </trkpt>
      <trkpt lat="46.157347457483411" lon="8.166770143434405">
        <ele>1896.8499999999999</ele>
        <time>2019-08-04T14:36:01Z</time>
      </trkpt>
      <trkpt lat="46.157318707555532" lon="8.166804509237409">
        <ele>1896.27</ele>
        <time>2019-08-04T14:36:07Z</time>
      </trkpt>
      <trkpt lat="46.157228602096438" lon="8.166911546140909">
        <ele>1894.6800000000001</ele>
        <time>2019-08-04T14:36:20Z</time>
      </trkpt>
      <trkpt lat="46.15722281858325" lon="8.16693895496428">
        <ele>1894.1199999999999</ele>
        <time>2019-08-04T14:36:22Z</time>
      </trkpt>
      <trkpt lat="46.157148303464055" lon="8.167078765109181">
        <ele>1893.5</ele>
        <time>2019-08-04T14:36:35Z</time>
      </trkpt>
      <trkpt lat="46.157128941267729" lon="8.167120590806007">
        <ele>1892.9400000000001</ele>
        <time>2019-08-04T14:36:44Z</time>
      </trkpt>
      <trkpt lat="46.157121816650033" lon="8.167151687666774">
        <ele>1892.4100000000001</ele>
        <time>2019-08-04T14:36:46Z</time>
      </trkpt>
      <trkpt lat="46.157085690647364" lon="8.167300717905164">
        <ele>1890.72</ele>
        <time>2019-08-04T14:36:59Z</time>
      </trkpt>
      <trkpt lat="46.157090552151203" lon="8.167380262166262">
        <ele>1891.05</ele>
        <time>2019-08-04T14:37:08Z</time>
      </trkpt>
      <trkpt lat="46.157078398391604" lon="8.167478581890464">
        <ele>1887.02</ele>
        <time>2019-08-04T14:37:20Z</time>
      </trkpt>
      <trkpt lat="46.157081834971905" lon="8.16748377867043">
        <ele>1887.22</ele>
        <time>2019-08-04T14:37:21Z</time>
      </trkpt>
      <trkpt lat="46.157090300694108" lon="8.167517557740212">
        <ele>1885.4400000000001</ele>
        <time>2019-08-04T14:37:25Z</time>
      </trkpt>
      <trkpt lat="46.157101448625326" lon="8.16756441257894">
        <ele>1884.6300000000001</ele>
        <time>2019-08-04T14:37:30Z</time>
      </trkpt>
      <trkpt lat="46.157092982903123" lon="8.167688045650721">
        <ele>1881.5599999999999</ele>
        <time>2019-08-04T14:37:44Z</time>
      </trkpt>
      <trkpt lat="46.157120056450367" lon="8.167810924351215">
        <ele>1878.55</ele>
        <time>2019-08-04T14:37:57Z</time>
      </trkpt>
      <trkpt lat="46.1571304500103" lon="8.167861048132181">
        <ele>1877.6199999999999</ele>
        <time>2019-08-04T14:38:02Z</time>
      </trkpt>
      <trkpt lat="46.157134892418981" lon="8.167991638183594">
        <ele>1874.3399999999999</ele>
        <time>2019-08-04T14:38:15Z</time>
      </trkpt>
      <trkpt lat="46.157122403383255" lon="8.168090377002955">
        <ele>1872.29</ele>
        <time>2019-08-04T14:38:27Z</time>
      </trkpt>
      <trkpt lat="46.15716515108943" lon="8.168175369501114">
        <ele>1870.27</ele>
        <time>2019-08-04T14:38:39Z</time>
      </trkpt>
      <trkpt lat="46.157184429466724" lon="8.168284166604281">
        <ele>1867.9000000000001</ele>
        <time>2019-08-04T14:38:51Z</time>
      </trkpt>
      <trkpt lat="46.157203037291765" lon="8.168368488550186">
        <ele>1865.3099999999999</ele>
        <time>2019-08-04T14:39:03Z</time>
      </trkpt>
      <trkpt lat="46.157193146646023" lon="8.168490026146174">
        <ele>1862.71</ele>
        <time>2019-08-04T14:39:16Z</time>
      </trkpt>
      <trkpt lat="46.157182669267058" lon="8.168606702238321">
        <ele>1860.6400000000001</ele>
        <time>2019-08-04T14:39:28Z</time>
      </trkpt>
      <trkpt lat="46.157200774177909" lon="8.168734861537814">
        <ele>1857.8199999999999</ele>
        <time>2019-08-04T14:39:40Z</time>
      </trkpt>
      <trkpt lat="46.157198427245021" lon="8.168826811015606">
        <ele>1856.4400000000001</ele>
        <time>2019-08-04T14:39:50Z</time>
      </trkpt>
      <trkpt lat="46.157198762521148" lon="8.168855141848326">
        <ele>1855.75</ele>
        <time>2019-08-04T14:39:52Z</time>
      </trkpt>
      <trkpt lat="46.157191805541515" lon="8.16899704746902">
        <ele>1852.53</ele>
        <time>2019-08-04T14:40:05Z</time>
      </trkpt>
      <trkpt lat="46.157212005928159" lon="8.169055385515094">
        <ele>1850.7</ele>
        <time>2019-08-04T14:40:15Z</time>
      </trkpt>
      <trkpt lat="46.157249473035336" lon="8.169125709682703">
        <ele>1848.4300000000001</ele>
        <time>2019-08-04T14:40:26Z</time>
      </trkpt>
      <trkpt lat="46.157268499955535" lon="8.169246409088373">
        <ele>1845.3900000000001</ele>
        <time>2019-08-04T14:40:39Z</time>
      </trkpt>
      <trkpt lat="46.15728291682899" lon="8.169295443221927">
        <ele>1845.02</ele>
        <time>2019-08-04T14:40:43Z</time>
      </trkpt>
      <trkpt lat="46.15725701674819" lon="8.169420920312405">
        <ele>1844.3199999999999</ele>
        <time>2019-08-04T14:40:53Z</time>
      </trkpt>
      <trkpt lat="46.157269673421979" lon="8.169629629701376">
        <ele>1843.1900000000001</ele>
        <time>2019-08-04T14:41:07Z</time>
      </trkpt>
      <trkpt lat="46.157213430851698" lon="8.169872369617224">
        <ele>1842.0599999999999</ele>
        <time>2019-08-04T14:41:23Z</time>
      </trkpt>
      <trkpt lat="46.157194152474403" lon="8.17001243121922">
        <ele>1841.3199999999999</ele>
        <time>2019-08-04T14:41:37Z</time>
      </trkpt>
      <trkpt lat="46.157179651781917" lon="8.170085689052939">
        <ele>1841.3699999999999</ele>
        <time>2019-08-04T14:41:45Z</time>
      </trkpt>
      <trkpt lat="46.157156601548195" lon="8.170171938836575">
        <ele>1841</ele>
        <time>2019-08-04T14:41:51Z</time>
      </trkpt>
      <trkpt lat="46.157095246016979" lon="8.170353742316365">
        <ele>1840.4000000000001</ele>
        <time>2019-08-04T14:42:06Z</time>
      </trkpt>
      <trkpt lat="46.156990304589272" lon="8.170590866357088">
        <ele>1839.6600000000001</ele>
        <time>2019-08-04T14:42:24Z</time>
      </trkpt>
      <trkpt lat="46.156885446980596" lon="8.170831175521016">
        <ele>1838.97</ele>
        <time>2019-08-04T14:42:42Z</time>
      </trkpt>
      <trkpt lat="46.156791569665074" lon="8.171053379774094">
        <ele>1838.0999999999999</ele>
        <time>2019-08-04T14:42:59Z</time>
      </trkpt>
      <trkpt lat="46.156686376780272" lon="8.171290336176753">
        <ele>1838.48</ele>
        <time>2019-08-04T14:43:17Z</time>
      </trkpt>
      <trkpt lat="46.15662083029747" lon="8.171446574851871">
        <ele>1837.8499999999999</ele>
        <time>2019-08-04T14:43:29Z</time>
      </trkpt>
      <trkpt lat="46.156517062336206" lon="8.171680010855198">
        <ele>1838.27</ele>
        <time>2019-08-04T14:43:47Z</time>
      </trkpt>
      <trkpt lat="46.156439781188965" lon="8.171864999458194">
        <ele>1837.49</ele>
        <time>2019-08-04T14:44:02Z</time>
      </trkpt>
      <trkpt lat="46.156431399285793" lon="8.171888804063201">
        <ele>1837.45</ele>
        <time>2019-08-04T14:44:04Z</time>
      </trkpt>
      <trkpt lat="46.15641999989748" lon="8.171974970027804">
        <ele>1837.46</ele>
        <time>2019-08-04T14:44:15Z</time>
      </trkpt>
      <trkpt lat="46.156429890543222" lon="8.172073876485229">
        <ele>1837.73</ele>
        <time>2019-08-04T14:44:24Z</time>
      </trkpt>
      <trkpt lat="46.156443301588297" lon="8.172135651111603">
        <ele>1837.3199999999999</ele>
        <time>2019-08-04T14:44:29Z</time>
      </trkpt>
      <trkpt lat="46.156473224982619" lon="8.172259703278542">
        <ele>1837.3199999999999</ele>
        <time>2019-08-04T14:44:42Z</time>
      </trkpt>
      <trkpt lat="46.156488480046391" lon="8.172373697161675">
        <ele>1836.9100000000001</ele>
        <time>2019-08-04T14:44:52Z</time>
      </trkpt>
      <trkpt lat="46.15649082697928" lon="8.172393562272191">
        <ele>1836.9400000000001</ele>
        <time>2019-08-04T14:44:54Z</time>
      </trkpt>
      <trkpt lat="46.156492251902819" lon="8.172527756541967">
        <ele>1836.76</ele>
        <time>2019-08-04T14:45:06Z</time>
      </trkpt>
      <trkpt lat="46.15653675980866" lon="8.172645019367337">
        <ele>1836.3</ele>
        <time>2019-08-04T14:45:18Z</time>
      </trkpt>
      <trkpt lat="46.156542543321848" lon="8.172664297744632">
        <ele>1836.3599999999999</ele>
        <time>2019-08-04T14:45:20Z</time>
      </trkpt>
      <trkpt lat="46.156527036800981" lon="8.172821206972003">
        <ele>1836.76</ele>
        <time>2019-08-04T14:45:33Z</time>
      </trkpt>
      <trkpt lat="46.156547488644719" lon="8.172933356836438">
        <ele>1837.1500000000001</ele>
        <time>2019-08-04T14:45:45Z</time>
      </trkpt>
      <trkpt lat="46.156574310734868" lon="8.173031760379672">
        <ele>1836.5999999999999</ele>
        <time>2019-08-04T14:45:57Z</time>
      </trkpt>
      <trkpt lat="46.156581602990627" lon="8.173168133944273">
        <ele>1836.6800000000001</ele>
        <time>2019-08-04T14:46:11Z</time>
      </trkpt>
      <trkpt lat="46.156611023470759" lon="8.173269052058458">
        <ele>1836.1099999999999</ele>
        <time>2019-08-04T14:46:22Z</time>
      </trkpt>
      <trkpt lat="46.156604988500476" lon="8.17333409562707">
        <ele>1835.79</ele>
        <time>2019-08-04T14:46:29Z</time>
      </trkpt>
      <trkpt lat="46.156587554141879" lon="8.173453537747264">
        <ele>1835.1400000000001</ele>
        <time>2019-08-04T14:46:39Z</time>
      </trkpt>
      <trkpt lat="46.156551763415337" lon="8.173603154718876">
        <ele>1834.55</ele>
        <time>2019-08-04T14:46:53Z</time>
      </trkpt>
      <trkpt lat="46.156532065942883" lon="8.173729972913861">
        <ele>1833.72</ele>
        <time>2019-08-04T14:47:06Z</time>
      </trkpt>
      <trkpt lat="46.156529299914837" lon="8.173825358971953">
        <ele>1833.27</ele>
        <time>2019-08-04T14:47:16Z</time>
      </trkpt>
      <trkpt lat="46.156486803665757" lon="8.173941615968943">
        <ele>1832.6500000000001</ele>
        <time>2019-08-04T14:47:28Z</time>
      </trkpt>
      <trkpt lat="46.156460316851735" lon="8.173983441665769">
        <ele>1832.5999999999999</ele>
        <time>2019-08-04T14:47:33Z</time>
      </trkpt>
      <trkpt lat="46.156437434256077" lon="8.174048569053412">
        <ele>1832.0899999999999</ele>
        <time>2019-08-04T14:47:41Z</time>
      </trkpt>
      <trkpt lat="46.156403152272105" lon="8.174107158556581">
        <ele>1831.5599999999999</ele>
        <time>2019-08-04T14:47:47Z</time>
      </trkpt>
      <trkpt lat="46.156353866681457" lon="8.174194917082787">
        <ele>1831.8</ele>
        <time>2019-08-04T14:47:57Z</time>
      </trkpt>
      <trkpt lat="46.15633056499064" lon="8.174275383353233">
        <ele>1831.2</ele>
        <time>2019-08-04T14:48:04Z</time>
      </trkpt>
      <trkpt lat="46.156321093440056" lon="8.174391472712159">
        <ele>1830.5999999999999</ele>
        <time>2019-08-04T14:48:16Z</time>
      </trkpt>
      <trkpt lat="46.15627583116293" lon="8.174492726102471">
        <ele>1829.8699999999999</ele>
        <time>2019-08-04T14:48:28Z</time>
      </trkpt>
      <trkpt lat="46.1562186665833" lon="8.174580316990614">
        <ele>1828.8</ele>
        <time>2019-08-04T14:48:39Z</time>
      </trkpt>
      <trkpt lat="46.156205087900162" lon="8.174666818231344">
        <ele>1826.96</ele>
        <time>2019-08-04T14:48:50Z</time>
      </trkpt>
      <trkpt lat="46.15619720891118" lon="8.174783494323492">
        <ele>1824.3499999999999</ele>
        <time>2019-08-04T14:49:03Z</time>
      </trkpt>
      <trkpt lat="46.156127890571952" lon="8.174807885661721">
        <ele>1822.45</ele>
        <time>2019-08-04T14:49:15Z</time>
      </trkpt>
      <trkpt lat="46.15611556917429" lon="8.174856165423989">
        <ele>1820.6900000000001</ele>
        <time>2019-08-04T14:49:26Z</time>
      </trkpt>
      <trkpt lat="46.156097464263439" lon="8.17492900416255">
        <ele>1818.3299999999999</ele>
        <time>2019-08-04T14:49:39Z</time>
      </trkpt>
      <trkpt lat="46.156065613031387" lon="8.174948282539845">
        <ele>1815.3199999999999</ele>
        <time>2019-08-04T14:49:46Z</time>
      </trkpt>
      <trkpt lat="46.15600073710084" lon="8.174990778788924">
        <ele>1814.26</ele>
        <time>2019-08-04T14:50:00Z</time>
      </trkpt>
      <trkpt lat="46.15594457834959" lon="8.175040567293763">
        <ele>1811.0799999999999</ele>
        <time>2019-08-04T14:50:13Z</time>
      </trkpt>
      <trkpt lat="46.155940135940909" lon="8.175045596435666">
        <ele>1810.6800000000001</ele>
        <time>2019-08-04T14:50:14Z</time>
      </trkpt>
      <trkpt lat="46.155889676883817" lon="8.175099575892091">
        <ele>1808.3099999999999</ele>
        <time>2019-08-04T14:50:25Z</time>
      </trkpt>
      <trkpt lat="46.155887246131897" lon="8.175171660259366">
        <ele>1806.1800000000001</ele>
        <time>2019-08-04T14:50:37Z</time>
      </trkpt>
      <trkpt lat="46.15584634244442" lon="8.175184736028314">
        <ele>1804.3900000000001</ele>
        <time>2019-08-04T14:50:47Z</time>
      </trkpt>
      <trkpt lat="46.155786998569965" lon="8.175260424613953">
        <ele>1802.1900000000001</ele>
        <time>2019-08-04T14:51:00Z</time>
      </trkpt>
      <trkpt lat="46.155758583918214" lon="8.175317756831646">
        <ele>1800.23</ele>
        <time>2019-08-04T14:51:09Z</time>
      </trkpt>
      <trkpt lat="46.155714495107532" lon="8.175372406840324">
        <ele>1797.47</ele>
        <time>2019-08-04T14:51:20Z</time>
      </trkpt>
      <trkpt lat="46.155674513429403" lon="8.175479443743825">
        <ele>1794.6600000000001</ele>
        <time>2019-08-04T14:51:34Z</time>
      </trkpt>
      <trkpt lat="46.155652217566967" lon="8.1755774281919">
        <ele>1792.5599999999999</ele>
        <time>2019-08-04T14:51:47Z</time>
      </trkpt>
      <trkpt lat="46.155627826228738" lon="8.175653871148825">
        <ele>1790.8399999999999</ele>
        <time>2019-08-04T14:51:59Z</time>
      </trkpt>
      <trkpt lat="46.155637800693512" lon="8.175743306055665">
        <ele>1788.55</ele>
        <time>2019-08-04T14:52:10Z</time>
      </trkpt>
      <trkpt lat="46.155598992481828" lon="8.175807427614927">
        <ele>1787.1300000000001</ele>
        <time>2019-08-04T14:52:20Z</time>
      </trkpt>
      <trkpt lat="46.155601004138589" lon="8.175879260525107">
        <ele>1784.99</ele>
        <time>2019-08-04T14:52:32Z</time>
      </trkpt>
      <trkpt lat="46.155542749911547" lon="8.175993505865336">
        <ele>1783.47</ele>
        <time>2019-08-04T14:52:45Z</time>
      </trkpt>
      <trkpt lat="46.155490195378661" lon="8.17600985057652">
        <ele>1781.76</ele>
        <time>2019-08-04T14:52:57Z</time>
      </trkpt>
      <trkpt lat="46.155463121831417" lon="8.176055112853646">
        <ele>1780.55</ele>
        <time>2019-08-04T14:53:08Z</time>
      </trkpt>
      <trkpt lat="46.15540268830955" lon="8.176163826137781">
        <ele>1777.9200000000001</ele>
        <time>2019-08-04T14:53:20Z</time>
      </trkpt>
      <trkpt lat="46.155380560085177" lon="8.176263151690364">
        <ele>1776.6300000000001</ele>
        <time>2019-08-04T14:53:32Z</time>
      </trkpt>
      <trkpt lat="46.15530981682241" lon="8.176347557455301">
        <ele>1774.9400000000001</ele>
        <time>2019-08-04T14:53:43Z</time>
      </trkpt>
      <trkpt lat="46.155270338058472" lon="8.17640757188201">
        <ele>1773.6800000000001</ele>
        <time>2019-08-04T14:53:53Z</time>
      </trkpt>
      <trkpt lat="46.155310403555632" lon="8.176498096436262">
        <ele>1772.1099999999999</ele>
        <time>2019-08-04T14:54:05Z</time>
      </trkpt>
      <trkpt lat="46.155353989452124" lon="8.176614353433251">
        <ele>1770.47</ele>
        <time>2019-08-04T14:54:18Z</time>
      </trkpt>
      <trkpt lat="46.15537921898067" lon="8.176711248233914">
        <ele>1769.3199999999999</ele>
        <time>2019-08-04T14:54:31Z</time>
      </trkpt>
      <trkpt lat="46.155390869826078" lon="8.176817614585161">
        <ele>1767.72</ele>
        <time>2019-08-04T14:54:42Z</time>
      </trkpt>
      <trkpt lat="46.155404280871153" lon="8.176909228786826">
        <ele>1766.76</ele>
        <time>2019-08-04T14:54:52Z</time>
      </trkpt>
      <trkpt lat="46.155399084091187" lon="8.177022216841579">
        <ele>1766.1099999999999</ele>
        <time>2019-08-04T14:55:03Z</time>
      </trkpt>
      <trkpt lat="46.155359605327249" lon="8.177108801901341">
        <ele>1765</ele>
        <time>2019-08-04T14:55:12Z</time>
      </trkpt>
      <trkpt lat="46.155384751036763" lon="8.177223382517695">
        <ele>1763.73</ele>
        <time>2019-08-04T14:55:24Z</time>
      </trkpt>
      <trkpt lat="46.155377877876163" lon="8.177341567352414">
        <ele>1761.9000000000001</ele>
        <time>2019-08-04T14:55:36Z</time>
      </trkpt>
      <trkpt lat="46.155331945046782" lon="8.177456818521023">
        <ele>1760.6400000000001</ele>
        <time>2019-08-04T14:55:47Z</time>
      </trkpt>
      <trkpt lat="46.155306631699204" lon="8.177475174888969">
        <ele>1760.6400000000001</ele>
        <time>2019-08-04T14:55:50Z</time>
      </trkpt>
      <trkpt lat="46.155227841809392" lon="8.177580954506993">
        <ele>1759.3399999999999</ele>
        <time>2019-08-04T14:56:04Z</time>
      </trkpt>
      <trkpt lat="46.155199175700545" lon="8.177683549001813">
        <ele>1757.28</ele>
        <time>2019-08-04T14:56:17Z</time>
      </trkpt>
      <trkpt lat="46.155129354447126" lon="8.177757561206818">
        <ele>1756.6500000000001</ele>
        <time>2019-08-04T14:56:28Z</time>
      </trkpt>
      <trkpt lat="46.155075877904892" lon="8.177866861224175">
        <ele>1755.77</ele>
        <time>2019-08-04T14:56:39Z</time>
      </trkpt>
      <trkpt lat="46.155016031116247" lon="8.177917320281267">
        <ele>1755.6099999999999</ele>
        <time>2019-08-04T14:56:49Z</time>
      </trkpt>
      <trkpt lat="46.154994573444128" lon="8.178023770451546">
        <ele>1753.9300000000001</ele>
        <time>2019-08-04T14:57:03Z</time>
      </trkpt>
      <trkpt lat="46.15496976301074" lon="8.178110690787435">
        <ele>1753.0799999999999</ele>
        <time>2019-08-04T14:57:15Z</time>
      </trkpt>
      <trkpt lat="46.154967667534947" lon="8.178222002461553">
        <ele>1751.3399999999999</ele>
        <time>2019-08-04T14:57:29Z</time>
      </trkpt>
      <trkpt lat="46.154933553189039" lon="8.178348317742348">
        <ele>1750.52</ele>
        <time>2019-08-04T14:57:42Z</time>
      </trkpt>
      <trkpt lat="46.154904467985034" lon="8.178479745984078">
        <ele>1749.9100000000001</ele>
        <time>2019-08-04T14:57:55Z</time>
      </trkpt>
      <trkpt lat="46.154899438843131" lon="8.178504221141338">
        <ele>1749.77</ele>
        <time>2019-08-04T14:57:57Z</time>
      </trkpt>
      <trkpt lat="46.154840178787708" lon="8.178608408197761">
        <ele>1748.9200000000001</ele>
        <time>2019-08-04T14:58:09Z</time>
      </trkpt>
      <trkpt lat="46.154811764135957" lon="8.178659789264202">
        <ele>1748.51</ele>
        <time>2019-08-04T14:58:15Z</time>
      </trkpt>
      <trkpt lat="46.15473372861743" lon="8.178759617730975">
        <ele>1747.5799999999999</ele>
        <time>2019-08-04T14:58:27Z</time>
      </trkpt>
      <trkpt lat="46.154695004224777" lon="8.178828181698918">
        <ele>1745.5899999999999</ele>
        <time>2019-08-04T14:58:37Z</time>
      </trkpt>
      <trkpt lat="46.15461596287787" lon="8.1788688339293">
        <ele>1743.6600000000001</ele>
        <time>2019-08-04T14:58:48Z</time>
      </trkpt>
      <trkpt lat="46.154540106654167" lon="8.17894360050559">
        <ele>1742.26</ele>
        <time>2019-08-04T14:59:01Z</time>
      </trkpt>
      <trkpt lat="46.154475314542651" lon="8.179019456729293">
        <ele>1740.73</ele>
        <time>2019-08-04T14:59:13Z</time>
      </trkpt>
      <trkpt lat="46.154430219903588" lon="8.179063964635134">
        <ele>1738.73</ele>
        <time>2019-08-04T14:59:26Z</time>
      </trkpt>
      <trkpt lat="46.154447235167027" lon="8.179143089801073">
        <ele>1736.8299999999999</ele>
        <time>2019-08-04T14:59:38Z</time>
      </trkpt>
      <trkpt lat="46.154457796365023" lon="8.179207043722272">
        <ele>1735.95</ele>
        <time>2019-08-04T14:59:48Z</time>
      </trkpt>
      <trkpt lat="46.154448827728629" lon="8.179266136139631">
        <ele>1734.3399999999999</ele>
        <time>2019-08-04T15:00:05Z</time>
      </trkpt>
      <trkpt lat="46.154443211853504" lon="8.179286001250148">
        <ele>1733.21</ele>
        <time>2019-08-04T15:00:07Z</time>
      </trkpt>
      <trkpt lat="46.15439023822546" lon="8.17937359213829">
        <ele>1731.6099999999999</ele>
        <time>2019-08-04T15:00:21Z</time>
      </trkpt>
      <trkpt lat="46.154369870200753" lon="8.179372670128942">
        <ele>1731.96</ele>
        <time>2019-08-04T15:00:41Z</time>
      </trkpt>
      <trkpt lat="46.154344892129302" lon="8.179409466683865">
        <ele>1731.8699999999999</ele>
        <time>2019-08-04T15:01:06Z</time>
      </trkpt>
      <trkpt lat="46.154357213526964" lon="8.179398234933615">
        <ele>1730.2</ele>
        <time>2019-08-04T15:01:20Z</time>
      </trkpt>
      <trkpt lat="46.154359560459852" lon="8.179383063688874">
        <ele>1730.04</ele>
        <time>2019-08-04T15:01:56Z</time>
      </trkpt>
      <trkpt lat="46.154363332316279" lon="8.179376358166337">
        <ele>1730.74</ele>
        <time>2019-08-04T15:02:09Z</time>
      </trkpt>
      <trkpt lat="46.1543726362288" lon="8.179353978484869">
        <ele>1730.6099999999999</ele>
        <time>2019-08-04T15:02:21Z</time>
      </trkpt>
      <trkpt lat="46.154394429177046" lon="8.179438635706902">
        <ele>1730.0999999999999</ele>
        <time>2019-08-04T15:02:32Z</time>
      </trkpt>
      <trkpt lat="46.154415551573038" lon="8.179533686488867">
        <ele>1728.77</ele>
        <time>2019-08-04T15:02:49Z</time>
      </trkpt>
      <trkpt lat="46.154411612078547" lon="8.179666623473167">
        <ele>1726.96</ele>
        <time>2019-08-04T15:03:03Z</time>
      </trkpt>
      <trkpt lat="46.154389986768365" lon="8.179761590436101">
        <ele>1725.1900000000001</ele>
        <time>2019-08-04T15:03:16Z</time>
      </trkpt>
      <trkpt lat="46.154408678412437" lon="8.179846750572324">
        <ele>1724.0899999999999</ele>
        <time>2019-08-04T15:03:30Z</time>
      </trkpt>
      <trkpt lat="46.154400380328298" lon="8.17996091209352">
        <ele>1721.8699999999999</ele>
        <time>2019-08-04T15:03:46Z</time>
      </trkpt>
      <trkpt lat="46.154368445277214" lon="8.180050849914551">
        <ele>1720.0999999999999</ele>
        <time>2019-08-04T15:03:57Z</time>
      </trkpt>
      <trkpt lat="46.15429887548089" lon="8.180163921788335">
        <ele>1718.54</ele>
        <time>2019-08-04T15:04:11Z</time>
      </trkpt>
      <trkpt lat="46.154230982065201" lon="8.180248076096177">
        <ele>1717.0899999999999</ele>
        <time>2019-08-04T15:04:22Z</time>
      </trkpt>
      <trkpt lat="46.154181696474552" lon="8.180356873199344">
        <ele>1715.1300000000001</ele>
        <time>2019-08-04T15:04:34Z</time>
      </trkpt>
      <trkpt lat="46.154150683432817" lon="8.18051990121603">
        <ele>1713.6600000000001</ele>
        <time>2019-08-04T15:04:49Z</time>
      </trkpt>
      <trkpt lat="46.154083712026477" lon="8.180611347779632">
        <ele>1712.2</ele>
        <time>2019-08-04T15:05:01Z</time>
      </trkpt>
      <trkpt lat="46.154036857187748" lon="8.180727269500494">
        <ele>1710.72</ele>
        <time>2019-08-04T15:05:14Z</time>
      </trkpt>
      <trkpt lat="46.153992433100939" lon="8.180857775732875">
        <ele>1708.29</ele>
        <time>2019-08-04T15:05:28Z</time>
      </trkpt>
      <trkpt lat="46.153978100046515" lon="8.181002195924521">
        <ele>1705.9000000000001</ele>
        <time>2019-08-04T15:05:43Z</time>
      </trkpt>
      <trkpt lat="46.153964102268219" lon="8.181163044646382">
        <ele>1704.3800000000001</ele>
        <time>2019-08-04T15:05:56Z</time>
      </trkpt>
      <trkpt lat="46.15393484942615" lon="8.181279301643372">
        <ele>1703.0999999999999</ele>
        <time>2019-08-04T15:06:07Z</time>
      </trkpt>
      <trkpt lat="46.153930574655533" lon="8.18145121447742">
        <ele>1701.6300000000001</ele>
        <time>2019-08-04T15:06:20Z</time>
      </trkpt>
      <trkpt lat="46.153912218287587" lon="8.181593623012304">
        <ele>1700.5699999999999</ele>
        <time>2019-08-04T15:06:31Z</time>
      </trkpt>
      <trkpt lat="46.153904087841511" lon="8.181616421788931">
        <ele>1700.4000000000001</ele>
        <time>2019-08-04T15:06:33Z</time>
      </trkpt>
      <trkpt lat="46.153851700946689" lon="8.181718345731497">
        <ele>1699.3099999999999</ele>
        <time>2019-08-04T15:06:44Z</time>
      </trkpt>
      <trkpt lat="46.153839714825153" lon="8.18186217918992">
        <ele>1698.0599999999999</ele>
        <time>2019-08-04T15:06:58Z</time>
      </trkpt>
      <trkpt lat="46.153852203860879" lon="8.181986398994923">
        <ele>1696.1300000000001</ele>
        <time>2019-08-04T15:07:13Z</time>
      </trkpt>
      <trkpt lat="46.153827561065555" lon="8.182144984602928">
        <ele>1695.04</ele>
        <time>2019-08-04T15:07:24Z</time>
      </trkpt>
      <trkpt lat="46.153846252709627" lon="8.182290410622954">
        <ele>1694</ele>
        <time>2019-08-04T15:07:36Z</time>
      </trkpt>
      <trkpt lat="46.15385178476572" lon="8.182337433099747">
        <ele>1693.71</ele>
        <time>2019-08-04T15:07:39Z</time>
      </trkpt>
      <trkpt lat="46.153847174718976" lon="8.182364758104086">
        <ele>1693.6199999999999</ele>
        <time>2019-08-04T15:07:41Z</time>
      </trkpt>
      <trkpt lat="46.153852539137006" lon="8.182396274060011">
        <ele>1693.26</ele>
        <time>2019-08-04T15:07:43Z</time>
      </trkpt>
      <trkpt lat="46.153841055929661" lon="8.182530468329787">
        <ele>1692.3299999999999</ele>
        <time>2019-08-04T15:07:54Z</time>
      </trkpt>
      <trkpt lat="46.153838038444519" lon="8.182584280148149">
        <ele>1692.21</ele>
        <time>2019-08-04T15:07:58Z</time>
      </trkpt>
      <trkpt lat="46.153826471418142" lon="8.182641863822937">
        <ele>1691.49</ele>
        <time>2019-08-04T15:08:03Z</time>
      </trkpt>
      <trkpt lat="46.153818592429161" lon="8.182741859927774">
        <ele>1690.6099999999999</ele>
        <time>2019-08-04T15:08:11Z</time>
      </trkpt>
      <trkpt lat="46.153771821409464" lon="8.18287412635982">
        <ele>1689.1900000000001</ele>
        <time>2019-08-04T15:08:23Z</time>
      </trkpt>
      <trkpt lat="46.153712142258883" lon="8.182952413335443">
        <ele>1686.49</ele>
        <time>2019-08-04T15:08:37Z</time>
      </trkpt>
      <trkpt lat="46.153634944930673" lon="8.183013182133436">
        <ele>1685.26</ele>
        <time>2019-08-04T15:08:49Z</time>
      </trkpt>
      <trkpt lat="46.1535869166255" lon="8.183141257613897">
        <ele>1685.55</ele>
        <time>2019-08-04T15:09:02Z</time>
      </trkpt>
      <trkpt lat="46.153594460338354" lon="8.183172019198537">
        <ele>1685.45</ele>
        <time>2019-08-04T15:09:05Z</time>
      </trkpt>
      <trkpt lat="46.153591861948371" lon="8.183259274810553">
        <ele>1684.5899999999999</ele>
        <time>2019-08-04T15:09:14Z</time>
      </trkpt>
      <trkpt lat="46.153597394004464" lon="8.183268746361136">
        <ele>1684.48</ele>
        <time>2019-08-04T15:09:15Z</time>
      </trkpt>
      <trkpt lat="46.153640896081924" lon="8.183413250371814">
        <ele>1682.8900000000001</ele>
        <time>2019-08-04T15:09:28Z</time>
      </trkpt>
      <trkpt lat="46.153604183346033" lon="8.183533949777484">
        <ele>1681.0599999999999</ele>
        <time>2019-08-04T15:09:41Z</time>
      </trkpt>
      <trkpt lat="46.153596974909306" lon="8.183605782687664">
        <ele>1680.5</ele>
        <time>2019-08-04T15:09:47Z</time>
      </trkpt>
      <trkpt lat="46.153608122840524" lon="8.183641070500016">
        <ele>1680.1500000000001</ele>
        <time>2019-08-04T15:09:50Z</time>
      </trkpt>
      <trkpt lat="46.153618432581425" lon="8.183690439909697">
        <ele>1679.7</ele>
        <time>2019-08-04T15:09:54Z</time>
      </trkpt>
      <trkpt lat="46.153637794777751" lon="8.183746011927724">
        <ele>1679.75</ele>
        <time>2019-08-04T15:09:58Z</time>
      </trkpt>
      <trkpt lat="46.153650702908635" lon="8.183861598372459">
        <ele>1679.3299999999999</ele>
        <time>2019-08-04T15:10:08Z</time>
      </trkpt>
      <trkpt lat="46.15366704761982" lon="8.183887582272291">
        <ele>1679.3299999999999</ele>
        <time>2019-08-04T15:10:10Z</time>
      </trkpt>
      <trkpt lat="46.153662605211139" lon="8.183942399919033">
        <ele>1679.3499999999999</ele>
        <time>2019-08-04T15:10:20Z</time>
      </trkpt>
      <trkpt lat="46.153674926608801" lon="8.183958241716027">
        <ele>1679.6300000000001</ele>
        <time>2019-08-04T15:10:40Z</time>
      </trkpt>
      <trkpt lat="46.153695378452539" lon="8.183967210352421">
        <ele>1679.02</ele>
        <time>2019-08-04T15:10:59Z</time>
      </trkpt>
      <trkpt lat="46.153675261884928" lon="8.18396620452404">
        <ele>1679.1400000000001</ele>
        <time>2019-08-04T15:11:17Z</time>
      </trkpt>
      <trkpt lat="46.153641063719988" lon="8.184006940573454">
        <ele>1679.22</ele>
        <time>2019-08-04T15:11:32Z</time>
      </trkpt>
      <trkpt lat="46.153639554977417" lon="8.183996295556426">
        <ele>1679.1700000000001</ele>
        <time>2019-08-04T15:11:52Z</time>
      </trkpt>
      <trkpt lat="46.153671825304627" lon="8.183975759893656">
        <ele>1679.1600000000001</ele>
        <time>2019-08-04T15:12:16Z</time>
      </trkpt>
      <trkpt lat="46.153683559969068" lon="8.183966958895326">
        <ele>1679.0699999999999</ele>
        <time>2019-08-04T15:12:33Z</time>
      </trkpt>
      <trkpt lat="46.153695462271571" lon="8.18396033719182">
        <ele>1679.29</ele>
        <time>2019-08-04T15:13:05Z</time>
      </trkpt>
      <trkpt lat="46.15369294770062" lon="8.184018842875958">
        <ele>1678.9000000000001</ele>
        <time>2019-08-04T15:13:16Z</time>
      </trkpt>
      <trkpt lat="46.153663778677583" lon="8.184104757383466">
        <ele>1679.04</ele>
        <time>2019-08-04T15:13:27Z</time>
      </trkpt>
      <trkpt lat="46.153652044013143" lon="8.18409712985158">
        <ele>1679.02</ele>
        <time>2019-08-04T15:13:38Z</time>
      </trkpt>
      <trkpt lat="46.153646931052208" lon="8.184152282774448">
        <ele>1678.8800000000001</ele>
        <time>2019-08-04T15:13:47Z</time>
      </trkpt>
      <trkpt lat="46.153621198609471" lon="8.184240544214845">
        <ele>1678.5599999999999</ele>
        <time>2019-08-04T15:14:01Z</time>
      </trkpt>
      <trkpt lat="46.153632514178753" lon="8.184250351041555">
        <ele>1678.3800000000001</ele>
        <time>2019-08-04T15:14:14Z</time>
      </trkpt>
      <trkpt lat="46.153633771464229" lon="8.184252446517348">
        <ele>1670.3499999999999</ele>
        <time>2019-08-04T15:14:17Z</time>
      </trkpt>
      <trkpt lat="46.153632095083594" lon="8.184251859784126">
        <ele>1676.8</ele>
        <time>2019-08-04T15:14:18Z</time>
      </trkpt>
      <trkpt lat="46.153634693473577" lon="8.184253284707665">
        <ele>1680.6099999999999</ele>
        <time>2019-08-04T15:14:20Z</time>
      </trkpt>
      <trkpt lat="46.153631592169404" lon="8.184250853955746">
        <ele>1680.5999999999999</ele>
        <time>2019-08-04T15:14:21Z</time>
      </trkpt>
      <trkpt lat="46.153595801442862" lon="8.184235095977783">
        <ele>1678.1199999999999</ele>
        <time>2019-08-04T15:14:42Z</time>
      </trkpt>
      <trkpt lat="46.153630251064897" lon="8.184256721287966">
        <ele>1677.46</ele>
        <time>2019-08-04T15:15:03Z</time>
      </trkpt>
      <trkpt lat="46.153639890253544" lon="8.184267533943057">
        <ele>1678.22</ele>
        <time>2019-08-04T15:15:33Z</time>
      </trkpt>
      <trkpt lat="46.153632933273911" lon="8.184268036857247">
        <ele>1678.24</ele>
        <time>2019-08-04T15:16:01Z</time>
      </trkpt>
      <trkpt lat="46.153634274378419" lon="8.184265522286296">
        <ele>1678.4200000000001</ele>
        <time>2019-08-04T15:16:25Z</time>
      </trkpt>
      <trkpt lat="46.153639554977417" lon="8.184229815378785">
        <ele>1678.3699999999999</ele>
        <time>2019-08-04T15:16:53Z</time>
      </trkpt>
      <trkpt lat="46.153646679595113" lon="8.184228390455246">
        <ele>1678.28</ele>
        <time>2019-08-04T15:17:26Z</time>
      </trkpt>
      <trkpt lat="46.153657240793109" lon="8.18422956392169">
        <ele>1678.3499999999999</ele>
        <time>2019-08-04T15:17:55Z</time>
      </trkpt>
      <trkpt lat="46.153688924387097" lon="8.18421883508563">
        <ele>1678.28</ele>
        <time>2019-08-04T15:18:23Z</time>
      </trkpt>
      <trkpt lat="46.153685571625829" lon="8.184264684095979">
        <ele>1678.79</ele>
        <time>2019-08-04T15:18:44Z</time>
      </trkpt>
      <trkpt lat="46.153625892475247" lon="8.184389574453235">
        <ele>1678.99</ele>
        <time>2019-08-04T15:18:55Z</time>
      </trkpt>
      <trkpt lat="46.153529081493616" lon="8.184556793421507">
        <ele>1677.8800000000001</ele>
        <time>2019-08-04T15:19:10Z</time>
      </trkpt>
      <trkpt lat="46.153469569981098" lon="8.184649497270584">
        <ele>1675.3599999999999</ele>
        <time>2019-08-04T15:19:18Z</time>
      </trkpt>
      <trkpt lat="46.153445430099964" lon="8.184674391523004">
        <ele>1678.3199999999999</ele>
        <time>2019-08-04T15:19:21Z</time>
      </trkpt>
      <trkpt lat="46.153425984084606" lon="8.184696771204472">
        <ele>1677.0699999999999</ele>
        <time>2019-08-04T15:19:23Z</time>
      </trkpt>
      <trkpt lat="46.15332649089396" lon="8.184823505580425">
        <ele>1676.45</ele>
        <time>2019-08-04T15:19:35Z</time>
      </trkpt>
      <trkpt lat="46.15331768989563" lon="8.184833647683263">
        <ele>1676.4200000000001</ele>
        <time>2019-08-04T15:19:36Z</time>
      </trkpt>
      <trkpt lat="46.15320973098278" lon="8.18497127853334">
        <ele>1675.8599999999999</ele>
        <time>2019-08-04T15:19:49Z</time>
      </trkpt>
      <trkpt lat="46.153174694627523" lon="8.185108322650194">
        <ele>1675.5899999999999</ele>
        <time>2019-08-04T15:20:01Z</time>
      </trkpt>
      <trkpt lat="46.153121469542384" lon="8.185340333729982">
        <ele>1675.3099999999999</ele>
        <time>2019-08-04T15:20:16Z</time>
      </trkpt>
      <trkpt lat="46.153090791776776" lon="8.185406969860196">
        <ele>1675.02</ele>
        <time>2019-08-04T15:20:22Z</time>
      </trkpt>
      <trkpt lat="46.152999680489302" lon="8.185509648174048">
        <ele>1673.8399999999999</ele>
        <time>2019-08-04T15:20:34Z</time>
      </trkpt>
      <trkpt lat="46.152954669669271" lon="8.185589779168367">
        <ele>1673.24</ele>
        <time>2019-08-04T15:20:40Z</time>
      </trkpt>
      <trkpt lat="46.152902450412512" lon="8.18577216938138">
        <ele>1672.2</ele>
        <time>2019-08-04T15:20:53Z</time>
      </trkpt>
      <trkpt lat="46.152872359380126" lon="8.185848528519273">
        <ele>1671.22</ele>
        <time>2019-08-04T15:20:59Z</time>
      </trkpt>
      <trkpt lat="46.152842100709677" lon="8.186060590669513">
        <ele>1670.28</ele>
        <time>2019-08-04T15:21:13Z</time>
      </trkpt>
      <trkpt lat="46.15284712985158" lon="8.186213476583362">
        <ele>1670.51</ele>
        <time>2019-08-04T15:21:24Z</time>
      </trkpt>
      <trkpt lat="46.152803041040897" lon="8.18638832308352">
        <ele>1670.1300000000001</ele>
        <time>2019-08-04T15:21:38Z</time>
      </trkpt>
      <trkpt lat="46.15277923643589" lon="8.186402404680848">
        <ele>1669.9000000000001</ele>
        <time>2019-08-04T15:21:40Z</time>
      </trkpt>
      <trkpt lat="46.152654178440571" lon="8.186495359987021">
        <ele>1668.4400000000001</ele>
        <time>2019-08-04T15:21:53Z</time>
      </trkpt>
      <trkpt lat="46.152591314166784" lon="8.186555793508887">
        <ele>1667.05</ele>
        <time>2019-08-04T15:22:02Z</time>
      </trkpt>
      <trkpt lat="46.152523588389158" lon="8.186691580340266">
        <ele>1664.99</ele>
        <time>2019-08-04T15:22:15Z</time>
      </trkpt>
      <trkpt lat="46.152516799047589" lon="8.186699459329248">
        <ele>1664.77</ele>
        <time>2019-08-04T15:22:16Z</time>
      </trkpt>
      <trkpt lat="46.152418982237577" lon="8.186847399920225">
        <ele>1662.1900000000001</ele>
        <time>2019-08-04T15:22:30Z</time>
      </trkpt>
      <trkpt lat="46.152355447411537" lon="8.18698251619935">
        <ele>1661.3099999999999</ele>
        <time>2019-08-04T15:22:41Z</time>
      </trkpt>
      <trkpt lat="46.152322925627232" lon="8.187023252248764">
        <ele>1660.98</ele>
        <time>2019-08-04T15:22:45Z</time>
      </trkpt>
      <trkpt lat="46.152291744947433" lon="8.187209498137236">
        <ele>1660.3499999999999</ele>
        <time>2019-08-04T15:22:58Z</time>
      </trkpt>
      <trkpt lat="46.152298031374812" lon="8.187348889186978">
        <ele>1660.1300000000001</ele>
        <time>2019-08-04T15:23:08Z</time>
      </trkpt>
      <trkpt lat="46.152309011667967" lon="8.187498087063432">
        <ele>1659.7</ele>
        <time>2019-08-04T15:23:20Z</time>
      </trkpt>
      <trkpt lat="46.152306832373142" lon="8.187526250258088">
        <ele>1659.6500000000001</ele>
        <time>2019-08-04T15:23:22Z</time>
      </trkpt>
      <trkpt lat="46.152266096323729" lon="8.187687685713172">
        <ele>1659.54</ele>
        <time>2019-08-04T15:23:34Z</time>
      </trkpt>
      <trkpt lat="46.152206500992179" lon="8.18787426687777">
        <ele>1659.45</ele>
        <time>2019-08-04T15:23:47Z</time>
      </trkpt>
      <trkpt lat="46.152197448536754" lon="8.187911733984947">
        <ele>1659.22</ele>
        <time>2019-08-04T15:23:50Z</time>
      </trkpt>
      <trkpt lat="46.152172554284334" lon="8.187947273254395">
        <ele>1659.0799999999999</ele>
        <time>2019-08-04T15:23:53Z</time>
      </trkpt>
      <trkpt lat="46.152085717767477" lon="8.188127651810646">
        <ele>1657.54</ele>
        <time>2019-08-04T15:24:08Z</time>
      </trkpt>
      <trkpt lat="46.152078341692686" lon="8.188152965158224">
        <ele>1657.5699999999999</ele>
        <time>2019-08-04T15:24:10Z</time>
      </trkpt>
      <trkpt lat="46.152083287015557" lon="8.188320938497782">
        <ele>1656.02</ele>
        <time>2019-08-04T15:24:22Z</time>
      </trkpt>
      <trkpt lat="46.152084041386843" lon="8.188455887138844">
        <ele>1654.77</ele>
        <time>2019-08-04T15:24:33Z</time>
      </trkpt>
      <trkpt lat="46.152048669755459" lon="8.188588740304112">
        <ele>1653.77</ele>
        <time>2019-08-04T15:24:44Z</time>
      </trkpt>
      <trkpt lat="46.152000557631254" lon="8.188728131353855">
        <ele>1653.04</ele>
        <time>2019-08-04T15:24:56Z</time>
      </trkpt>
      <trkpt lat="46.151976250112057" lon="8.188766604289413">
        <ele>1652.76</ele>
        <time>2019-08-04T15:25:00Z</time>
      </trkpt>
      <trkpt lat="46.151919420808554" lon="8.188891327008605">
        <ele>1652.0999999999999</ele>
        <time>2019-08-04T15:25:12Z</time>
      </trkpt>
      <trkpt lat="46.151874912902713" lon="8.188991826027632">
        <ele>1650.6600000000001</ele>
        <time>2019-08-04T15:25:25Z</time>
      </trkpt>
      <trkpt lat="46.151872063055634" lon="8.189039686694741">
        <ele>1650.3399999999999</ele>
        <time>2019-08-04T15:25:30Z</time>
      </trkpt>
      <trkpt lat="46.151851695030928" lon="8.189094755798578">
        <ele>1649.6400000000001</ele>
        <time>2019-08-04T15:25:35Z</time>
      </trkpt>
      <trkpt lat="46.151817748323083" lon="8.189211515709758">
        <ele>1648.6099999999999</ele>
        <time>2019-08-04T15:25:45Z</time>
      </trkpt>
      <trkpt lat="46.151805175468326" lon="8.189247138798237">
        <ele>1648.49</ele>
        <time>2019-08-04T15:25:48Z</time>
      </trkpt>
      <trkpt lat="46.151782711967826" lon="8.189312685281038">
        <ele>1648.2</ele>
        <time>2019-08-04T15:25:53Z</time>
      </trkpt>
      <trkpt lat="46.151732001453638" lon="8.189468253403902">
        <ele>1647.5799999999999</ele>
        <time>2019-08-04T15:26:04Z</time>
      </trkpt>
      <trkpt lat="46.151680368930101" lon="8.189583672210574">
        <ele>1647.25</ele>
        <time>2019-08-04T15:26:13Z</time>
      </trkpt>
      <trkpt lat="46.151586156338453" lon="8.189719878137112">
        <ele>1646.47</ele>
        <time>2019-08-04T15:26:26Z</time>
      </trkpt>
      <trkpt lat="46.151531506329775" lon="8.189865471795201">
        <ele>1646.03</ele>
        <time>2019-08-04T15:26:39Z</time>
      </trkpt>
      <trkpt lat="46.151481047272682" lon="8.190015172585845">
        <ele>1645.27</ele>
        <time>2019-08-04T15:26:52Z</time>
      </trkpt>
      <trkpt lat="46.151428576558828" lon="8.190197311341763">
        <ele>1644.8399999999999</ele>
        <time>2019-08-04T15:27:06Z</time>
      </trkpt>
      <trkpt lat="46.151427989825606" lon="8.190359752625227">
        <ele>1644.3299999999999</ele>
        <time>2019-08-04T15:27:17Z</time>
      </trkpt>
      <trkpt lat="46.151386834681034" lon="8.19048497825861">
        <ele>1644.2</ele>
        <time>2019-08-04T15:27:27Z</time>
      </trkpt>
      <trkpt lat="46.151331346482038" lon="8.190628308802843">
        <ele>1643.72</ele>
        <time>2019-08-04T15:27:38Z</time>
      </trkpt>
      <trkpt lat="46.151299411430955" lon="8.190702069550753">
        <ele>1643.6099999999999</ele>
        <time>2019-08-04T15:27:44Z</time>
      </trkpt>
      <trkpt lat="46.15129329264164" lon="8.190732663497329">
        <ele>1643.2</ele>
        <time>2019-08-04T15:27:46Z</time>
      </trkpt>
      <trkpt lat="46.151253646239638" lon="8.190867528319359">
        <ele>1642.9400000000001</ele>
        <time>2019-08-04T15:27:56Z</time>
      </trkpt>
      <trkpt lat="46.151237217709422" lon="8.191073471680284">
        <ele>1642.51</ele>
        <time>2019-08-04T15:28:09Z</time>
      </trkpt>
      <trkpt lat="46.151216765865684" lon="8.191256280988455">
        <ele>1642.74</ele>
        <time>2019-08-04T15:28:21Z</time>
      </trkpt>
      <trkpt lat="46.151215089485049" lon="8.191272374242544">
        <ele>1642.54</ele>
        <time>2019-08-04T15:28:22Z</time>
      </trkpt>
      <trkpt lat="46.151238139718771" lon="8.191452166065574">
        <ele>1642.8</ele>
        <time>2019-08-04T15:28:34Z</time>
      </trkpt>
      <trkpt lat="46.151239983737469" lon="8.191464487463236">
        <ele>1642.8299999999999</ele>
        <time>2019-08-04T15:28:35Z</time>
      </trkpt>
      <trkpt lat="46.151281641796231" lon="8.191605973988771">
        <ele>1642.4100000000001</ele>
        <time>2019-08-04T15:28:45Z</time>
      </trkpt>
      <trkpt lat="46.151310978457332" lon="8.191808145493269">
        <ele>1642.01</ele>
        <time>2019-08-04T15:28:58Z</time>
      </trkpt>
      <trkpt lat="46.151322042569518" lon="8.191954744979739">
        <ele>1641.8599999999999</ele>
        <time>2019-08-04T15:29:08Z</time>
      </trkpt>
      <trkpt lat="46.151330675929785" lon="8.192091453820467">
        <ele>1641.77</ele>
        <time>2019-08-04T15:29:17Z</time>
      </trkpt>
      <trkpt lat="46.15133386105299" lon="8.192138811573386">
        <ele>1641.6099999999999</ele>
        <time>2019-08-04T15:29:20Z</time>
      </trkpt>
      <trkpt lat="46.151329083368182" lon="8.192170914262533">
        <ele>1641.5899999999999</ele>
        <time>2019-08-04T15:29:22Z</time>
      </trkpt>
      <trkpt lat="46.151338806375861" lon="8.19234617985785">
        <ele>1641.26</ele>
        <time>2019-08-04T15:29:33Z</time>
      </trkpt>
      <trkpt lat="46.151333106681705" lon="8.192559164017439">
        <ele>1641.0999999999999</ele>
        <time>2019-08-04T15:29:46Z</time>
      </trkpt>
      <trkpt lat="46.151321288198233" lon="8.192772651091218">
        <ele>1640.5999999999999</ele>
        <time>2019-08-04T15:30:00Z</time>
      </trkpt>
      <trkpt lat="46.151306116953492" lon="8.192965937778354">
        <ele>1640.4300000000001</ele>
        <time>2019-08-04T15:30:13Z</time>
      </trkpt>
      <trkpt lat="46.151323802769184" lon="8.193166684359312">
        <ele>1640.3499999999999</ele>
        <time>2019-08-04T15:30:27Z</time>
      </trkpt>
      <trkpt lat="46.151346014812589" lon="8.19335175678134">
        <ele>1640.8199999999999</ele>
        <time>2019-08-04T15:30:41Z</time>
      </trkpt>
      <trkpt lat="46.151277953758836" lon="8.193588713183999">
        <ele>1641.0599999999999</ele>
        <time>2019-08-04T15:30:57Z</time>
      </trkpt>
      <trkpt lat="46.151258926838636" lon="8.193855341523886">
        <ele>1641.1800000000001</ele>
        <time>2019-08-04T15:31:15Z</time>
      </trkpt>
      <trkpt lat="46.151278037577868" lon="8.19387118332088">
        <ele>1639.8399999999999</ele>
        <time>2019-08-04T15:31:27Z</time>
      </trkpt>
      <trkpt lat="46.15128013305366" lon="8.193876380100846">
        <ele>1639.6300000000001</ele>
        <time>2019-08-04T15:31:51Z</time>
      </trkpt>
      <trkpt lat="46.151289772242308" lon="8.193858526647091">
        <ele>1639.5799999999999</ele>
        <time>2019-08-04T15:32:21Z</time>
      </trkpt>
      <trkpt lat="46.151274349540472" lon="8.193825837224722">
        <ele>1639.3599999999999</ele>
        <time>2019-08-04T15:32:50Z</time>
      </trkpt>
      <trkpt lat="46.151245096698403" lon="8.193802032619715">
        <ele>1639.3</ele>
        <time>2019-08-04T15:33:13Z</time>
      </trkpt>
      <trkpt lat="46.15122782997787" lon="8.19379348307848">
        <ele>1639.3199999999999</ele>
        <time>2019-08-04T15:33:38Z</time>
      </trkpt>
      <trkpt lat="46.151226907968521" lon="8.193822484463453">
        <ele>1639.48</ele>
        <time>2019-08-04T15:34:06Z</time>
      </trkpt>
      <trkpt lat="46.151220453903079" lon="8.193856263533235">
        <ele>1640.3299999999999</ele>
        <time>2019-08-04T15:34:25Z</time>
      </trkpt>
    </trkseg>
  </trk>

</gpx>